Date StartTime U_cm/s V_cm/s W_cm/s Ustd_cm/s Vstd_cm/s Wstd_cm/s Uvar_(cm/s)^2 Vvar_(cm/s)^2 Wvar_(cm/s)^2 KE_(m/s)^2 TurbulentKE_(m/s)^2 HorizWindSpeed_cm/s FrictionSpeec_cm/s DragCoef SpeedOfSound_m/s SonicTemperature_C Pressure_mb 
05/01/2014  00:00:00      -83.093      -46.182       -5.464       26.171       15.363       11.504      684.939      236.013      132.340        0.506        0.053       95.064       11.887        0.016      338.770       11.647      868.643
05/01/2014  00:01:00     -116.870      -52.046      -14.250       10.750       13.385        8.196      115.565      179.166       67.166        0.847        0.018      127.935        5.782        0.002      338.646       11.439      868.639
05/01/2014  00:02:00     -129.488      -51.660      -13.829       12.893       15.872        6.931      166.224      251.916       48.035        1.005        0.023      139.413        2.301        0.000      338.679       11.493      868.630
05/01/2014  00:03:00     -111.280      -39.529       -9.262       24.513       25.468       12.565      600.898      648.640      157.879        0.772        0.070      118.092       10.212        0.007      338.640       11.428      868.625
05/01/2014  00:04:00     -104.927      -41.571      -12.783       22.415       17.652       14.069      502.424      311.608      197.939        0.696        0.051      112.862       14.712        0.017      338.701       11.532      868.637
05/01/2014  00:05:00      -13.783      -24.257       11.148       26.916       18.249       18.775      724.455      333.026      352.508        0.116        0.070       27.899       15.932        0.326      338.681       11.499      868.662
05/01/2014  00:06:00      -68.281      -78.394       -7.580       31.703       28.948       17.696     1005.054      837.969      313.134        0.651        0.108      103.961       17.760        0.029      338.729       11.578      868.688
05/01/2014  00:07:00      -76.019      -72.646       -1.106       35.547       28.568       20.025     1263.558      816.155      400.982        0.677        0.124      105.149       17.275        0.027      338.707       11.541      868.695
05/01/2014  00:08:00     -128.598      -80.440       -1.811       44.256       30.240       24.733     1958.552      914.479      611.705        1.325        0.174      151.684       18.364        0.015      338.647       11.440      868.700
05/01/2014  00:09:00     -139.561      -54.027       -6.368       44.613       55.003       29.956     1990.278     3025.338      897.347        1.417        0.296      149.653       23.658        0.025      338.624       11.403      868.696
05/01/2014  00:10:00      -93.270      -60.513        7.054       60.885       33.163       25.271     3707.017     1099.805      638.623        0.893        0.272      111.180       26.673        0.058      338.600       11.362      868.699
05/01/2014  00:11:00     -153.786      -73.450       -4.763       50.510       39.642       28.856     2551.276     1571.512      832.694        1.701        0.248      170.426       25.994        0.023      338.558       11.291      868.676
05/01/2014  00:12:00     -120.568      -85.634        0.567       54.459       37.941       28.032     2965.753     1439.512      785.766        1.353        0.260      147.884       25.288        0.029      338.531       11.246      868.671
05/01/2014  00:13:00      -84.268      -68.451        0.730       38.267       35.883       21.417     1464.326     1287.557      458.670        0.750        0.161      108.566       22.309        0.042      338.493       11.182      868.688
05/01/2014  00:14:00      -95.389      -39.248      -11.055       30.064       24.095       18.351      903.859      580.587      336.771        0.629        0.091      103.148       11.346        0.012      338.541       11.263      868.706
05/01/2014  00:15:00     -111.275      -42.906      -16.413       15.733       22.121       12.525      247.534      489.335      156.886        0.769        0.045      119.261        8.382        0.005      338.523       11.232      868.708
05/01/2014  00:16:00     -136.106      -15.553      -19.234       24.320       22.971       17.169      591.445      527.681      294.761        1.028        0.071      136.992        9.913        0.005      338.369       10.973      868.704
05/01/2014  00:17:00     -109.195      -49.339       -2.663       33.974       23.714       17.732     1154.256      562.335      314.439        0.820        0.102      119.825       16.441        0.019      338.247       10.769      868.708
05/01/2014  00:18:00      -87.796      -37.222       -5.627       30.515       25.986       20.943      931.163      675.254      438.627        0.558        0.102       95.360       19.974        0.044      338.206       10.700      868.720
05/01/2014  00:19:00     -131.077      -30.109      -11.830       18.519       19.468       13.351      342.939      379.004      178.249        0.956        0.045      134.491        7.138        0.003      338.137       10.584      868.733
05/01/2014  00:20:00      -75.080      -41.936       -0.280       24.884       17.662       15.868      619.227      311.931      251.796        0.429        0.059       85.997       13.580        0.025      338.215       10.715      868.737
05/01/2014  00:21:00      -97.932      -49.831      -10.733       33.620       17.192       13.605     1130.337      295.549      185.103        0.690        0.081      109.880       15.216        0.019      338.189       10.673      868.735
05/01/2014  00:22:00     -143.349      -73.290      -12.138       14.044       16.442       10.035      197.223      270.333      100.709        1.332        0.028      160.998        7.306        0.002      338.206       10.700      868.705
05/01/2014  00:23:00      -93.700      -43.774        1.150       45.367       23.589       18.810     2058.164      556.420      353.798        0.683        0.148      103.421       22.711        0.048      338.151       10.608      868.694
05/01/2014  00:24:00      -81.964      -42.602        0.008       30.688       15.184       14.915      941.777      230.557      222.454        0.496        0.070       92.375       17.264        0.035      338.178       10.653      868.698
05/01/2014  00:25:00     -112.955      -36.706      -18.500       18.420       14.762       15.552      339.312      217.918      241.865        0.762        0.040      118.770       11.289        0.009      338.213       10.711      868.689
05/01/2014  00:26:00     -129.980      -38.488      -13.469       18.379       17.056       14.514      337.778      290.920      210.670        0.970        0.042      135.559        8.223        0.004      338.225       10.732      868.675
05/01/2014  00:27:00     -108.177      -37.816      -15.930       10.434       10.514        9.022      108.872      110.545       81.391        0.684        0.015      114.596        5.984        0.003      338.244       10.764      868.684
05/01/2014  00:28:00     -119.977      -22.975      -17.558       24.320       18.151       17.641      591.464      329.459      311.189        0.823        0.062      122.157       15.189        0.015      338.340       10.925      868.693
05/01/2014  00:29:00     -137.673      -32.697      -16.091       15.699       18.614       14.545      246.471      346.478      211.555        1.054        0.040      141.503        8.679        0.004      338.176       10.650      868.694
05/01/2014  00:30:00     -153.887      -64.239      -29.507       16.100       21.352       13.399      259.196      455.922      179.539        1.479        0.045      166.757       10.968        0.004      337.907       10.199      868.693
05/01/2014  00:31:00     -102.767      -79.400      -10.067       50.477       27.636       29.295     2547.965      763.774      858.218        1.057        0.208      129.867       28.191        0.047      337.931       10.238      868.705
05/01/2014  00:32:00     -119.881      -68.030       -7.003       86.608       38.338       34.984     7500.867     1469.796     1223.904        1.462        0.510      137.838       43.367        0.099      337.871       10.138      868.718
05/01/2014  00:33:00     -193.965      -52.473      -10.337       46.375       30.423       20.027     2150.614      925.542      401.086        2.198        0.174      200.937       17.022        0.007      337.789       10.000      868.728
05/01/2014  00:34:00     -117.355      -82.337       -1.733       53.572       30.936       35.555     2869.952      957.056     1264.180        1.282        0.255      143.358       35.244        0.060      337.764        9.958      868.736
05/01/2014  00:35:00      -91.000      -58.451        2.626       52.164       35.282       25.482     2721.044     1244.791      649.327        0.816        0.231      108.155       27.121        0.063      337.827       10.064      868.749
05/01/2014  00:36:00     -140.692      -20.706       -5.031       50.087       43.018       23.190     2508.734     1850.538      537.785        1.257        0.245      142.207       20.374        0.021      337.902       10.190      868.753
05/01/2014  00:37:00     -134.251        3.825      -11.415       54.245       51.089       26.151     2942.551     2610.052      683.886        1.220        0.312      134.305       23.548        0.031      338.119       10.553      868.758
05/01/2014  00:38:00     -127.126       -0.639       -0.102       49.978       42.239       29.849     2497.751     1784.103      890.956        1.067        0.259      127.128       28.904        0.052      338.115       10.548      868.765
05/01/2014  00:39:00      -95.926      -11.627      -10.110       40.930       37.199       22.269     1675.294     1383.791      495.920        0.650        0.178       96.628       18.581        0.037      338.228       10.736      868.770
05/01/2014  00:40:00     -130.590       -1.541       -5.144       58.912       47.591       33.169     3470.620     2264.890     1100.189        1.196        0.342      130.599       29.327        0.050      338.345       10.932      868.769
05/01/2014  00:41:00     -113.503       33.387       -5.255       80.673       56.061       36.642     6508.129     3142.782     1342.667        1.251        0.550      118.312       34.166        0.083      338.528       11.241      868.763
05/01/2014  00:42:00     -105.911        2.714      -12.438       78.962       45.879       31.625     6235.045     2104.886     1000.162        1.036        0.467      105.946       32.150        0.092      338.455       11.117      868.761
05/01/2014  00:43:00      -82.722      -65.639        4.686       46.631       47.416       27.936     2174.471     2248.316      780.442        0.819        0.260      105.600       21.672        0.042      338.146       10.598      868.773
05/01/2014  00:44:00      -18.505      -22.976        1.554       33.579       29.840       21.160     1127.571      890.402      447.730        0.167        0.123       29.501       17.070        0.335      338.139       10.587      868.780
05/01/2014  00:45:00      -32.274      -11.245        2.930       19.539       14.164       17.936      381.763      200.612      321.717        0.104        0.045       34.177       11.447        0.112      338.045       10.429      868.766
05/01/2014  00:46:00      -26.448      -29.087        1.322       19.101       12.260       18.328      364.836      150.300      335.907        0.120        0.043       39.313       13.880        0.125      338.117       10.550      868.755
05/01/2014  00:47:00      -52.371      -31.808      -12.416       18.986       15.660       13.133      360.482      245.232      172.466        0.234        0.039       61.274        8.076        0.017      338.293       10.847      868.740
05/01/2014  00:48:00      -36.284      -28.800       -9.356       13.269       11.159       10.610      176.061      124.514      112.563        0.132        0.021       46.325        8.249        0.032      338.440       11.093      868.732
05/01/2014  00:49:00      -42.754      -34.051       -9.085       17.115       19.347       12.983      292.917      374.296      168.549        0.195        0.042       54.657        9.690        0.031      338.409       11.041      868.715
05/01/2014  00:50:00      -52.106      -30.780      -10.840       21.056       16.099       10.528      443.334      259.191      110.835        0.230        0.041       60.519        6.414        0.011      338.400       11.025      868.694
05/01/2014  00:51:00      -48.113      -29.952       -9.876       18.701       21.199       12.297      349.740      449.398      151.228        0.213        0.048       56.675        7.107        0.016      338.308       10.870      868.685
05/01/2014  00:52:00      -11.225      -27.760       -6.231       18.916       11.662       13.018      357.817      135.991      169.462        0.080        0.033       29.943       11.793        0.155      338.212       10.710      868.687
05/01/2014  00:53:00      -48.230      -26.043       -7.837       25.007       18.640       10.192      625.338      347.468      103.878        0.207        0.054       54.812        8.923        0.027      338.154       10.613      868.676
05/01/2014  00:54:00      -77.806      -33.760      -12.439       20.140       16.726       14.924      405.617      279.765      222.716        0.413        0.045       84.814        6.973        0.007      338.159       10.621      868.665
05/01/2014  00:55:00      -58.703      -44.156       -8.846       23.882       23.015       15.189      570.363      529.699      230.697        0.340        0.067       73.456       12.081        0.027      338.198       10.685      868.660
05/01/2014  00:56:00      -59.252      -25.887       -8.386       15.578       18.247       11.053      242.676      332.946      122.169        0.247        0.035       64.660        6.869        0.011      338.099       10.520      868.666
05/01/2014  00:57:00      -48.082      -23.992       -7.393       12.838       20.023       11.826      164.804      400.909      139.860        0.182        0.035       53.735        5.165        0.009      338.292       10.843      868.676
05/01/2014  00:58:00      -77.909      -37.667      -10.320       15.582       12.952        9.108      242.799      167.753       82.954        0.404        0.025       86.537        4.582        0.003      338.144       10.596      868.682
05/01/2014  00:59:00      -76.769      -45.396      -11.957       17.499       23.186       12.982      306.223      537.608      168.525        0.455        0.051       89.186        8.722        0.010      338.143       10.594      868.672
05/01/2014  01:00:00      -37.822      -33.645        0.007       21.678       22.705       21.985      469.922      515.501      483.342        0.202        0.073       50.621       18.399        0.132      338.014       10.379      868.664
05/01/2014  01:01:00      -23.887      -31.533       -7.731       16.017       13.768       14.218      256.543      189.551      202.146        0.114        0.032       39.559       11.383        0.083      338.290       10.842      868.674
05/01/2014  01:02:00      -53.238      -34.863       -8.905       24.160       14.768       16.095      583.697      218.092      259.045        0.259        0.053       63.637        9.609        0.023      338.298       10.855      868.680
05/01/2014  01:03:00      -40.514      -37.096       -4.424       27.919       20.592       18.120      779.458      424.021      328.337        0.228        0.077       54.932       11.195        0.042      338.131       10.573      868.688
05/01/2014  01:04:00       -9.189      -21.715       -3.258       16.298       19.974       11.926      265.624      398.969      142.218        0.069        0.040       23.579       10.804        0.210      338.385       11.001      868.701
05/01/2014  01:05:00        0.105      -22.128       -7.320       11.169       13.076        8.555      124.749      170.989       73.182        0.046        0.018       22.128        5.940        0.072      338.536       11.254      868.707
05/01/2014  01:06:00       21.901        3.036        5.325       13.420       11.184        9.205      180.108      125.085       84.729        0.045        0.019       22.110        6.253        0.080      338.823       11.737      868.712
05/01/2014  01:07:00       12.606        7.497        0.484       18.004       10.048        7.602      324.139      100.953       57.794        0.035        0.024       14.667        4.068        0.077      338.858       11.795      868.707
05/01/2014  01:08:00      -25.934        6.834       -3.497       26.986       20.532       12.953      728.257      421.547      167.784        0.102        0.066       26.819       10.896        0.165      338.622       11.398      868.688
05/01/2014  01:09:00      -51.600      -26.558       -0.066       16.360       12.648       14.675      267.660      159.964      215.354        0.201        0.032       58.033        9.318        0.026      338.093       10.510      868.673
05/01/2014  01:10:00      -18.735      -18.236       -5.523       20.544       15.966        6.428      422.073      254.908       41.315        0.072        0.036       26.145        5.551        0.045      338.645       11.437      868.662
05/01/2014  01:11:00      -50.457      -15.232       -5.428       11.257       10.576        6.643      126.711      111.848       44.124        0.154        0.014       52.706        3.582        0.005      338.277       10.819      868.660
05/01/2014  01:12:00      -32.676      -30.289       -2.092       29.754       12.879       10.892      885.274      165.870      118.642        0.158        0.058       44.555       14.755        0.110      337.945       10.262      868.660
05/01/2014  01:13:00      -42.377      -22.856      -11.135       17.427       14.474        8.126      303.708      209.504       66.039        0.151        0.029       48.147        3.652        0.006      337.952       10.274      868.663
05/01/2014  01:14:00      -60.559      -31.976       -2.221       20.587       12.570       13.133      423.808      157.996      172.484        0.272        0.038       68.482       13.717        0.040      337.847       10.097      868.661
05/01/2014  01:15:00      -99.376      -34.462      -14.589       11.774       10.875        8.226      138.625      118.261       67.660        0.580        0.016      105.182        6.357        0.004      337.766        9.962      868.648
05/01/2014  01:16:00     -130.448      -33.210      -18.242       18.540       13.658        9.564      343.723      186.544       91.473        0.954        0.031      134.609        7.217        0.003      337.748        9.933      868.636
05/01/2014  01:17:00     -122.756      -43.581      -14.953       19.728       16.041       14.032      389.189      257.314      196.904        0.902        0.042      130.262       12.525        0.009      337.807       10.029      868.633
05/01/2014  01:18:00     -112.029      -34.983      -14.356       16.296       17.173       14.875      265.546      294.901      221.253        0.738        0.039      117.364        9.586        0.007      337.744        9.924      868.638
05/01/2014  01:19:00     -129.598      -41.693      -19.720       11.818       10.883       10.967      139.658      118.438      120.271        0.965        0.019      136.139        5.440        0.002      337.790       10.001      868.643
05/01/2014  01:20:00     -137.656      -29.718      -12.828       20.872       15.575       13.933      435.651      242.592      194.141        1.043        0.044      140.828       10.144        0.005      337.851       10.105      868.651
05/01/2014  01:21:00     -158.595      -33.691      -30.966       16.660       12.863       15.782      277.546      165.454      249.059        1.397        0.035      162.134        9.874        0.004      337.718        9.883      868.633
05/01/2014  01:22:00     -139.079      -44.832       -6.719       34.536       27.315       20.327     1192.767      746.103      413.187        1.187        0.118      146.127       19.571        0.018      337.556        9.609      868.631
05/01/2014  01:23:00     -165.226      -62.250        0.647       33.581       32.770       24.696     1127.709     1073.858      609.897        1.699        0.141      176.563       20.678        0.014      337.521        9.551      868.638
05/01/2014  01:24:00     -139.336      -49.917       -3.415       31.919       34.189       22.192     1018.801     1168.871      492.494        1.230        0.134      148.008       17.274        0.014      337.578        9.647      868.632
05/01/2014  01:25:00     -158.444      -39.295      -10.633       28.707       20.695       16.351      824.084      428.266      267.341        1.414        0.076      163.244       16.776        0.011      337.453        9.436      868.626
05/01/2014  01:26:00     -152.971      -61.550       -6.783       29.834       28.205       20.102      890.089      795.539      404.080        1.466        0.104      164.890       15.713        0.009      337.479        9.482      868.620
05/01/2014  01:27:00     -163.826      -72.955        1.376       55.824       31.250       23.682     3116.317      976.588      560.857        1.841        0.233      179.336       22.435        0.016      337.561        9.617      868.632
05/01/2014  01:28:00     -116.177      -66.382       -1.077       48.649       32.775       28.864     2366.692     1074.224      833.143        1.109        0.214      133.804       26.875        0.040      337.509        9.530      868.639
05/01/2014  01:29:00     -126.261      -58.265       -3.697       28.464       24.937       18.338      810.211      621.844      336.280        1.056        0.088      139.056       18.270        0.017      337.473        9.471      868.637
05/01/2014  01:30:00     -153.279      -63.753       -6.073       27.998       31.182       14.484      783.875      972.337      209.793        1.478        0.098      166.009       11.457        0.005      337.485        9.491      868.614
05/01/2014  01:31:00     -110.187      -64.163        2.317       43.289       34.089       26.608     1873.940     1162.058      707.961        1.000        0.187      127.507       20.849        0.027      337.463        9.453      868.598
05/01/2014  01:32:00     -124.434      -63.735       -2.321       47.642       32.970       27.917     2269.785     1087.053      779.356        1.184        0.207      139.807       23.202        0.028      337.452        9.435      868.595
05/01/2014  01:33:00     -135.389      -38.979       -0.446       47.343       29.666       21.901     2241.371      880.093      479.643        1.172        0.180      140.888       23.514        0.028      337.546        9.594      868.589
05/01/2014  01:34:00     -156.479      -52.594       -5.459       39.071       28.938       18.038     1526.539      837.397      325.387        1.498        0.134      165.081       15.190        0.008      337.542        9.586      868.576
05/01/2014  01:35:00     -181.251      -60.868       -4.960       21.013       25.473       14.738      441.547      648.862      217.212        1.894        0.065      191.199       11.226        0.003      337.501        9.518      868.558
05/01/2014  01:36:00     -156.547      -86.367      -13.881       29.835       23.601       16.943      890.155      556.991      287.069        1.695        0.087      178.791        9.762        0.003      337.329        9.229      868.536
05/01/2014  01:37:00     -137.791      -53.934       -8.272       33.312       36.951       21.565     1109.711     1365.370      465.064        1.245        0.147      147.970       17.138        0.013      337.361        9.283      868.525
05/01/2014  01:38:00     -142.341      -34.219       -9.954       33.017       29.312       20.731     1090.153      859.222      429.770        1.195        0.119      146.397       19.810        0.018      337.446        9.427      868.535
05/01/2014  01:39:00     -153.256      -45.310      -12.632       32.338       25.601       17.331     1045.735      655.426      300.349        1.385        0.100      159.813       14.050        0.008      337.305        9.190      868.538
05/01/2014  01:40:00     -161.257      -36.980      -13.906       23.980       19.037       18.158      575.040      362.417      329.696        1.442        0.063      165.443       12.056        0.005      337.297        9.177      868.532
05/01/2014  01:41:00     -134.636      -37.181      -11.136       19.760       21.919       13.768      390.475      480.462      189.559        1.035        0.053      139.676       10.930        0.006      337.419        9.380      868.523
05/01/2014  01:42:00     -151.114      -68.264      -16.142       20.472       18.060       10.587      419.097      326.174      112.089        1.431        0.043      165.818       10.435        0.004      337.364        9.289      868.536
05/01/2014  01:43:00     -164.820      -79.136      -10.339       23.195       22.395       17.931      538.012      501.532      321.534        1.745        0.068      182.833       13.015        0.005      337.471        9.467      868.519
05/01/2014  01:44:00     -130.759      -80.056        6.489       48.449       39.985       24.500     2347.274     1598.777      600.268        1.405        0.227      153.319       26.209        0.029      337.452        9.435      868.502
05/01/2014  01:45:00     -134.870      -87.282       -0.421       50.818       31.918       26.201     2582.490     1018.765      686.510        1.505        0.214      160.649       22.520        0.020      337.522        9.553      868.506
05/01/2014  01:46:00     -141.042      -86.552       -4.128       38.651       31.987       26.989     1493.907     1023.179      728.379        1.532        0.162      165.481       22.167        0.018      337.603        9.690      868.509
05/01/2014  01:47:00     -130.487      -77.969       -5.738       36.439       29.952       21.354     1327.769      897.097      456.006        1.291        0.134      152.007       18.795        0.015      337.414        9.372      868.499
05/01/2014  01:48:00     -121.544      -82.614        0.830       51.593       31.207       25.890     2661.813      973.885      670.303        1.295        0.215      146.963       26.659        0.033      337.401        9.350      868.490
05/01/2014  01:49:00     -146.722      -88.932       -2.755       25.994       21.210       18.823      675.678      449.856      354.293        1.546        0.074      171.570       13.788        0.006      337.405        9.356      868.483
05/01/2014  01:50:00     -156.129      -79.499       -6.994       20.471       21.263       11.774      419.066      452.126      138.623        1.588        0.050      175.203        8.633        0.002      337.486        9.493      868.486
05/01/2014  01:51:00     -136.150      -63.811      -11.761        9.897       13.149        9.890       97.946      172.885       97.804        1.156        0.018      150.362        3.640        0.001      337.454        9.437      868.482
05/01/2014  01:52:00     -110.828      -54.877       -3.747       25.719       26.657       14.541      661.454      710.613      211.450        0.845        0.079      123.670       12.315        0.010      337.514        9.539      868.485
05/01/2014  01:53:00      -67.942      -49.740        4.814       40.797       32.472       22.109     1664.366     1054.426      488.802        0.516        0.160       84.203       15.926        0.036      337.462        9.453      868.501
05/01/2014  01:54:00      -65.337      -44.487        7.552       57.124       39.067       27.534     3263.160     1526.196      758.097        0.593        0.277       79.044       28.188        0.127      337.454        9.438      868.501
05/01/2014  01:55:00     -106.323      -75.984        7.130       41.015       30.487       23.532     1682.252      929.465      553.763        1.015        0.158      130.683       22.274        0.029      337.401        9.349      868.488
05/01/2014  01:56:00     -114.299      -71.535       -4.051       35.760       20.890       19.769     1278.787      436.406      390.810        1.015        0.105      134.839       13.137        0.009      337.321        9.216      868.481
05/01/2014  01:57:00     -124.404      -75.635       -6.608       24.187       22.694       18.194      585.006      515.009      331.027        1.134        0.072      145.591       14.975        0.011      337.321        9.217      868.469
05/01/2014  01:58:00     -113.947      -70.169       -3.424       44.832       30.523       22.456     2009.915      931.645      504.271        1.068        0.172      133.819       21.791        0.027      337.287        9.160      868.461
05/01/2014  01:59:00      -89.131      -49.915       -5.688       25.810       17.112       13.825      666.180      292.810      191.118        0.581        0.058      102.157       11.270        0.012      337.241        9.083      868.468
05/01/2014  02:00:00     -131.886      -58.990      -17.738       19.315       15.424       18.831      373.069      237.906      354.614        1.108        0.048      144.478       12.344        0.007      337.269        9.129      868.449
05/01/2014  02:01:00     -112.272      -54.639       -8.167       37.579       23.320       23.245     1412.209      543.825      540.327        0.908        0.125      124.861       21.507        0.030      337.210        9.030      868.420
05/01/2014  02:02:00      -28.221      -46.839        9.228       38.899       29.671       28.036     1513.103      880.371      786.010        0.313        0.159       54.684       22.205        0.165      337.272        9.134      868.417
05/01/2014  02:03:00     -121.342      -83.663       -1.637       41.514       30.921       25.122     1723.423      956.094      631.118        1.252        0.166      147.389       21.290        0.021      337.262        9.117      868.415
05/01/2014  02:04:00      -94.296      -75.101        5.701       59.262       49.352       35.013     3511.975     2435.642     1225.940        1.087        0.359      120.548       37.289        0.096      337.183        8.986      868.409
05/01/2014  02:05:00     -170.942      -94.258        0.053       61.383       51.036       36.036     3767.921     2604.650     1298.575        2.289        0.384      195.207       32.353        0.027      337.156        8.937      868.391
05/01/2014  02:06:00     -177.174     -100.378       -2.332       69.230       51.234       37.443     4792.859     2624.891     1401.977        2.514        0.441      203.633       36.494        0.032      337.161        8.944      868.353
05/01/2014  02:07:00     -159.082     -109.897        1.337       59.733       45.127       29.944     3568.014     2036.448      896.625        2.194        0.325      193.351       33.757        0.030      337.190        8.995      868.356
05/01/2014  02:08:00     -159.471      -72.471      -10.703       32.656       31.618       17.936     1066.439      999.699      321.702        1.659        0.119      175.166       13.658        0.006      337.174        8.970      868.348
05/01/2014  02:09:00     -147.752      -44.521       -5.674       45.042       36.505       26.061     2028.781     1332.606      679.152        1.394        0.202      154.314       27.810        0.032      337.189        8.995      868.337
05/01/2014  02:10:00     -161.376      -67.958      -10.859       29.345       31.263       20.508      861.136      977.383      420.576        1.652        0.113      175.101       17.143        0.010      337.205        9.021      868.315
05/01/2014  02:11:00     -146.533      -73.897        0.748       40.034       31.201       20.433     1602.702      973.477      417.502        1.496        0.150      164.111       21.084        0.017      337.229        9.061      868.305
05/01/2014  02:12:00     -138.821      -70.354       -0.139       40.766       37.932       23.886     1661.847     1438.851      570.525        1.395        0.184      155.631       15.427        0.010      337.195        9.005      868.318
05/01/2014  02:13:00      -64.134      -49.840       10.367       76.165       51.565       27.934     5801.169     2658.924      780.334        0.797        0.462       81.223       35.928        0.196      337.253        9.103      868.323
05/01/2014  02:14:00     -136.133     -102.298        2.333       55.796       51.279       25.503     3113.233     2629.561      650.379        1.770        0.320      170.286       29.729        0.030      337.189        8.993      868.310
05/01/2014  02:15:00     -131.296      -92.448        5.461       52.609       39.588       26.818     2767.711     1567.218      719.231        1.543        0.253      160.578       25.282        0.025      337.140        8.913      868.307
05/01/2014  02:16:00     -124.935      -97.980        0.703       51.979       44.492       28.179     2701.809     1979.565      794.033        1.534        0.274      158.773       27.136        0.029      337.174        8.968      868.298
05/01/2014  02:17:00     -137.302     -105.570       -4.087       44.499       30.765       26.169     1980.180      946.489      684.809        1.681        0.181      173.197       19.388        0.013      337.181        8.981      868.273
05/01/2014  02:18:00     -108.462      -82.896       -0.659       58.659       35.904       27.983     3440.844     1289.105      783.034        1.207        0.276      136.512       28.002        0.042      337.112        8.866      868.256
05/01/2014  02:19:00     -113.705      -88.687        1.514       46.795       33.791       31.600     2189.739     1141.861      998.562        1.256        0.217      144.202       26.370        0.033      336.937        8.573      868.258
05/01/2014  02:20:00     -116.321     -100.950        1.829       42.203       39.011       29.274     1781.093     1521.851      856.948        1.394        0.208      154.018       22.061        0.021      336.987        8.656      868.244
05/01/2014  02:21:00     -143.283      -81.648       -3.061       33.237       22.502       19.526     1104.708      506.337      381.281        1.460        0.100      164.913       17.104        0.011      336.920        8.544      868.242
05/01/2014  02:22:00     -107.809      -53.680       -2.567       35.737       26.242       22.425     1277.106      688.642      502.897        0.849        0.123      120.434       22.378        0.035      336.980        8.644      868.246
05/01/2014  02:23:00      -94.235      -72.869       -4.810       30.974       31.050       21.162      959.413      964.123      447.836        0.829        0.119      119.122       19.882        0.028      337.101        8.848      868.250
05/01/2014  02:24:00      -61.426      -54.366        2.458       34.950       27.616       24.060     1221.470      762.648      578.872        0.465        0.128       82.029       15.209        0.034      337.089        8.827      868.248
05/01/2014  02:25:00      -63.017      -62.181        4.130       39.931       30.979       24.789     1594.498      959.701      614.486        0.551        0.158       88.530       21.571        0.059      337.187        8.992      868.241
05/01/2014  02:26:00      -89.963      -59.483        4.895       50.254       43.081       22.538     2525.469     1855.979      507.982        0.827        0.244      107.850       27.582        0.065      337.221        9.049      868.249
05/01/2014  02:27:00      -98.938      -63.379        1.420       37.782       28.244       21.782     1427.508      797.746      474.477        0.825        0.135      117.498       18.017        0.024      337.196        9.006      868.242
05/01/2014  02:28:00      -43.996      -39.688       13.626       54.506       35.474       26.093     2970.919     1258.407      680.819        0.430        0.246       59.252       27.876        0.221      337.204        9.022      868.246
05/01/2014  02:29:00      -64.120      -54.420        2.282       47.288       27.777       20.471     2236.188      771.577      419.053        0.525        0.171       84.101       21.692        0.067      337.280        9.148      868.262
05/01/2014  02:30:00      -95.542      -43.591       -1.579       28.653       20.604       14.188      820.970      424.540      201.313        0.624        0.072      105.017       11.885        0.013      337.202        9.018      868.264
05/01/2014  02:31:00     -132.792      -23.782      -13.363       17.140       16.321       15.094      293.796      266.379      227.842        0.958        0.039      134.905       11.647        0.007      337.072        8.799      868.246
05/01/2014  02:32:00     -136.425      -26.488      -14.222       33.809       16.053       18.740     1143.041      257.686      351.170        1.063        0.088      138.973       20.813        0.022      337.223        9.052      868.227
05/01/2014  02:33:00     -127.702      -35.324      -13.152       21.302       22.384       17.597      453.775      501.034      309.669        0.950        0.063      132.498       11.395        0.007      337.088        8.826      868.219
05/01/2014  02:34:00     -117.861      -42.275      -14.171       30.613       27.263       21.827      937.134      743.287      476.412        0.902        0.108      125.213       12.672        0.010      337.138        8.909      868.230
05/01/2014  02:35:00     -132.877      -62.825       -6.732       31.404       28.728       21.109      986.224      825.325      445.580        1.195        0.113      146.981       21.010        0.020      337.164        8.952      868.230
05/01/2014  02:36:00      -55.780      -60.699        8.639       67.593       49.008       30.063     4568.843     2401.754      903.810        0.737        0.394       82.436       40.085        0.236      337.017        8.706      868.233
05/01/2014  02:37:00      -68.349      -78.921       -1.706       45.248       46.552       34.626     2047.415     2167.070     1198.933        0.816        0.271      104.404       22.551        0.047      336.981        8.647      868.238
05/01/2014  02:38:00     -107.322      -91.405       -3.701       73.411       59.399       35.890     5389.134     3528.209     1288.056        1.504        0.510      140.971       37.881        0.072      336.871        8.461      868.248
05/01/2014  02:39:00      -70.116      -74.552       10.398       72.587       41.549       36.442     5268.845     1726.314     1328.006        0.945        0.416      102.344       27.780        0.074      336.835        8.404      868.237
05/01/2014  02:40:00     -138.081      -89.896      -16.745       51.075       38.252       35.841     2608.625     1463.247     1284.578        1.639        0.268      164.766       21.542        0.017      336.752        8.264      868.217
05/01/2014  02:41:00      -88.599      -40.916        5.162       41.864       33.506       22.312     1752.582     1122.647      497.833        0.646        0.169       97.590       21.561        0.049      336.828        8.391      868.199
05/01/2014  02:42:00     -107.712      -57.303       -0.338       20.387       20.949       12.420      415.621      438.865      154.268        0.795        0.050      122.006        9.549        0.006      336.788        8.324      868.177
05/01/2014  02:43:00     -101.930      -40.485       -3.410       25.649       18.981       13.237      657.891      360.279      175.220        0.662        0.060      109.676       13.006        0.014      336.838        8.408      868.177
05/01/2014  02:44:00      -72.636      -42.946       -6.630       30.220       20.880       13.866      913.262      435.986      192.253        0.435        0.077       84.382        9.308        0.012      336.886        8.488      868.180
05/01/2014  02:45:00      -98.911      -39.378      -11.790       13.628       12.078       10.196      185.712      145.869      103.951        0.595        0.022      106.461        6.148        0.003      336.898        8.507      868.179
05/01/2014  02:46:00     -113.324      -53.401       -6.513       19.135       13.958        9.756      366.136      194.831       95.179        0.820        0.033      125.275        6.110        0.002      336.889        8.492      868.171
05/01/2014  02:47:00      -76.274      -46.343       -2.927       30.250       21.939       16.814      915.050      481.322      282.717        0.483        0.084       89.249        9.024        0.010      336.876        8.473      868.178
05/01/2014  02:48:00      -44.776      -40.486        3.608       54.525       23.073       19.758     2972.992      532.353      390.373        0.378        0.195       60.366       26.321        0.190      336.893        8.501      868.201
05/01/2014  02:49:00      -60.027      -46.392        9.513       53.187       40.802       32.436     2828.853     1664.805     1052.085        0.569        0.277       75.865       37.267        0.241      336.778        8.309      868.224
05/01/2014  02:50:00     -101.778      -81.586      -11.939       21.499       20.056       16.578      462.215      402.255      274.830        0.915        0.057      130.442        9.433        0.005      336.777        8.307      868.207
05/01/2014  02:51:00      -89.118      -37.828       -2.938       21.641       18.310       12.962      468.317      335.272      168.006        0.518        0.049       96.814        4.455        0.002      336.740        8.246      868.208
05/01/2014  02:52:00     -113.072      -52.694       -7.692       21.822       14.007       18.782      476.195      196.205      352.778        0.832        0.051      124.747       13.295        0.011      336.745        8.253      868.205
05/01/2014  02:53:00      -93.459      -56.515       -1.247       34.413       20.616       18.761     1184.223      425.003      351.957        0.695        0.098      109.218       17.157        0.025      336.628        8.059      868.202
05/01/2014  02:54:00     -122.324      -51.374       -7.130       17.564       12.501       15.537      308.488      156.281      241.393        0.918        0.035      132.674       10.025        0.006      336.634        8.070      868.212
05/01/2014  02:55:00     -137.263      -35.175      -19.254       15.766       18.051       15.142      248.555      325.843      229.278        1.063        0.040      141.699        6.142        0.002      336.710        8.196      868.195
05/01/2014  02:56:00     -131.368      -20.580      -24.187       15.801       15.576       13.126      249.663      242.619      172.293        0.947        0.033      132.970        5.052        0.001      336.654        8.102      868.191
05/01/2014  02:57:00     -121.605      -38.623       -5.508       21.976       19.352       12.949      482.923      374.509      167.680        0.867        0.051      127.591       12.248        0.009      336.711        8.198      868.207
05/01/2014  02:58:00     -139.001      -48.641      -14.519       19.852       19.111       13.324      394.119      365.249      177.535        1.142        0.047      147.266       11.796        0.006      336.714        8.202      868.200
05/01/2014  02:59:00      -91.774      -60.673       -1.775       46.595       39.187       26.000     2171.071     1535.653      676.013        0.824        0.219      110.017       24.878        0.051      336.688        8.159      868.192
05/01/2014  03:00:00      -67.512      -57.053        4.734       53.898       44.950       24.470     2905.014     2020.505      598.772        0.668        0.276       88.391       29.604        0.112      336.589        7.993      868.199
05/01/2014  03:01:00     -102.414      -68.344        7.450       47.473       26.348       25.075     2253.664      694.205      628.738        0.940        0.179      123.124       26.957        0.048      336.588        7.992      868.204
05/01/2014  03:02:00     -112.454      -64.840      -11.669       18.680       16.690       11.879      348.924      278.548      141.109        0.888        0.038      129.808       10.106        0.006      336.629        8.060      868.203
05/01/2014  03:03:00      -35.320      -29.657       12.415       36.474       21.122       19.795     1330.319      446.152      391.857        0.222        0.108       46.120       21.256        0.212      336.607        8.023      868.205
05/01/2014  03:04:00      -57.342      -47.255        3.566       38.165       32.004       19.367     1456.550     1024.283      375.094        0.419        0.143       74.304       16.467        0.049      336.594        8.002      868.206
05/01/2014  03:05:00      -84.287      -56.977        0.297       47.453       24.946       18.785     2251.802      622.304      352.883        0.679        0.161      101.739       12.614        0.015      336.501        7.845      868.183
05/01/2014  03:06:00     -115.369      -84.617        0.909       43.893       24.528       25.464     1926.573      601.611      648.423        1.182        0.159      143.074       21.153        0.022      336.538        7.909      868.189
05/01/2014  03:07:00      -97.000      -90.593       -2.089       62.409       51.302       26.909     3894.904     2631.930      724.110        1.243        0.363      132.726       25.564        0.037      336.501        7.844      868.199
05/01/2014  03:08:00     -125.290     -111.015       -7.543       68.180       57.473       33.992     4648.550     3303.147     1155.426        1.859        0.455      167.397       33.932        0.041      336.468        7.788      868.199
05/01/2014  03:09:00     -155.358     -147.093      -11.744       44.806       43.545       32.774     2007.566     1896.168     1074.109        2.544        0.249      213.945       25.742        0.014      336.397        7.666      868.190
05/01/2014  03:10:00     -137.950     -113.157       -4.907       44.574       55.410       32.985     1986.804     3070.278     1087.978        1.900        0.307      178.423       27.417        0.024      336.330        7.557      868.200
05/01/2014  03:11:00     -181.007     -108.575      -10.825       49.275       44.880       27.925     2428.012     2014.209      779.796        2.494        0.261      211.073       19.929        0.009      336.293        7.493      868.191
05/01/2014  03:12:00     -122.802      -84.519        1.669       56.787       52.676       36.107     3224.792     2774.801     1303.704        1.476        0.365      149.077       26.061        0.031      336.319        7.541      868.186
05/01/2014  03:13:00     -117.742     -106.533        2.268       50.022       42.940       21.202     2502.198     1843.826      449.542        1.501        0.240      158.785       24.018        0.023      336.373        7.631      868.203
05/01/2014  03:14:00     -131.648     -101.792       -4.794       56.247       43.022       30.300     3163.738     1850.897      918.106        1.682        0.297      166.412       32.876        0.039      336.365        7.617      868.215
05/01/2014  03:15:00     -124.256      -86.653        4.099       63.339       49.095       31.367     4011.847     2410.322      983.900        1.518        0.370      151.487       32.672        0.047      336.345        7.584      868.245
05/01/2014  03:16:00     -130.087      -87.527        2.108       43.571       41.490       27.965     1898.398     1721.440      782.015        1.449        0.220      156.792       23.043        0.022      336.354        7.599      868.266
05/01/2014  03:17:00      -93.576      -68.117       10.572       70.087       46.367       35.046     4912.239     2149.908     1228.226        1.090        0.415      115.743       37.560        0.105      336.293        7.496      868.275
05/01/2014  03:18:00     -133.363     -106.500       -3.012       64.411       47.619       28.577     4148.736     2267.567      816.673        1.818        0.362      170.669       27.876        0.027      336.271        7.460      868.289
05/01/2014  03:19:00     -146.065     -127.229       -7.982       40.546       34.245       31.719     1643.988     1172.745     1006.101        2.070        0.191      193.707       27.114        0.020      336.172        7.293      868.295
05/01/2014  03:20:00      -91.213      -78.681        3.644       67.653       44.032       30.289     4576.977     1938.790      917.435        1.098        0.372      120.460       36.373        0.091      336.279        7.475      868.286
05/01/2014  03:21:00      -97.790      -99.898        5.318       74.216       37.258       34.441     5507.965     1388.148     1186.214        1.382        0.404      139.794       35.438        0.064      336.241        7.409      868.304
05/01/2014  03:22:00     -180.872     -139.087      -13.440       51.254       56.676       35.905     2627.020     3212.182     1289.158        2.968        0.356      228.167       26.099        0.013      336.109        7.188      868.298
05/01/2014  03:23:00     -152.226      -99.398       -1.583       55.743       45.242       30.583     3107.266     2046.820      935.340        1.957        0.304      181.804       26.010        0.020      336.103        7.178      868.287
05/01/2014  03:24:00     -145.799     -119.734        0.438       60.558       41.601       33.756     3667.291     1730.654     1139.445        2.106        0.327      188.663       30.084        0.025      336.063        7.111      868.289
05/01/2014  03:25:00     -133.095      -91.412       -1.238       53.936       41.445       32.573     2909.131     1717.725     1061.015        1.588        0.284      161.463       29.799        0.034      336.134        7.231      868.289
05/01/2014  03:26:00     -141.217     -101.912       -4.376       49.884       40.496       27.887     2488.428     1639.948      777.666        1.763        0.245      174.150       26.413        0.023      336.111        7.193      868.394
05/01/2014  03:27:00     -124.091     -104.366        5.810       55.789       45.270       28.472     3112.468     2049.361      810.668        1.615        0.299      162.144       30.539        0.035      336.161        7.276      868.440
05/01/2014  03:28:00     -136.476     -114.205       -2.142       62.220       41.758       29.965     3871.338     1743.731      897.895        1.909        0.326      177.956       27.942        0.025      336.136        7.234      868.445
05/01/2014  03:29:00     -171.171     -101.821       -5.383       40.362       41.290       27.929     1629.102     1704.843      780.056        2.190        0.206      199.166       22.695        0.013      336.076        7.134      868.446
05/01/2014  03:30:00     -137.820      -84.921       -0.747       53.471       38.043       31.327     2859.166     1447.307      981.410        1.575        0.264      161.883       33.023        0.042      336.114        7.198      868.436
05/01/2014  03:31:00     -118.794      -58.790       -1.848       45.011       32.931       24.824     2026.011     1084.418      616.229        1.065        0.186      132.546       22.619        0.029      336.104        7.181      868.430
05/01/2014  03:32:00      -92.372      -52.199        1.261       72.207       36.457       28.253     5213.789     1329.091      798.227        0.930        0.367      106.101       30.079        0.080      336.088        7.154      868.421
05/01/2014  03:33:00     -134.423      -93.563        0.925       45.868       38.785       28.962     2103.876     1504.269      838.784        1.563        0.222      163.779       18.911        0.013      336.109        7.190      868.426
05/01/2014  03:34:00     -112.886     -111.570        1.626       64.221       41.257       31.166     4124.300     1702.160      971.317        1.599        0.340      158.717       16.749        0.011      336.136        7.235      868.438
05/01/2014  03:35:00     -131.349      -70.136       -1.241       69.865       41.325       33.228     4881.091     1707.758     1104.094        1.493        0.385      148.901       34.281        0.053      336.048        7.088      868.436
05/01/2014  03:36:00      -86.714      -76.564        8.665       54.788       41.466       34.568     3001.716     1719.410     1194.945        0.969        0.296      115.678       26.035        0.051      336.100        7.173      868.443
05/01/2014  03:37:00      -39.114      -56.553       19.952       80.175       45.347       33.144     6428.076     2056.324     1098.510        0.735        0.479       68.761       45.859        0.445      336.156        7.268      868.452
05/01/2014  03:38:00     -130.649      -74.530        2.583       49.067       36.814       30.286     2407.617     1355.288      917.229        1.365        0.234      150.412       28.049        0.035      335.996        7.000      868.451
05/01/2014  03:39:00     -143.509      -74.197       -6.099       31.650       29.162       19.866     1001.695      850.413      394.653        1.419        0.112      161.555       11.635        0.005      335.994        6.997      868.439
05/01/2014  03:40:00     -130.842      -74.385       -2.369       38.360       32.761       20.800     1471.492     1073.284      432.640        1.282        0.149      150.509       19.126        0.016      336.044        7.081      868.429
05/01/2014  03:41:00     -153.310      -61.955       -5.071       33.531       32.988       20.094     1124.355     1088.191      403.757        1.499        0.131      165.355       18.125        0.012      335.961        6.942      868.407
05/01/2014  03:42:00      -87.260      -64.205        8.824       53.793       31.436       26.747     2893.703      988.194      715.417        0.820        0.230      108.336       23.922        0.049      336.033        7.063      868.386
05/01/2014  03:43:00     -133.958      -75.371       -4.098       53.796       34.120       24.806     2893.999     1164.190      615.314        1.416        0.234      153.706       20.737        0.018      336.010        7.023      868.335
05/01/2014  03:44:00     -129.893      -81.031        6.566       41.525       34.401       26.622     1724.298     1183.452      708.722        1.355        0.181      153.095       23.076        0.023      335.974        6.965      868.313
05/01/2014  03:45:00      -86.657      -55.269        1.217       43.856       32.069       23.585     1923.342     1028.403      556.273        0.704        0.175      102.782       16.501        0.026      336.025        7.049      868.314
05/01/2014  03:46:00      -94.118      -64.505       -7.374       30.516       21.645       18.643      931.247      468.498      347.570        0.741        0.087      114.101        9.366        0.007      336.070        7.124      868.305
05/01/2014  03:47:00      -97.580      -60.907       -4.970       26.862       22.505       17.578      721.562      506.481      309.003        0.740        0.077      115.029       14.871        0.017      336.033        7.062      868.293
05/01/2014  03:48:00     -110.745      -68.960       -7.901       21.026       16.623       18.456      442.073      276.337      340.623        0.907        0.053      130.460       10.184        0.006      335.991        6.993      868.274
05/01/2014  03:49:00     -125.368      -67.841       -7.652       22.335       14.092       14.207      498.833      198.572      201.826        1.064        0.045      142.547        8.985        0.004      335.942        6.911      868.266
05/01/2014  03:50:00     -142.984      -38.813       -8.529       25.859       27.979       15.121      668.669      782.807      228.651        1.185        0.084      148.158       11.640        0.006      336.018        7.037      868.269
05/01/2014  03:51:00     -128.884      -46.014       -1.066       28.178       24.182       18.534      794.014      584.745      343.510        1.023        0.086      136.852       15.110        0.012      335.981        6.977      868.252
05/01/2014  03:52:00     -132.258      -46.187       -7.980       29.167       24.212       18.498      850.695      586.214      342.185        1.073        0.089      140.091       15.855        0.013      336.059        7.106      868.248
05/01/2014  03:53:00     -114.526      -46.941        1.455       54.544       27.980       21.582     2975.076      782.901      465.786        0.977        0.211      123.773       25.708        0.043      336.124        7.215      868.242
05/01/2014  03:54:00     -105.578      -63.891        0.733       56.904       30.254       24.173     3238.050      915.293      584.313        0.998        0.237      123.405       27.939        0.051      336.141        7.243      868.247
05/01/2014  03:55:00     -146.172      -61.923      -15.411       25.225       22.403       22.324      636.313      501.890      498.349        1.354        0.082      158.748       14.585        0.008      336.208        7.356      868.254
05/01/2014  03:56:00      -76.071      -56.023        0.182       48.313       31.501       18.619     2334.108      992.312      346.669        0.630        0.184       94.474       21.545        0.052      336.146        7.251      868.265
05/01/2014  03:57:00     -114.799      -76.145       -1.752       33.328       29.138       24.568     1110.723      849.052      603.569        1.077        0.128      137.757       21.399        0.024      336.309        7.524      868.263
05/01/2014  03:58:00     -103.273      -55.810       -2.412       30.921       24.306       18.508      956.134      590.780      342.561        0.784        0.094      117.388       14.599        0.015      336.358        7.606      868.247
05/01/2014  03:59:00      -64.067      -40.144       11.472       43.107       23.737       18.949     1858.193      563.431      359.080        0.431        0.139       75.605       21.103        0.078      336.258        7.438      868.233
05/01/2014  04:00:00      -67.690      -51.976       -0.892       28.795       19.637       17.052      829.153      385.622      290.763        0.439        0.075       85.343       12.626        0.022      336.269        7.457      868.223
05/01/2014  04:01:00     -104.161      -50.598      -10.508       27.257       21.045       13.258      742.967      442.890      175.763        0.744        0.068      115.800        9.798        0.007      336.257        7.437      868.210
05/01/2014  04:02:00     -109.015      -62.581      -21.093       26.225       13.366       11.121      687.747      178.654      123.686        0.862        0.050      125.701        6.342        0.003      336.228        7.389      868.208
05/01/2014  04:03:00      -52.243      -52.783       12.448       56.957       30.975       23.613     3244.056      959.437      557.590        0.521        0.238       74.265       29.403        0.157      336.091        7.160      868.218
05/01/2014  04:04:00      -42.455      -56.545       15.511       57.933       39.829       32.252     3356.257     1586.355     1040.216        0.561        0.299       70.709       33.410        0.223      336.136        7.234      868.216
05/01/2014  04:05:00     -107.123      -92.217       -1.592       55.822       46.586       32.008     3116.082     2170.229     1024.507        1.315        0.316      141.348       35.693        0.064      336.214        7.364      868.219
05/01/2014  04:06:00     -114.228     -110.657        8.266       57.178       54.240       37.027     3269.319     2942.029     1370.972        1.647        0.379      159.038       34.659        0.047      336.177        7.302      868.224
05/01/2014  04:07:00     -121.034      -88.424        3.041       58.504       55.559       29.136     3422.712     3086.765      848.879        1.492        0.368      149.893       32.785        0.048      336.172        7.294      868.222
05/01/2014  04:08:00     -106.155      -95.641       -8.331       51.566       49.200       27.881     2659.075     2420.612      777.347        1.317        0.293      142.885       22.974        0.026      336.103        7.180      868.219
05/01/2014  04:09:00      -93.914      -90.145       -1.414       34.990       43.850       23.874     1224.267     1922.795      569.948        1.033        0.186      130.177       19.060        0.021      336.201        7.345      868.224
05/01/2014  04:10:00     -128.042      -96.765      -16.865       30.969       39.886       19.663      959.057     1590.872      386.624        1.449        0.147      160.494       10.458        0.004      336.208        7.357      868.222
05/01/2014  04:11:00     -125.745      -95.640       -3.657       37.980       42.745       24.851     1442.458     1827.153      617.564        1.443        0.194      157.984       22.295        0.020      336.218        7.372      868.214
05/01/2014  04:12:00      -85.889      -92.626       -2.980       47.366       35.145       24.055     2243.527     1235.167      578.621        1.001        0.203      126.319       19.779        0.025      336.190        7.326      868.220
05/01/2014  04:13:00     -118.711     -133.878       -3.656       58.356       43.252       32.466     3405.432     1870.701     1054.063        1.918        0.317      178.929       30.678        0.029      336.197        7.337      868.213
05/01/2014  04:14:00     -131.222      -82.983       -3.890       37.616       64.682       29.945     1414.989     4183.820      896.731        1.531        0.325      155.259       17.528        0.013      336.201        7.342      868.195
05/01/2014  04:15:00     -129.303      -66.531       -0.953       60.217       42.478       29.996     3626.101     1804.374      899.766        1.374        0.317      145.415       31.973        0.048      336.135        7.233      868.198
05/01/2014  04:16:00     -106.079      -89.757        0.971       62.999       34.834       30.080     3968.817     1213.426      904.789        1.270        0.304      138.957       27.624        0.040      336.130        7.225      868.207
05/01/2014  04:17:00     -129.514      -94.568       -3.654       56.474       56.793       35.076     3189.336     3225.487     1230.296        1.669        0.382      160.365       22.240        0.019      336.132        7.227      868.226
05/01/2014  04:18:00     -185.534     -119.402       -5.297       64.763       68.187       45.509     4194.208     4649.454     2071.078        2.981        0.546      220.635       36.865        0.028      336.009        7.019      868.225
05/01/2014  04:19:00     -189.063     -132.703       -9.197       64.539       59.108       36.057     4165.290     3493.770     1300.078        3.120        0.448      230.986       32.565        0.020      335.940        6.905      868.216
05/01/2014  04:20:00      -98.672      -92.495       10.759       64.627       51.466       38.186     4176.684     2648.784     1458.172        1.334        0.414      135.246       32.594        0.058      335.980        6.973      868.227
05/01/2014  04:21:00     -108.320      -73.892       -1.928       88.638       53.169       43.610     7856.616     2826.917     1901.797        1.489        0.629      131.123       43.445        0.110      335.977        6.970      868.235
05/01/2014  04:22:00     -159.513     -112.086      -10.793       69.638       68.165       47.010     4849.465     4646.433     2209.907        2.491        0.585      194.955       43.440        0.050      336.001        7.007      868.235
05/01/2014  04:23:00     -174.738     -108.700      -11.165       52.404       64.515       39.040     2746.194     4162.159     1524.115        2.545        0.422      205.789       30.291        0.022      335.983        6.978      868.233
05/01/2014  04:24:00     -144.320      -77.217       -0.651       68.737       50.284       31.884     4724.763     2528.514     1016.608        1.753        0.413      163.679       33.917        0.043      336.002        7.010      868.210
05/01/2014  04:25:00     -115.665      -87.523        4.128       61.274       49.330       29.801     3754.459     2433.468      888.101        1.406        0.354      145.047       27.465        0.036      336.013        7.029      868.202
05/01/2014  04:26:00     -134.014      -97.368        1.397       43.937       43.690       24.569     1930.439     1908.810      603.642        1.594        0.222      165.651       25.728        0.024      336.043        7.080      868.196
05/01/2014  04:27:00     -130.534      -90.068       -4.250       42.227       34.035       26.196     1783.156     1158.365      686.220        1.440        0.181      158.592       22.534        0.020      336.054        7.098      868.192
05/01/2014  04:28:00      -28.451      -45.179       14.180       45.148       25.974       21.030     2038.352      674.640      442.278        0.310        0.158       53.391       27.137        0.258      336.168        7.288      868.191
05/01/2014  04:29:00      -82.302      -79.868       -5.282       29.903       26.285       18.068      894.166      690.898      326.457        0.755        0.096      114.685       15.878        0.019      336.115        7.200      868.198
05/01/2014  04:30:00     -139.976      -43.712       -9.675       25.031       34.207       15.832      626.561     1170.099      250.653        1.182        0.102      146.643       11.817        0.006      336.138        7.237      868.167
05/01/2014  04:31:00      -59.835      -32.860        8.059       36.197       28.906       20.442     1310.236      835.556      417.885        0.364        0.128       68.265       22.475        0.108      335.945        6.916      868.158
05/01/2014  04:32:00     -108.369      -46.709       -5.572       54.879       26.294       20.623     3011.704      691.400      425.292        0.904        0.206      118.007       16.386        0.019      335.969        6.956      868.160
05/01/2014  04:33:00      -88.825      -61.320        8.750       85.614       31.618       26.727     7329.788      999.693      714.341        1.038        0.452      107.936       39.239        0.132      336.125        7.217      868.153
05/01/2014  04:34:00      -18.815      -24.289       14.041       30.702       21.939       20.192      942.623      481.304      407.702        0.149        0.092       30.724       20.322        0.438      336.033        7.061      868.157
05/01/2014  04:35:00      -78.869      -41.933        1.903       45.942       19.429       19.063     2110.624      377.470      363.385        0.542        0.143       89.323       22.579        0.064      335.993        6.996      868.162
05/01/2014  04:36:00      -66.108      -46.276        2.612       40.020       25.992       15.772     1601.570      675.578      248.752        0.452        0.126       80.695       16.544        0.042      335.989        6.991      868.155
05/01/2014  04:37:00      -89.804      -33.561       -9.297       17.334       17.382       10.363      300.461      302.123      107.401        0.499        0.035       95.870        9.706        0.010      335.908        6.854      868.138
05/01/2014  04:38:00      -52.569      -32.635        2.134       24.017       15.439       13.905      576.795      238.377      193.338        0.242        0.050       61.875       12.542        0.041      335.953        6.928      868.136
05/01/2014  04:39:00      -27.578      -16.779        9.673       24.138       16.217       12.628      582.651      262.992      159.462        0.107        0.050       32.281       11.887        0.136      335.950        6.925      868.137
05/01/2014  04:40:00      -28.733      -20.886        4.593       31.507       14.752       13.481      992.707      217.619      181.726        0.134        0.070       35.522       14.856        0.175      335.969        6.957      868.139
05/01/2014  04:41:00      -25.604      -44.979        7.329       24.760       34.112       16.184      613.078     1163.661      261.914        0.239        0.102       51.756       11.313        0.048      336.027        7.052      868.165
05/01/2014  04:42:00     -142.278     -120.785       -8.456       66.337       67.456       34.553     4400.644     4550.300     1193.902        2.252        0.507      186.633       36.533        0.038      335.907        6.851      868.182
05/01/2014  04:43:00     -119.408      -87.237       -7.548       52.497       50.638       26.992     2755.987     2564.255      728.574        1.399        0.302      147.880       21.673        0.021      335.903        6.846      868.186
05/01/2014  04:44:00     -108.880      -90.035       -2.740       62.364       48.483       30.051     3889.231     2350.593      903.081        1.355        0.357      141.284       29.520        0.044      335.896        6.834      868.188
05/01/2014  04:45:00     -155.861     -117.417       -7.192       65.843       52.288       38.842     4335.313     2734.026     1508.715        2.335        0.429      195.139       42.065        0.046      335.839        6.738      868.197
05/01/2014  04:46:00     -150.542     -119.798      -14.774       50.426       32.665       26.592     2542.732     1067.029      707.129        2.077        0.216      192.392       22.895        0.014      335.859        6.773      868.202
05/01/2014  04:47:00     -156.536     -128.500       -5.709       54.572       49.003       29.554     2978.133     2401.313      873.452        2.365        0.313      202.524       25.706        0.016      335.831        6.723      868.213
05/01/2014  04:48:00     -158.272     -108.816       -1.684       50.865       59.307       37.085     2587.219     3517.318     1375.298        2.219        0.374      192.070       28.439        0.022      335.845        6.747      868.212
05/01/2014  04:49:00     -159.004      -91.654       -3.278       52.891       45.658       31.182     2797.415     2084.629      972.297        1.977        0.293      183.529       25.276        0.019      335.822        6.710      868.206
05/01/2014  04:50:00     -115.988      -85.873       -3.296       59.194       50.008       27.543     3503.943     2500.841      758.634        1.380        0.338      144.317       22.958        0.025      335.834        6.730      868.212
05/01/2014  04:51:00     -166.341     -105.071       -1.781       45.629       39.763       29.541     2082.022     1581.115      872.685        2.162        0.227      196.747       22.729        0.013      335.792        6.659      868.209
05/01/2014  04:52:00     -131.744      -84.160       -2.493       52.375       46.454       30.468     2743.146     2157.968      928.286        1.514        0.291      156.331       27.057        0.030      335.792        6.663      868.195
05/01/2014  04:53:00     -104.168      -71.614        5.648       48.222       42.071       36.296     2325.324     1769.950     1317.377        1.071        0.271      126.410       33.239        0.069      335.770        6.624      868.186
05/01/2014  04:54:00      -82.443      -87.570        6.453       40.984       32.690       25.426     1679.723     1068.608      646.490        0.895        0.170      120.272       21.142        0.031      335.796        6.669      868.175
05/01/2014  04:55:00      -54.307      -38.233        2.165       29.839       27.987       18.381      890.347      783.297      337.879        0.321        0.101       66.415       12.555        0.036      335.738        6.571      868.170
05/01/2014  04:56:00      -71.429       -9.964       -1.272       39.416       21.400       20.254     1553.592      457.958      410.220        0.381        0.121       72.121       20.217        0.079      335.619        6.374      868.138
05/01/2014  04:57:00      -86.057       -7.399       -2.087       35.217       22.324       21.967     1240.202      498.365      482.550        0.484        0.111       86.374       20.442        0.056      335.609        6.356      868.109
05/01/2014  04:58:00      -76.758      -24.447        1.307       31.301       20.273       15.435      979.774      411.001      238.243        0.406        0.081       80.556       14.715        0.033      335.571        6.293      868.094
05/01/2014  04:59:00      -83.362      -44.053        1.582       39.816       21.757       14.686     1585.350      473.378      215.671        0.558        0.114       94.286       18.572        0.039      335.655        6.433      868.094
05/01/2014  05:00:00       -2.613      -26.833       14.643       24.982       18.260       16.369      624.099      333.445      267.933        0.108        0.061       26.960       15.026        0.311      335.738        6.572      868.096
05/01/2014  05:01:00       -9.560      -25.559        4.229       21.697       12.956        8.904      470.767      167.854       79.285        0.074        0.036       27.288        2.420        0.008      335.764        6.616      868.094
05/01/2014  05:02:00      -49.156      -16.923       -8.377       16.386        8.130        7.126      268.515       66.090       50.773        0.158        0.019       51.988        2.954        0.003      335.782        6.646      868.095
05/01/2014  05:03:00      -76.599      -24.846       -7.056       14.362       12.769        9.074      206.263      163.039       82.346        0.349        0.023       80.528        5.363        0.004      335.774        6.632      868.095
05/01/2014  05:04:00      -77.471      -36.284       -7.515       21.379       12.772       11.984      457.058      163.120      143.609        0.407        0.038       85.547        8.932        0.011      335.723        6.547      868.088
05/01/2014  05:05:00      -89.098      -15.477      -14.134       11.594       18.335        8.247      134.429      336.155       68.019        0.446        0.027       90.432        3.321        0.001      335.635        6.401      868.091
05/01/2014  05:06:00      -94.342      -22.963       -7.125       14.765       15.039       13.496      218.017      226.170      182.134        0.505        0.031       97.096        9.658        0.010      335.606        6.353      868.092
05/01/2014  05:07:00      -98.176      -47.537       -1.817       18.775       16.362       13.771      352.499      267.709      189.649        0.636        0.040      109.079       10.199        0.009      335.625        6.384      868.082
05/01/2014  05:08:00     -103.769      -46.231       -4.934       15.792       15.598       10.507      249.378      243.292      110.400        0.677        0.030      113.602        8.815        0.006      335.667        6.453      868.096
05/01/2014  05:09:00      -67.868      -43.294        2.303       34.865       22.884       19.077     1215.596      523.698      363.950        0.429        0.105       80.501       19.200        0.057      335.641        6.411      868.100
05/01/2014  05:10:00      -48.257      -38.541       13.002       42.777       26.774       24.084     1829.865      716.857      580.024        0.355        0.156       61.758       21.794        0.125      335.548        6.256      868.102
05/01/2014  05:11:00      -77.706      -80.324       -0.725       33.540       44.257       26.036     1124.910     1958.657      677.848        0.813        0.188      111.759       26.226        0.055      335.601        6.342      868.096
05/01/2014  05:12:00     -107.852      -98.321       -2.838       34.924       48.358       24.530     1219.697     2338.451      601.743        1.273        0.208      145.942       17.986        0.015      335.614        6.364      868.106
05/01/2014  05:13:00     -119.445      -99.959      -12.219       29.329       39.325       25.457      860.195     1546.490      648.040        1.373        0.153      155.753       15.214        0.010      335.615        6.367      868.116
05/01/2014  05:14:00     -139.727     -123.501      -11.139       36.835       35.703       25.898     1356.808     1274.713      670.730        1.910        0.165      186.483       14.019        0.006      335.621        6.375      868.117
05/01/2014  05:15:00     -123.065      -76.411        2.229       39.372       31.724       22.931     1550.131     1006.425      525.849        1.203        0.154      144.857       21.113        0.021      335.627        6.387      868.114
05/01/2014  05:16:00     -105.459      -41.852        1.714       31.002       27.176       18.974      961.114      738.549      360.010        0.747        0.103      113.460       15.723        0.019      335.630        6.394      868.106
05/01/2014  05:17:00      -48.796      -39.533       -0.170       46.366       33.783       16.967     2149.766     1141.282      287.871        0.376        0.179       62.800       23.435        0.139      335.688        6.489      868.094
05/01/2014  05:18:00      -14.145      -14.716        5.577       18.662       15.459       12.671      348.286      238.983      160.558        0.060        0.037       20.412       12.919        0.401      335.648        6.422      868.097
05/01/2014  05:19:00      -46.415      -24.396       -6.111       13.274       12.029       10.366      176.207      144.691      107.461        0.161        0.021       52.435        6.051        0.013      335.667        6.455      868.081
05/01/2014  05:20:00      -72.702      -23.655       -9.263       12.262       13.623        7.027      150.367      185.574       49.375        0.316        0.019       76.454        4.535        0.004      335.605        6.351      868.082
05/01/2014  05:21:00      -79.697      -40.274       -1.062       12.925       12.681       12.468      167.047      160.812      155.440        0.423        0.024       89.295        8.311        0.009      335.608        6.355      868.089
05/01/2014  05:22:00      -65.367      -35.979       -0.273       45.603       20.807       12.604     2079.643      432.944      158.857        0.412        0.134       74.614       13.972        0.035      335.521        6.209      868.100
05/01/2014  05:23:00      -37.461      -37.740       15.023       40.698       30.189       24.495     1656.300      911.356      600.010        0.311        0.158       53.176       21.560        0.164      335.512        6.194      868.119
05/01/2014  05:24:00     -106.866      -77.423      -10.013       31.501       29.625       20.410      992.308      877.624      416.576        0.990        0.114      131.965       16.547        0.016      335.574        6.300      868.143
05/01/2014  05:25:00     -116.025      -88.923       -2.092       45.281       35.579       24.998     2050.335     1265.864      624.912        1.266        0.197      146.182       18.982        0.017      335.603        6.347      868.150
05/01/2014  05:26:00      -83.630      -66.641        7.316       61.337       41.527       28.328     3762.230     1724.505      802.463        0.889        0.314      106.934       30.148        0.079      335.591        6.328      868.135
05/01/2014  05:27:00      -26.986      -42.487       13.763       36.027       34.255       23.490     1297.916     1173.429      551.769        0.287        0.151       50.333       18.533        0.136      335.573        6.298      868.144
05/01/2014  05:28:00      -48.515      -66.353       -7.411       26.252       20.115       14.738      689.166      404.629      217.208        0.406        0.066       82.198       11.263        0.019      335.560        6.275      868.161
05/01/2014  05:29:00      -68.257      -40.914       -0.948       18.747       30.640       17.907      351.452      938.828      320.663        0.397        0.081       79.580       15.483        0.038      335.547        6.254      868.146
05/01/2014  05:30:00      -62.096      -59.212        4.207       36.764       38.394       23.501     1351.579     1474.096      552.303        0.538        0.169       85.802       25.116        0.086      335.501        6.178      868.136
05/01/2014  05:31:00      -50.692      -45.452      -12.036       42.041       42.071       28.844     1767.411     1769.996      831.989        0.457        0.218       68.085       22.054        0.105      335.438        6.070      868.131
05/01/2014  05:32:00      -77.992      -45.696       -8.190       34.321       32.051       20.147     1177.931     1027.290      405.886        0.542        0.131       90.393       14.128        0.024      335.442        6.079      868.124
05/01/2014  05:33:00      -36.610      -27.391        1.077       43.643       22.399       20.511     1904.687      501.711      420.684        0.246        0.141       45.722       11.382        0.062      335.406        6.018      868.127
05/01/2014  05:34:00      -65.454      -86.877       -2.184       37.042       53.066       31.487     1372.095     2816.044      991.413        0.851        0.259      108.774       23.763        0.048      335.424        6.047      868.122
05/01/2014  05:35:00      -88.021      -81.573        0.368       58.578       59.089       28.382     3431.330     3491.562      805.515        1.106        0.386      120.008       26.541        0.049      335.417        6.036      868.114
05/01/2014  05:36:00     -121.964      -86.279        3.940       66.919       55.197       34.805     4478.123     3046.674     1211.418        1.553        0.437      149.397       34.215        0.052      335.403        6.013      868.114
05/01/2014  05:37:00      -60.932      -37.940        4.686       67.217       36.194       33.643     4518.187     1310.040     1131.858        0.607        0.348       71.778       18.077        0.063      335.377        5.971      868.113
05/01/2014  05:38:00      -69.522      -45.926        8.661       83.234       52.587       43.135     6927.870     2765.425     1860.606        0.928        0.578       83.322       45.647        0.300      335.382        5.977      868.099
05/01/2014  05:39:00     -149.453     -110.254       -6.608       76.297       67.426       41.292     5821.222     4546.246     1705.064        2.330        0.604      185.721       41.973        0.051      335.398        6.002      868.079
05/01/2014  05:40:00     -158.683     -121.516       -3.551       58.146       54.312       36.102     3380.915     2949.774     1303.378        2.379        0.382      199.866       30.589        0.023      335.379        5.971      868.076
05/01/2014  05:41:00      -70.002      -61.919       12.613       76.477       51.584       40.846     5848.710     2660.953     1668.425        0.953        0.509       93.457       40.315        0.186      335.349        5.923      868.086
05/01/2014  05:42:00     -132.693     -104.843       -4.758       54.548       67.071       35.368     2975.483     4498.535     1250.897        1.867        0.436      169.114       33.030        0.038      335.362        5.943      868.101
05/01/2014  05:43:00     -152.792     -108.983      -13.221       50.517       45.755       30.058     2551.952     2093.537      903.462        2.047        0.277      187.677       27.474        0.021      335.395        6.000      868.098
05/01/2014  05:44:00     -107.310      -79.071        7.488       62.325       47.756       32.736     3884.350     2280.677     1071.643        1.253        0.362      133.295       31.612        0.056      335.381        5.977      868.097
05/01/2014  05:45:00     -137.913     -128.409       -4.927       62.231       86.339       38.013     3872.683     7454.424     1444.952        2.415        0.639      188.438       37.348        0.039      335.360        5.939      868.101
05/01/2014  05:46:00     -176.940     -124.404       -8.883       41.268       59.934       28.087     1703.023     3592.066      788.879        2.647        0.304      216.296       22.673        0.011      335.369        5.956      868.102
05/01/2014  05:47:00     -149.425      -90.299       -9.061       68.198       55.536       31.348     4651.003     3084.226      982.675        1.964        0.436      174.591       30.879        0.031      335.379        5.972      868.091
05/01/2014  05:48:00     -130.955      -89.540       10.318       63.635       55.523       29.629     4049.477     3082.819      877.897        1.664        0.401      158.640       28.031        0.031      335.328        5.886      868.094
05/01/2014  05:49:00     -163.963      -77.582       -5.206       59.380       37.272       29.773     3525.980     1389.168      886.441        1.936        0.290      181.392       30.874        0.029      335.355        5.931      868.082
05/01/2014  05:50:00     -148.011      -84.629       -2.335       42.881       38.274       27.601     1838.772     1464.917      761.817        1.657        0.203      170.497       18.674        0.012      335.334        5.897      868.086
05/01/2014  05:51:00     -104.534      -99.620        5.259       59.387       39.760       35.133     3526.849     1580.820     1234.354        1.361        0.317      144.400       33.525        0.054      335.308        5.854      868.090
05/01/2014  05:52:00      -60.605      -68.867        2.522       57.764       43.518       31.610     3336.735     1893.854      999.176        0.732        0.311       91.737       32.786        0.128      335.351        5.926      868.109
05/01/2014  05:53:00     -105.596     -116.205       -7.196       30.200       39.093       24.355      912.014     1528.235      593.148        1.387        0.152      157.016       20.662        0.017      335.305        5.849      868.121
05/01/2014  05:54:00      -86.876     -109.302       -7.681       37.619       34.365       22.813     1415.193     1180.959      520.441        1.133        0.156      139.622       16.531        0.014      335.340        5.908      868.137
05/01/2014  05:55:00      -69.291      -63.757        1.614       57.763       34.726       25.652     3336.572     1205.929      658.019        0.703        0.260       94.160       27.340        0.084      335.359        5.940      868.147
05/01/2014  05:56:00     -120.897     -131.994       -6.936       46.198       33.774       30.657     2134.278     1140.685      939.860        1.815        0.211      178.993       23.551        0.017      335.263        5.778      868.153
05/01/2014  05:57:00      -93.483      -83.163        1.623       43.657       36.289       23.352     1905.893     1316.860      545.305        0.971        0.188      125.120       11.997        0.009      335.313        5.863      868.151
05/01/2014  05:58:00      -58.064      -37.821        3.877       32.536       20.572       18.852     1058.601      423.216      355.394        0.333        0.092       69.295       15.614        0.051      335.300        5.841      868.161
05/01/2014  05:59:00      -45.105      -24.777        3.113       28.310       13.359       15.317      801.466      178.461      234.604        0.194        0.061       51.462       13.745        0.071      335.260        5.775      868.158
05/01/2014  06:00:00      -53.426      -33.235       -0.841       24.775       27.283       12.636      613.783      744.350      159.679        0.274        0.076       62.920       11.557        0.034      335.248        5.754      868.165
05/01/2014  06:01:00      -58.876      -19.644        0.913       18.672       20.304       10.964      348.646      412.261      120.210        0.237        0.044       62.067        6.815        0.012      335.280        5.808      868.175
05/01/2014  06:02:00      -69.142      -40.390       -4.942       17.893       20.666       12.342      320.161      427.078      152.337        0.367        0.045       80.075        8.600        0.012      335.297        5.836      868.170
05/01/2014  06:03:00     -108.657       -4.634       -8.527       33.772       16.722       18.113     1140.565      279.617      328.087        0.682        0.087      108.756       18.733        0.030      335.185        5.649      868.167
05/01/2014  06:04:00     -114.105      -17.775       -5.000       26.441       20.081       18.012      699.144      403.241      324.420        0.739        0.071      115.481       16.808        0.021      335.063        5.449      868.171
05/01/2014  06:05:00      -64.737      -18.661        5.835       36.617       24.647       19.746     1340.808      607.478      389.902        0.346        0.117       67.373       17.907        0.071      335.080        5.477      868.187
05/01/2014  06:06:00      -64.119      -11.993       -2.580       30.666       20.311       15.081      940.403      412.541      227.440        0.292        0.079       65.231       17.393        0.071      335.014        5.367      868.205
05/01/2014  06:07:00     -103.265      -30.512       -2.012       27.770       19.801       13.545      771.146      392.081      183.479        0.647        0.067      107.678       10.197        0.009      335.120        5.543      868.213
05/01/2014  06:08:00     -108.111      -61.209       -8.274       25.962       22.033       18.145      674.035      485.463      329.227        0.850        0.074      124.236        4.856        0.002      335.156        5.602      868.224
05/01/2014  06:09:00      -84.747      -53.361       -1.392       34.669       25.628       20.471     1201.922      656.790      419.048        0.615        0.114      100.147       14.113        0.020      335.124        5.550      868.231
05/01/2014  06:10:00     -106.901      -89.791       -4.534       54.049       41.537       23.790     2921.269     1725.329      565.950        1.236        0.261      139.608       20.838        0.022      335.153        5.596      868.241
05/01/2014  06:11:00     -131.400     -100.341       -8.760       52.969       52.201       28.774     2805.740     2724.926      827.917        1.688        0.318      165.331       18.844        0.013      335.200        5.675      868.238
05/01/2014  06:12:00      -70.049      -78.669       17.475       53.869       54.990       28.282     2901.907     3023.879      799.888        0.906        0.336      105.336       27.027        0.066      335.282        5.810      868.252
05/01/2014  06:13:00      -81.608      -41.155        2.021       33.892       35.829       25.563     1148.683     1283.684      653.459        0.572        0.154       91.398       24.069        0.069      335.217        5.705      868.261
05/01/2014  06:14:00      -69.159      -56.853        0.684       52.275       27.360       24.959     2732.646      748.571      622.936        0.606        0.205       89.528       29.504        0.109      335.275        5.801      868.266
05/01/2014  06:15:00      -51.540      -47.520        6.666       43.428       30.380       23.078     1886.032      922.969      532.617        0.415        0.167       70.104       20.307        0.084      335.371        5.959      868.285
05/01/2014  06:16:00      -68.908      -73.868       -6.237       53.704       45.956       26.038     2884.138     2111.949      677.984        0.796        0.284      101.019       30.336        0.090      335.311        5.860      868.301
05/01/2014  06:17:00      -94.035      -66.707       -2.595       48.399       37.394       24.524     2342.464     1398.275      601.410        0.882        0.217      115.293       23.186        0.040      335.284        5.815      868.312
05/01/2014  06:18:00     -124.392      -73.317       -3.293       36.894       40.325       21.860     1361.198     1626.085      477.859        1.216        0.173      144.391       16.995        0.014      335.250        5.758      868.306
05/01/2014  06:19:00     -102.791      -63.329        6.034       59.758       42.159       26.997     3570.972     1777.342      728.839        1.034        0.304      120.734       26.275        0.047      335.239        5.738      868.309
05/01/2014  06:20:00     -125.722      -56.315        0.042       49.212       38.634       23.080     2421.851     1492.587      532.704        1.171        0.222      137.759       22.231        0.026      335.240        5.741      868.308
05/01/2014  06:21:00      -98.920      -51.066        1.338       64.394       38.031       29.348     4146.535     1446.347      861.318        0.942        0.323      111.323       31.576        0.080      335.209        5.690      868.329
05/01/2014  06:22:00     -120.103      -44.751        3.693       34.679       29.763       19.306     1202.605      885.809      372.729        0.945        0.123      128.170       16.665        0.017      335.166        5.620      868.337
05/01/2014  06:23:00     -112.361      -33.244       -1.648       29.581       23.143       15.167      875.017      535.604      230.024        0.769        0.082      117.176       14.369        0.015      335.129        5.557      868.349
05/01/2014  06:24:00     -125.954      -21.208       -5.135       42.923       30.038       20.772     1842.424      902.292      431.482        0.976        0.159      127.727       20.067        0.025      335.099        5.508      868.353
05/01/2014  06:25:00     -148.470      -40.021       -1.773       43.253       40.435       23.284     1870.822     1634.988      542.141        1.385        0.202      153.770       23.109        0.023      335.151        5.592      868.338
05/01/2014  06:26:00     -123.703      -37.511        2.542       42.687       38.211       22.865     1822.157     1460.093      522.821        1.026        0.190      129.265       22.329        0.030      335.123        5.548      868.336
05/01/2014  06:27:00     -101.070      -19.949        3.176       39.456       32.829       22.701     1556.781     1077.715      515.321        0.689        0.157      103.020       19.750        0.037      334.983        5.315      868.333
05/01/2014  06:28:00     -141.249      -47.135       -0.264       39.589       33.768       19.932     1567.277     1140.290      397.302        1.264        0.155      148.906       18.810        0.016      335.012        5.365      868.337
05/01/2014  06:29:00     -108.566      -29.132       -0.277       34.580       30.198       20.653     1195.780      911.912      426.537        0.758        0.127      112.407       15.973        0.020      335.154        5.600      868.335
05/01/2014  06:30:00     -117.133      -51.948       -2.249       43.996       30.416       24.676     1935.661      925.121      608.898        0.995        0.173      128.136       24.268        0.036      335.143        5.580      868.327
05/01/2014  06:31:00     -106.200      -34.713      -14.956       27.202       27.530       18.850      739.962      757.908      355.336        0.728        0.093      111.729       10.476        0.009      335.133        5.564      868.310
05/01/2014  06:32:00     -102.936       -6.073       -2.391       46.388       29.272       25.568     2151.891      856.858      653.742        0.715        0.183      103.115       27.937        0.073      335.103        5.514      868.308
05/01/2014  06:33:00     -121.443       -3.997       -1.938       41.317       25.966       23.876     1707.108      674.219      570.052        0.886        0.148      121.508       24.321        0.040      335.056        5.437      868.292
05/01/2014  06:34:00      -95.508        9.461       -3.653       40.957       24.660       21.542     1677.453      608.129      464.059        0.599        0.137       95.976       21.152        0.049      335.133        5.566      868.293
05/01/2014  06:35:00      -69.507      -15.773       -2.185       26.563       29.306       14.499      705.598      858.816      210.231        0.343        0.089       71.274       12.158        0.029      335.237        5.737      868.297
05/01/2014  06:36:00      -27.878       -7.317        3.978       21.986       20.037       14.595      483.380      401.496      213.004        0.097        0.055       28.823       14.315        0.247      335.395        6.000      868.303
05/01/2014  06:37:00      -47.565      -12.312      -14.321       13.191       10.617       11.104      174.014      112.728      123.299        0.151        0.021       49.133        3.305        0.005      335.377        5.969      868.303
05/01/2014  06:38:00      -23.707      -23.437       -2.074       26.168       20.619       14.192      684.760      425.136      201.414        0.121        0.066       33.337       13.845        0.172      335.460        6.108      868.307
05/01/2014  06:39:00      -53.744      -19.168       -1.986       25.762       17.557       12.509      663.693      308.234      156.466        0.219        0.056       57.059        7.245        0.016      335.366        5.951      868.315
05/01/2014  06:40:00      -58.172      -29.625      -16.825       30.632       17.635       11.854      938.325      310.978      140.521        0.297        0.069       65.281        5.447        0.007      335.413        6.029      868.321
05/01/2014  06:41:00      -61.041      -46.708        5.948       50.007       27.744       23.334     2500.744      769.731      544.462        0.488        0.191       76.861       26.430        0.118      335.381        5.977      868.327
05/01/2014  06:42:00     -122.570      -60.664       -1.665       33.780       23.548       18.794     1141.080      554.515      353.221        1.038        0.102      136.761       10.583        0.006      335.390        5.992      868.337
05/01/2014  06:43:00      -97.518      -83.093        5.210       64.875       51.272       34.573     4208.813     2628.804     1195.264        1.224        0.402      128.118       35.133        0.075      335.530        6.225      868.341
05/01/2014  06:44:00     -134.796      -91.018        4.256       59.121       39.364       31.378     3495.277     1549.562      984.562        1.625        0.301      162.648       26.671        0.027      335.498        6.172      868.342
05/01/2014  06:45:00     -129.546      -91.560        3.626       67.406       49.241       32.737     4543.507     2424.646     1071.739        1.661        0.402      158.636       33.915        0.046      335.497        6.169      868.357
05/01/2014  06:46:00     -133.110      -95.107        6.538       57.632       42.656       27.432     3321.438     1819.506      752.499        1.635        0.295      163.596       26.749        0.027      335.509        6.191      868.367
05/01/2014  06:47:00     -151.739     -104.665       -1.588       48.407       38.802       31.308     2343.205     1505.625      980.167        1.940        0.241      184.335       31.561        0.029      335.556        6.268      868.374
05/01/2014  06:48:00      -96.419      -84.169        1.597       57.929       39.310       31.153     3355.811     1545.294      970.527        1.113        0.294      127.989       28.521        0.050      335.641        6.410      868.376
05/01/2014  06:49:00      -93.047      -90.347       -0.889       52.523       44.458       28.016     2758.637     1976.515      784.910        1.117        0.276      129.693       34.221        0.070      335.696        6.504      868.375
05/01/2014  06:50:00      -87.033      -65.691        6.430       42.527       35.475       20.198     1808.541     1258.476      407.972        0.770        0.174      109.041       21.328        0.038      335.748        6.590      868.367
05/01/2014  06:51:00      -56.863      -43.670        7.344       41.336       31.486       19.769     1708.668      991.347      390.821        0.414        0.155       71.698       20.838        0.084      335.822        6.713      868.360
05/01/2014  06:52:00      -28.174      -70.078        0.430       26.787       29.368       16.803      717.532      862.480      282.327        0.378        0.093       75.530       14.704        0.038      335.815        6.700      868.368
05/01/2014  06:53:00      -48.940      -66.673        0.932       20.495       17.981       19.443      420.050      323.328      378.039        0.398        0.056       82.706       11.020        0.018      335.879        6.807      868.372
05/01/2014  06:54:00      -49.635      -60.946        2.607       36.816       24.298       22.235     1355.433      590.408      494.377        0.431        0.122       78.601       23.683        0.091      335.891        6.826      868.377
05/01/2014  06:55:00      -35.702      -35.963       12.748       34.004       21.237       17.756     1156.289      451.030      315.273        0.233        0.096       50.676       18.426        0.132      336.004        7.014      868.385
05/01/2014  06:56:00      -35.016      -61.940        3.528       37.169       38.152       23.957     1381.522     1455.537      573.944        0.424        0.171       71.153       26.458        0.138      336.004        7.013      868.397
05/01/2014  06:57:00      -55.814      -70.090        3.374       36.362       33.935       22.885     1322.229     1151.594      523.734        0.552        0.150       89.597       19.446        0.047      335.933        6.897      868.410
05/01/2014  06:58:00      -77.354     -108.191       -0.478       34.217       32.886       21.450     1170.776     1081.490      460.087        1.020        0.136      133.000       20.641        0.024      335.921        6.876      868.416
05/01/2014  06:59:00     -107.535      -77.754       11.681       54.620       35.318       26.032     2983.322     1247.382      677.673        1.133        0.245      132.700       25.060        0.036      336.015        7.033      868.417
05/01/2014  07:00:00      -98.700      -78.863        3.679       36.396       25.978       24.265     1324.641      674.869      588.790        0.928        0.129      126.337       19.436        0.024      336.142        7.246      868.419
05/01/2014  07:01:00      -87.975      -71.557        2.477       32.992       35.099       23.053     1088.490     1231.928      531.442        0.786        0.143      113.402       20.514        0.033      336.232        7.396      868.431
05/01/2014  07:02:00      -84.478      -73.152       -0.162       34.969       33.437       20.541     1222.859     1118.064      421.921        0.762        0.138      111.749       14.519        0.017      336.267        7.452      868.446
05/01/2014  07:03:00      -61.222      -57.284        3.601       34.743       24.113       20.444     1207.111      581.452      417.969        0.462        0.110       83.842       20.202        0.058      336.332        7.561      868.461
05/01/2014  07:04:00      -56.385      -54.782       -0.213       28.626       15.018       14.115      819.437      225.552      199.247        0.371        0.062       78.615       13.585        0.030      336.409        7.690      868.470
05/01/2014  07:05:00      -40.166      -44.568        0.631       26.368       32.456       14.994      695.285     1053.367      224.819        0.279        0.099       59.997       13.963        0.054      336.449        7.759      868.486
05/01/2014  07:06:00      -24.640      -71.264        0.038       20.052       27.219       13.440      402.083      740.870      180.640        0.350        0.066       75.404        7.497        0.010      336.437        7.739      868.497
05/01/2014  07:07:00      -22.178      -27.175        1.333       16.910       14.700       12.369      285.933      216.101      152.984        0.094        0.033       35.077        5.978        0.029      336.518        7.874      868.499
05/01/2014  07:08:00      -23.483      -25.758       -1.535       19.180       18.343       13.871      367.861      336.452      192.391        0.106        0.045       34.856        9.995        0.082      336.508        7.854      868.501
05/01/2014  07:09:00      -28.498      -30.032       -3.373       11.281       11.959        7.846      127.258      143.010       61.567        0.103        0.017       41.401        6.486        0.025      336.550        7.928      868.512
05/01/2014  07:10:00      -29.599      -39.067       -1.468       18.789       16.417       15.759      353.042      269.525      248.332        0.164        0.044       49.014       13.564        0.077      336.535        7.904      868.512
05/01/2014  07:11:00      -32.125      -25.445       -1.278       14.339       15.736        9.634      205.600      247.637       92.806        0.111        0.027       40.982        8.179        0.040      336.612        8.033      868.525
05/01/2014  07:12:00      -43.097      -17.956       -2.881       11.617       18.321       10.601      134.951      335.665      112.388        0.139        0.029       46.688       11.973        0.066      336.609        8.027      868.524
05/01/2014  07:13:00      -10.019      -27.149       -4.408       14.918       13.370       10.194      222.534      178.764      103.920        0.068        0.025       28.938        8.710        0.091      336.712        8.199      868.527
05/01/2014  07:14:00      -17.621       -7.211       11.732       12.196        8.325        9.085      148.741       69.313       82.539        0.040        0.015       19.039        3.581        0.035      337.001        8.682      868.527
05/01/2014  07:15:00       -9.738        9.024       29.571        9.654       12.400       12.347       93.195      153.755      152.459        0.072        0.020       13.276        6.428        0.234      337.485        9.491      868.528
05/01/2014  07:16:00       -8.034        6.121       38.158       10.319       14.497       10.091      106.481      210.150      101.832        0.099        0.021       10.100        7.353        0.530      337.517        9.545      868.541
05/01/2014  07:17:00       -2.083        7.608       37.896       10.371       22.425       10.936      107.565      502.895      119.598        0.111        0.037        7.888        8.319        1.112      337.289        9.162      868.553
05/01/2014  07:18:00       -8.704        4.403       43.372       12.485       35.740       15.554      155.881     1277.378      241.915        0.183        0.084        9.754       18.271        3.509      337.265        9.121      868.563
05/01/2014  07:19:00       -0.045        8.761       37.424       14.406       20.221       13.078      207.546      408.876      171.037        0.113        0.039        8.761        8.635        0.972      337.523        9.554      868.578
05/01/2014  07:20:00      -12.811        4.720       35.682       11.110       13.758       11.580      123.441      189.270      134.100        0.095        0.022       13.653        7.308        0.287      337.794       10.009      868.586
05/01/2014  07:21:00       -3.661       10.498       37.732        7.751       18.187       15.686       60.083      330.752      246.062        0.109        0.032       11.118        8.118        0.533      337.873       10.141      868.596
05/01/2014  07:22:00        5.309      -42.894       16.942       18.231       35.896       24.555      332.369     1288.550      602.924        0.219        0.111       43.221       20.118        0.217      337.373        9.304      868.602
05/01/2014  07:23:00      -20.656      -17.166       12.678       24.583       15.283       14.551      604.330      233.573      211.723        0.097        0.052       26.858        8.259        0.095      337.293        9.168      868.601
05/01/2014  07:24:00      -16.204        5.293       19.903       13.468       13.558       18.199      181.396      183.808      331.189        0.069        0.035       17.047       12.798        0.564      337.861       10.121      868.602
05/01/2014  07:25:00      -15.162       -1.582       18.849       10.740       13.330       16.904      115.340      177.697      285.758        0.058        0.029       15.244       12.270        0.648      337.740        9.918      868.605
05/01/2014  07:26:00      -33.510       -3.661        1.326       13.658        9.310        7.619      186.548       86.683       58.042        0.073        0.017       33.709        6.983        0.043      337.049        8.760      868.619
05/01/2014  07:27:00      -30.232      -18.447        4.313       20.211        9.691       10.920      408.468       93.912      119.238        0.095        0.031       35.415       12.097        0.117      337.277        9.143      868.627
05/01/2014  07:28:00      -16.783      -15.421        4.921       17.908       20.445       13.041      320.688      417.988      170.073        0.073        0.045       22.792       12.180        0.286      337.366        9.291      868.634
05/01/2014  07:29:00      -21.914      -10.409        2.257       20.058       10.165       10.770      402.343      103.321      116.000        0.061        0.031       24.261        9.579        0.156      337.387        9.327      868.637
05/01/2014  07:30:00      -25.274      -23.589        6.254       21.223       19.231       10.897      450.397      369.825      118.746        0.109        0.047       34.572       14.033        0.165      337.468        9.462      868.645
05/01/2014  07:31:00      -32.419       -0.269        8.379       17.219       24.408       17.265      296.490      595.751      298.074        0.116        0.060       32.420       15.052        0.216      337.472        9.470      868.653
05/01/2014  07:32:00      -21.689       12.850       24.481       14.246       16.792       18.306      202.945      281.967      335.093        0.103        0.041       25.210       12.613        0.250      338.047       10.432      868.657
05/01/2014  07:33:00      -17.653      -17.919        7.651       19.928       23.565       11.373      397.127      555.317      129.338        0.089        0.054       25.154       11.912        0.224      337.407        9.361      868.658
05/01/2014  07:34:00      -35.198      -12.960        3.173       27.662       28.875       12.050      765.199      833.751      145.201        0.158        0.087       37.508        5.531        0.022      337.297        9.176      868.647
05/01/2014  07:35:00      -92.737      -38.065       -5.668       33.842       26.407       26.094     1145.254      697.351      680.918        0.630        0.126      100.245       24.479        0.060      337.227        9.059      868.638
05/01/2014  07:36:00      -76.331      -37.175       -0.995       27.029       22.066       18.028      730.543      486.913      325.015        0.438        0.077       84.902        9.547        0.013      337.178        8.977      868.628
05/01/2014  07:37:00      -73.298      -19.669       -5.899       16.467       21.879       17.103      271.176      478.708      292.517        0.342        0.052       75.892       10.053        0.018      337.263        9.120      868.624
05/01/2014  07:38:00      -58.070      -20.412       -7.393       20.017       16.734       11.611      400.692      280.043      134.812        0.233        0.041       61.553        6.412        0.011      337.262        9.118      868.624
05/01/2014  07:39:00      -47.778      -29.076       -0.405       21.872       11.559        9.658      478.369      133.609       93.282        0.192        0.035       55.930        7.225        0.017      337.334        9.238      868.626
05/01/2014  07:40:00      -64.450      -28.393       -2.406       18.846       16.955       14.021      355.187      287.465      196.577        0.290        0.042       70.427       12.636        0.032      337.343        9.253      868.645
05/01/2014  07:41:00      -84.922      -18.348       -7.786       23.999       18.682       10.856      575.932      349.021      117.862        0.433        0.052       86.881        8.661        0.010      337.332        9.233      868.661
05/01/2014  07:42:00      -44.027      -21.860       -0.476       17.659       28.250       10.853      311.834      798.083      117.794        0.182        0.061       49.155       12.361        0.063      337.441        9.417      868.678
05/01/2014  07:43:00      -41.821      -15.945       -1.616       21.892       17.371       14.675      479.243      301.762      215.354        0.150        0.050       44.757        7.444        0.028      337.625        9.726      868.689
05/01/2014  07:44:00      -48.445      -16.155       -2.588       22.713       11.455       11.761      515.871      131.222      138.330        0.170        0.039       51.068        8.436        0.027      337.495        9.507      868.691
05/01/2014  07:45:00       -2.585       -0.571       20.503       14.940       13.700       19.227      223.190      187.694      369.661        0.060        0.039        2.647       15.133       32.690      338.383       10.999      868.687
05/01/2014  07:46:00      -12.335        0.523       25.434        9.442       11.641        9.853       89.146      135.512       97.085        0.056        0.016       12.346        7.024        0.324      338.768       11.645      868.686
05/01/2014  07:47:00       -8.395       11.331       20.258       27.352       12.564       15.801      748.152      157.849      249.656        0.088        0.058       14.102       12.857        0.831      338.324       10.900      868.688
05/01/2014  07:48:00       18.969       10.506       16.140       22.523       12.683       14.508      507.296      160.866      210.476        0.080        0.044       21.684        6.071        0.078      338.113       10.544      868.690
05/01/2014  07:49:00       15.189       11.194       11.636       20.256       12.185       16.643      410.313      148.486      276.974        0.066        0.042       18.868        8.430        0.200      338.150       10.607      868.709
05/01/2014  07:50:00       39.706       27.061       24.800       29.950       22.112       19.227      897.017      488.955      369.680        0.234        0.088       48.051       17.470        0.132      338.269       10.805      868.722
05/01/2014  07:51:00        0.978       36.477       56.195       16.334       24.003       14.892      266.809      576.163      221.773        0.278        0.053       36.490       12.290        0.113      338.563       11.299      868.732
05/01/2014  07:52:00        4.566       42.061       28.664       26.280       18.794       22.162      690.632      353.196      491.140        0.207        0.077       42.308       13.766        0.106      338.484       11.167      868.743
05/01/2014  07:53:00       -8.171       43.910       17.250       32.397       34.893       25.020     1049.557     1217.520      626.013        0.259        0.145       44.663       18.424        0.170      338.688       11.511      868.750
05/01/2014  07:54:00       -1.933        4.617       25.606       22.428       13.023       23.491      503.017      169.590      551.845        0.095        0.061        5.005       19.712       15.509      338.716       11.559      868.753
05/01/2014  07:55:00       -7.579      -14.886        5.380       29.096       27.243       21.606      846.572      742.165      466.820        0.118        0.103       16.704        9.818        0.345      338.117       10.551      868.758
05/01/2014  07:56:00      -52.431      -23.556       12.550       42.996       36.901       21.356     1848.673     1361.720      456.073        0.356        0.183       57.479       27.642        0.231      338.278       10.820      868.771
05/01/2014  07:57:00      -26.021      -21.047       11.790       35.593       29.064       22.669     1266.878      844.726      513.865        0.194        0.131       33.468       18.651        0.311      338.295       10.849      868.781
05/01/2014  07:58:00      -90.015      -59.174       -2.064       36.277       30.212       16.075     1316.054      912.757      258.398        0.705        0.124      107.723       15.313        0.020      337.816       10.045      868.788
05/01/2014  07:59:00      -62.701      -70.307       -3.539       25.049       29.743       19.885      627.468      884.634      395.409        0.540        0.095       94.204       14.108        0.022      337.829       10.068      868.800
05/01/2014  08:00:00      -86.794      -41.841       -7.269       20.905       25.542       12.536      437.027      652.374      157.158        0.529        0.062       96.352        9.563        0.010      337.831       10.070      868.800
05/01/2014  08:01:00      -61.441      -48.219        9.674       37.346       29.625       20.229     1394.738      877.656      409.226        0.444        0.134       78.103       15.378        0.039      337.975       10.312      868.797
05/01/2014  08:02:00      -65.383      -48.335        2.385       44.018       27.643       22.633     1937.572      764.143      512.257        0.491        0.161       81.310       26.917        0.110      338.150       10.606      868.787
05/01/2014  08:03:00      -26.845      -49.170        6.470       30.554       33.253       23.024      933.572     1105.750      530.101        0.287        0.128       56.021       24.295        0.188      338.140       10.589      868.778
05/01/2014  08:04:00      -14.331      -10.599       16.757       19.011       17.436       13.901      361.401      304.027      193.232        0.073        0.043       17.825       11.244        0.398      338.498       11.192      868.791
05/01/2014  08:05:00      -31.046        6.388        7.013       16.604       16.807       27.632      275.705      282.466      763.509        0.119        0.066       31.696       18.090        0.326      338.557       11.291      868.801
05/01/2014  08:06:00      -13.743        2.607       21.749       17.301       18.930       14.956      299.321      358.332      223.694        0.077        0.044       13.988       11.806        0.712      338.622       11.400      868.813
05/01/2014  08:07:00      -33.538        3.081        3.576       22.735       11.323       10.691      516.890      128.212      114.302        0.095        0.038       33.679       12.153        0.130      338.277       10.820      868.831
05/01/2014  08:08:00      -13.538      -16.463       14.256       25.880       33.042       21.384      669.763     1091.790      457.280        0.144        0.111       21.315       20.723        0.945      338.517       11.224      868.840
05/01/2014  08:09:00      -85.570      -76.424       -9.194       34.845       17.108       19.168     1214.188      292.669      367.398        0.756        0.094      114.729       21.003        0.034      338.034       10.412      868.854
05/01/2014  08:10:00      -54.942      -72.715      -10.413       35.367       49.055       18.172     1250.843     2406.394      330.230        0.620        0.199       91.138       16.491        0.033      338.062       10.457      868.847
05/01/2014  08:11:00      -47.085      -42.583        3.105       35.070       30.843       24.906     1229.886      951.273      620.333        0.342        0.140       63.485       19.561        0.095      338.123       10.561      868.843
05/01/2014  08:12:00      -34.363      -43.868        3.418       28.715       25.221       23.898      824.534      636.116      571.107        0.257        0.102       55.725       22.115        0.157      338.307       10.870      868.839
05/01/2014  08:13:00      -39.724      -45.156        4.463       23.043       28.470       15.106      530.992      810.562      228.182        0.260        0.078       60.142       14.240        0.056      338.233       10.747      868.840
05/01/2014  08:14:00      -54.396      -27.588       -0.560       18.211       14.375       10.015      331.642      206.633      100.305        0.218        0.032       60.992       10.136        0.028      338.236       10.750      868.844
05/01/2014  08:15:00      -28.729      -12.188        0.427       17.368       18.839       12.818      301.639      354.908      164.290        0.090        0.041       31.208       10.079        0.104      338.410       11.043      868.835
05/01/2014  08:16:00      -21.975        6.985        8.211       15.675       21.167       15.027      245.712      448.026      225.813        0.076        0.046       23.059       11.299        0.240      338.823       11.738      868.822
05/01/2014  08:17:00      -27.185      -30.158       10.179       19.946       22.035       15.087      397.842      485.558      227.616        0.143        0.056       40.602       11.156        0.075      338.568       11.308      868.813
05/01/2014  08:18:00      -47.217      -38.151       -3.889       21.950       24.706       17.274      481.782      610.366      298.377        0.255        0.070       60.704       14.606        0.058      338.433       11.082      868.804
05/01/2014  08:19:00      -32.037      -23.767        4.060       23.447       17.269       13.803      549.754      298.220      190.531        0.132        0.052       39.891       14.011        0.123      338.583       11.333      868.797
05/01/2014  08:20:00      -56.018      -19.176       -3.956       23.691       12.637       11.217      561.254      159.684      125.820        0.218        0.042       59.209        9.199        0.024      338.428       11.073      868.793
05/01/2014  08:21:00      -34.730      -14.324       -9.619       19.316       10.344        7.169      373.096      106.999       51.389        0.102        0.027       37.569        9.125        0.059      338.407       11.038      868.799
05/01/2014  08:22:00      -14.482      -17.690       -2.866        8.133        9.251        5.801       66.145       85.576       33.651        0.036        0.009       22.862        2.314        0.010      338.468       11.141      868.801
05/01/2014  08:23:00      -26.860      -15.021       -3.449       12.279        9.471        6.406      150.772       89.703       41.042        0.062        0.014       30.774        5.108        0.028      338.539       11.260      868.801
05/01/2014  08:24:00      -39.075      -27.472       -2.210       28.794       20.714       14.475      829.100      429.067      209.522        0.188        0.073       47.766       16.245        0.116      338.612       11.382      868.805
05/01/2014  08:25:00      -44.803      -16.679        3.648       27.356       30.361       22.912      748.325      921.790      524.968        0.225        0.110       47.807       19.285        0.163      338.820       11.732      868.807
05/01/2014  08:26:00      -55.754      -32.216       -5.721       19.489       16.852       12.367      379.833      283.974      152.945        0.250        0.041       64.393        5.063        0.006      338.598       11.357      868.810
05/01/2014  08:27:00      -29.866       -1.130       -8.137       10.000       13.987        8.590      100.004      195.647       73.793        0.066        0.018       29.888        7.845        0.069      338.649       11.444      868.795
05/01/2014  08:28:00      -21.135       -3.328       -8.858       14.791       13.105        9.524      218.768      171.741       90.710        0.051        0.024       21.395        6.888        0.104      338.759       11.628      868.786
05/01/2014  08:29:00      -23.759       -4.782       -1.586        7.574       12.204        6.965       57.359      148.948       48.505        0.042        0.013       24.236        3.478        0.021      338.732       11.582      868.777
05/01/2014  08:30:00      -29.499        0.361       -1.146       11.535        6.888       13.324      133.052       47.441      177.537        0.061        0.018       29.501        7.733        0.069      338.880       11.833      868.764
05/01/2014  08:31:00      -35.348       15.924        7.283       16.692       12.348       15.555      278.627      152.480      241.963        0.111        0.034       38.769        7.640        0.039      339.007       12.047      868.755
05/01/2014  08:32:00      -21.635       10.535       15.633       15.074       12.463       19.043      227.214      155.329      362.624        0.078        0.037       24.064       14.980        0.388      339.741       13.285      868.748
05/01/2014  08:33:00      -12.085        8.920       26.084       18.442       17.841       19.575      340.123      318.316      383.194        0.097        0.052       15.021       14.964        0.992      339.977       13.683      868.742
05/01/2014  08:34:00      -15.823        4.101       16.814       12.800        8.764       20.867      163.849       76.812      435.415        0.061        0.034       16.346       10.348        0.401      339.868       13.498      868.737
05/01/2014  08:35:00      -15.730        2.390       27.443       14.899       13.046       20.897      221.978      170.188      436.674        0.092        0.041       15.911       11.564        0.528      340.221       14.093      868.726
05/01/2014  08:36:00      -44.560      -41.242        0.983       24.823       29.311       16.299      616.198      859.156      265.649        0.271        0.087       60.717       14.816        0.060      339.018       12.063      868.722
05/01/2014  08:37:00       -7.354      -28.659       13.630       25.343       33.862       23.254      642.253     1146.646      540.740        0.169        0.116       29.587       25.986        0.771      339.633       13.102      868.716
05/01/2014  08:38:00      -10.745      -20.530       12.394       20.563       14.825       12.355      422.832      219.777      152.641        0.074        0.040       23.172        9.362        0.163      339.414       12.732      868.703
05/01/2014  08:39:00      -25.130       -6.224        2.440       16.133        9.019       11.809      260.285       81.342      139.447        0.058        0.024       25.889        2.308        0.008      339.291       12.525      868.689
05/01/2014  08:40:00       -8.997       18.783       49.685       15.948       23.995       24.770      254.345      575.770      613.551        0.217        0.072       20.826       18.113        0.756      340.057       13.816      868.683
05/01/2014  08:41:00       22.820       44.747       65.273       35.971       44.797       24.659     1293.949     2006.797      608.080        0.535        0.195       50.230       23.920        0.227      339.817       13.411      868.680
05/01/2014  08:42:00       41.791       63.470       49.547       44.977       30.292       23.351     2022.903      917.598      545.262        0.586        0.174       75.993       21.175        0.078      339.378       12.669      868.684
05/01/2014  08:43:00       50.731       56.227       57.483       37.193       26.491       27.999     1383.342      701.764      783.934        0.595        0.143       75.730       20.139        0.071      339.405       12.716      868.682
05/01/2014  08:44:00       83.897       65.522       31.618       37.198       31.384       36.680     1383.699      984.960     1345.420        0.802        0.186      106.451       26.359        0.061      339.257       12.465      868.671
05/01/2014  08:45:00       86.163       58.241       12.599       27.720       22.451       22.226      768.377      504.065      494.004        0.637        0.088      104.001       12.993        0.016      339.396       12.701      868.663
05/01/2014  08:46:00       56.583       24.199       20.198       37.360       26.417       29.448     1395.769      697.869      867.205        0.358        0.148       61.540       23.490        0.146      339.665       13.154      868.653
05/01/2014  08:47:00       12.887       40.914       55.567       32.595       40.091       35.173     1062.430     1607.291     1237.151        0.442        0.195       42.896       28.361        0.437      339.911       13.570      868.652
05/01/2014  08:48:00       74.653       62.624       31.375       60.942       39.706       39.443     3713.903     1576.545     1555.727        0.866        0.342       97.442       20.500        0.044      339.684       13.185      868.635
05/01/2014  08:49:00       37.490       48.895       53.893       39.221       56.633       33.612     1538.267     3207.268     1129.793        0.629        0.294       61.613       31.037        0.254      340.127       13.933      868.632
05/01/2014  08:50:00       38.279       61.212       78.046       54.674       45.519       48.644     2989.237     2071.939     2366.279        0.936        0.371       72.196       46.572        0.416      339.931       13.603      868.635
05/01/2014  08:51:00       34.139       79.659       88.862       41.998       51.156       27.745     1763.873     2616.919      769.793        1.028        0.258       86.666       26.772        0.095      339.791       13.368      868.638
05/01/2014  08:52:00       73.951       59.428       23.323       61.124       42.334       40.608     3736.152     1792.186     1649.004        0.836        0.359       94.871       35.801        0.142      339.944       13.625      868.633
05/01/2014  08:53:00      110.873       75.902       10.612       44.460       38.514       31.284     1976.720     1483.292      978.719        1.130        0.222      134.365       22.262        0.027      339.788       13.361      868.633
05/01/2014  08:54:00       51.031       16.642       19.672       39.636       43.045       33.644     1571.035     1852.877     1131.908        0.391        0.228       53.676       26.596        0.246      340.294       14.216      868.634
05/01/2014  08:55:00       57.699        6.363       27.196       46.626       38.737       32.714     2174.000     1500.590     1070.179        0.443        0.237       58.049       31.834        0.301      340.150       13.973      868.634
05/01/2014  08:56:00       37.568        9.468       18.223       30.198       17.496       28.186      911.890      306.109      794.467        0.192        0.101       38.743       11.129        0.083      340.112       13.909      868.636
05/01/2014  08:57:00       34.731       37.117       26.755       31.662       39.221       33.256     1002.480     1538.272     1105.975        0.347        0.182       50.832       26.636        0.275      340.010       13.738      868.627
05/01/2014  08:58:00       92.231       11.822       -2.358       77.599       63.748       44.690     6021.669     4063.819     1997.231        1.036        0.604       92.986       42.103        0.205      339.850       13.467      868.612
05/01/2014  08:59:00      111.864       45.478       27.945       61.001       55.463       37.943     3721.181     3076.148     1439.645        1.180        0.412      120.755       25.604        0.045      340.064       13.828      868.609
05/01/2014  09:00:00      104.299       88.214       14.045       42.181       43.250       31.248     1779.240     1870.574      976.467        1.174        0.231      136.602       18.245        0.018      339.881       13.517      868.612
05/01/2014  09:01:00      106.288       64.673       13.797       40.244       44.547       32.599     1619.594     1984.405     1062.682        1.017        0.233      124.417       14.974        0.014      339.920       13.584      868.619
05/01/2014  09:02:00       66.332       50.032       20.891       65.909       44.582       38.208     4343.986     1987.590     1459.818        0.756        0.390       83.085       28.610        0.119      340.094       13.879      868.624
05/01/2014  09:03:00       48.806       71.147       -2.195       64.736       46.265       37.551     4190.740     2140.434     1410.096        0.759        0.387       86.278       25.059        0.084      339.921       13.586      868.633
05/01/2014  09:04:00       40.941       44.649        4.728       28.884       38.687       27.872      834.269     1496.722      776.831        0.340        0.155       60.579       25.178        0.173      340.190       14.040      868.631
05/01/2014  09:05:00       23.461       -7.895       25.099       28.358       32.875       25.665      804.148     1080.767      658.678        0.189        0.127       24.754       19.670        0.631      340.610       14.750      868.625
05/01/2014  09:06:00       59.944       64.974       69.696       52.217       30.637       27.217     2726.588      938.645      740.781        0.854        0.220       88.402       23.107        0.068      340.093       13.878      868.625
05/01/2014  09:07:00       96.012       67.344       29.955       27.497       20.881       27.492      756.084      436.027      755.826        0.830        0.097      117.275       15.957        0.019      339.689       13.195      868.618
05/01/2014  09:08:00       66.323       23.351       -4.159       22.696       37.558       25.371      515.121     1410.611      643.674        0.376        0.128       70.314       24.793        0.124      339.630       13.095      868.622
05/01/2014  09:09:00        8.374       -6.171      -12.145       26.291       15.873       16.991      691.233      251.962      288.686        0.074        0.062       10.402       16.349        2.470      340.033       13.776      868.620
05/01/2014  09:10:00      -50.842      -33.724       -5.849       30.702       17.494       16.084      942.631      306.047      258.681        0.263        0.075       61.010        9.877        0.026      339.759       13.313      868.600
05/01/2014  09:11:00      -24.019        1.905       15.256       18.119       14.288       21.752      328.314      204.156      473.164        0.091        0.050       24.094       15.083        0.392      340.571       14.685      868.596
05/01/2014  09:12:00      -36.476        9.812        4.999       21.822       11.817       16.036      476.215      139.641      257.140        0.116        0.044       37.773       17.123        0.205      340.183       14.029      868.591
05/01/2014  09:13:00        6.875       23.332       23.771       38.176       22.828       22.098     1457.391      521.104      488.328        0.181        0.123       24.324       10.735        0.195      340.775       15.030      868.585
05/01/2014  09:14:00       28.820       41.966       55.605       33.391       36.368       36.982     1114.963     1322.616     1367.702        0.474        0.190       50.909       18.638        0.134      340.760       15.004      868.575
05/01/2014  09:15:00       12.648       31.599       42.022       29.630       42.511       30.731      877.943     1807.152      944.388        0.328        0.181       34.036       26.956        0.627      340.715       14.928      868.571
05/01/2014  09:16:00      129.871       57.366       17.271       67.362       47.606       32.387     4537.622     2266.377     1048.933        1.415        0.393      141.977       30.337        0.046      340.178       14.018      868.568
05/01/2014  09:17:00       93.455       84.701       -0.681       71.798       37.635       37.620     5154.950     1416.382     1415.275        1.195        0.399      126.128       30.780        0.060      340.246       14.134      868.569
05/01/2014  09:18:00      114.046       77.544       -3.804       49.004       43.156       35.131     2401.358     1862.402     1234.215        1.226        0.275      137.911       28.268        0.042      340.360       14.328      868.563
05/01/2014  09:19:00       78.596       67.247       -1.399       35.385       32.024       27.026     1252.133     1025.547      730.389        0.685        0.150      103.439       15.226        0.022      340.259       14.157      868.568
05/01/2014  09:20:00       45.363       51.836       12.503       56.498       36.824       30.588     3192.040     1355.991      935.626        0.519        0.274       68.882       25.809        0.140      340.380       14.361      868.554
05/01/2014  09:21:00      110.203       53.279       17.411       57.022       40.635       33.940     3251.494     1651.212     1151.898        1.067        0.303      122.407       23.200        0.036      340.455       14.487      868.530
05/01/2014  09:22:00       96.688       76.534       17.080       38.100       32.907       36.625     1451.640     1082.877     1341.402        0.969        0.194      123.313       19.669        0.025      340.599       14.732      868.518
05/01/2014  09:23:00       86.963       61.161       45.884       49.905       38.469       47.270     2490.545     1479.858     2234.437        0.981        0.310      106.317       25.864        0.059      340.598       14.730      868.511
05/01/2014  09:24:00      106.353       58.365       34.636       55.906       45.363       37.979     3125.474     2057.820     1442.398        1.127        0.331      121.316       26.645        0.048      340.394       14.385      868.497
05/01/2014  09:25:00       44.314       42.191       36.799       53.223       48.208       45.656     2832.714     2324.047     2084.437        0.617        0.362       61.187       39.057        0.407      340.782       15.042      868.498
05/01/2014  09:26:00       32.222       23.925        4.692       30.370       38.549       30.950      922.308     1486.038      957.898        0.250        0.168       40.134       19.762        0.242      340.949       15.323      868.495
05/01/2014  09:27:00       14.664       31.000       56.371       35.063       34.668       29.291     1229.388     1201.868      857.987        0.382        0.164       34.294       25.315        0.545      341.206       15.759      868.491
05/01/2014  09:28:00       20.294       58.445       39.141       21.255       20.147       33.503      451.767      405.891     1122.457        0.367        0.099       61.868       19.093        0.095      340.348       14.307      868.495
05/01/2014  09:29:00        3.835      -62.227       -2.477       26.709       49.630       25.986      713.383     2463.096      675.266        0.387        0.193       62.345       14.994        0.058      340.649       14.817      868.486
05/01/2014  09:30:00      -44.381      -15.140       -7.483       20.202       26.043       18.617      408.137      678.230      346.596        0.184        0.072       46.892       13.208        0.079      340.697       14.897      868.479
05/01/2014  09:31:00       -4.479        4.213       35.043       20.803       29.355       21.813      432.781      861.719      475.796        0.152        0.089        6.149       22.438       13.317      341.516       16.285      868.480
05/01/2014  09:32:00       17.219       35.714       43.091       35.367       25.702       26.686     1250.830      660.617      712.138        0.303        0.131       39.648       16.109        0.165      341.036       15.471      868.471
05/01/2014  09:33:00       74.960       60.588       34.441       34.320       28.950       29.259     1177.856      838.094      856.097        0.667        0.144       96.384       22.959        0.057      340.674       14.857      868.471
05/01/2014  09:34:00       23.105       27.444       29.249       38.843       27.529       20.798     1508.756      757.852      432.546        0.242        0.135       35.875       15.630        0.190      341.340       15.985      868.462
05/01/2014  09:35:00      -20.712        4.955       26.295       16.860       16.117       15.498      284.259      259.743      240.178        0.096        0.039       21.296        9.359        0.193      341.661       16.530      868.459
05/01/2014  09:36:00      -45.594       14.173        6.893       24.992       13.619       18.818      624.584      185.475      354.105        0.175        0.058       47.747       19.577        0.168      341.182       15.720      868.449
05/01/2014  09:37:00      -35.180       10.025        7.708       40.655       17.069       17.871     1652.865      291.346      319.385        0.183        0.113       36.580       20.112        0.302      340.966       15.352      868.440
05/01/2014  09:38:00       15.491       19.319       28.708       30.741       27.188       25.221      945.033      739.198      636.106        0.188        0.116       24.762       21.454        0.751      341.826       16.809      868.440
05/01/2014  09:39:00        0.434        9.713       29.646       31.089       23.147       23.213      966.534      535.799      538.823        0.151        0.102        9.723       14.276        2.156      341.562       16.361      868.421
05/01/2014  09:40:00      -19.781       -0.708        5.176       30.831       15.762       19.308      950.577      248.448      372.784        0.099        0.079       19.793       13.208        0.445      341.402       16.090      868.421
05/01/2014  09:41:00      -21.516       15.845       22.800       29.510       19.177       21.253      870.839      367.755      451.669        0.146        0.085       26.721       15.508        0.337      341.885       16.909      868.405
05/01/2014  09:42:00        5.420        4.434       16.100       58.432       21.435       24.337     3414.271      459.477      592.285        0.239        0.223        7.002       21.151        9.125      341.426       16.131      868.397
05/01/2014  09:43:00      -20.460       47.982       15.667       25.058       43.601       28.643      627.889     1901.026      820.431        0.316        0.167       52.162       26.724        0.262      341.958       17.034      868.393
05/01/2014  09:44:00       -7.433       -1.289       42.463       24.338       17.567       18.855      592.318      308.586      355.511        0.156        0.063        7.544       10.635        1.987      342.335       17.672      868.383
05/01/2014  09:45:00       34.400       25.160       30.744       28.138       30.177       27.801      791.749      910.640      772.874        0.262        0.124       42.619       23.094        0.294      342.297       17.609      868.367
05/01/2014  09:46:00       -0.213       15.042       44.604       31.649       62.286       26.991     1001.681     3879.506      728.534        0.391        0.280       15.043       28.503        3.590      341.845       16.842      868.364
05/01/2014  09:47:00       52.433       33.333       41.817       45.461       36.996       23.657     2066.661     1368.731      559.637        0.480        0.200       62.132       16.564        0.071      341.564       16.365      868.352
05/01/2014  09:48:00       17.890      -19.417       47.375       23.902       30.062       17.002      571.323      903.745      289.085        0.235        0.088       26.402       11.751        0.198      341.751       16.682      868.355
05/01/2014  09:49:00       29.231       -4.447       -0.226       32.532       14.110       29.650     1058.358      199.084      879.151        0.151        0.107       29.567       12.705        0.185      341.473       16.212      868.355
05/01/2014  09:50:00      -12.896       22.770      -12.093       19.970       31.748       26.394      398.801     1007.905      696.658        0.147        0.105       26.168        9.921        0.144      341.585       16.399      868.344
05/01/2014  09:51:00       -8.963       24.720        5.389       22.564       30.652       22.384      509.153      939.574      501.048        0.133        0.097       26.294       17.713        0.454      341.767       16.710      868.343
05/01/2014  09:52:00      -58.056      -28.748       -6.433       27.453       20.084       14.874      753.667      403.363      221.227        0.281        0.069       64.784       14.177        0.048      341.196       15.741      868.338
05/01/2014  09:53:00      -41.021      -38.715        3.445       19.488       22.165       12.116      379.769      491.286      146.786        0.211        0.051       56.405       10.143        0.032      341.223       15.787      868.341
05/01/2014  09:54:00      -56.672      -25.690       -9.137       26.500       14.034       12.885      702.243      196.948      166.031        0.251        0.053       62.223       10.594        0.029      341.241       15.818      868.336
05/01/2014  09:55:00      -22.082       -5.656       10.389       16.786       25.154       22.168      281.770      632.718      491.428        0.102        0.070       22.795       15.103        0.439      341.911       16.955      868.319
05/01/2014  09:56:00        2.583        8.134       31.089       14.311       11.776       20.747      204.808      138.663      430.428        0.091        0.039        8.534        8.106        0.902      342.544       18.029      868.316
05/01/2014  09:57:00       12.290       25.454       -9.959       26.565       27.270       21.887      705.701      743.647      479.047        0.141        0.096       28.265        7.992        0.080      341.452       16.174      868.311
05/01/2014  09:58:00      -19.535        3.212       21.631       24.300        9.991       17.473      590.488       99.814      305.295        0.093        0.050       19.798       14.632        0.546      342.319       17.646      868.304
05/01/2014  09:59:00      -53.641       23.555       16.461       46.467       21.609       22.347     2159.167      466.952      499.377        0.341        0.156       58.585       26.457        0.204      342.297       17.609      868.302
05/01/2014  10:00:00      -85.889       26.845       -5.320       20.267       14.914       14.255      410.750      222.432      203.201        0.448        0.042       89.987        7.597        0.007      341.401       16.088      868.288
05/01/2014  10:01:00      -76.637       17.503        0.000       33.412       14.685       11.604     1116.350      215.644      134.660        0.382        0.073       78.611       12.077        0.024      341.501       16.259      868.285
05/01/2014  10:02:00      -56.805       15.794       -6.075       30.494       16.014       20.228      929.868      256.441      409.167        0.255        0.080       58.960       16.840        0.082      341.727       16.641      868.279
05/01/2014  10:03:00      -38.071      -26.434        8.891       19.500       19.904       19.398      380.262      396.175      376.297        0.169        0.058       46.348       14.639        0.100      341.954       17.027      868.269
05/01/2014  10:04:00      -37.378      -36.202        3.624       17.871       20.867       16.272      319.385      435.438      264.785        0.187        0.051       52.036       10.731        0.043      341.713       16.617      868.258
05/01/2014  10:05:00      -22.067       15.213       55.259       25.181       33.083       20.837      634.091     1094.469      434.171        0.297        0.108       26.803       15.191        0.321      342.704       18.300      868.243
05/01/2014  10:06:00        3.113       22.358       47.960       30.301       45.442       28.831      918.129     2064.965      831.239        0.331        0.191       22.573       24.873        1.214      342.312       17.635      868.233
05/01/2014  10:07:00      -16.402       26.777       52.785       22.775       33.558       25.964      518.702     1126.158      674.129        0.305        0.116       31.401       21.197        0.456      342.817       18.493      868.229
05/01/2014  10:08:00        1.075      -16.676        3.240       29.891       34.541       25.864      893.465     1193.047      668.962        0.152        0.138       16.711       16.605        0.987      342.100       17.273      868.225
05/01/2014  10:09:00       -3.265       -2.741       26.862       28.252       32.446       23.164      798.166     1052.733      536.571        0.156        0.119        4.263       10.579        6.158      342.644       18.199      868.211
05/01/2014  10:10:00      -19.260      -13.559       21.288       31.520       39.860       31.768      993.540     1588.799     1009.224        0.230        0.180       23.554       30.550        1.682      342.854       18.557      868.203
05/01/2014  10:11:00        4.673       -7.216        9.708       29.449       34.329       26.669      867.248     1178.504      711.257        0.146        0.138        8.598       21.015        5.975      342.323       17.654      868.183
05/01/2014  10:12:00      -13.008      -28.878      -19.564       37.981       28.553       23.596     1442.570      815.256      556.779        0.210        0.141       31.672        9.273        0.086      342.157       17.371      868.166
05/01/2014  10:13:00      -77.514      -76.941       -5.983       51.328       52.316       31.279     2634.611     2737.016      978.357        0.916        0.317      109.217       26.724        0.060      342.031       17.157      868.161
05/01/2014  10:14:00      -29.284        5.761        6.081       30.306       47.021       25.912      918.445     2210.931      671.414        0.236        0.190       29.845       30.542        1.047      342.201       17.445      868.148
05/01/2014  10:15:00       25.078       57.455        0.956       27.967       24.925       32.717      782.158      621.278     1070.415        0.320        0.124       62.689       15.175        0.059      342.220       17.478      868.134
05/01/2014  10:16:00       56.990       88.415      -14.622       24.614       29.592       25.270      605.853      875.657      638.571        0.670        0.106      105.191       18.937        0.032      342.059       17.205      868.120
05/01/2014  10:17:00       30.711       41.206       -6.125       23.712       23.210       21.683      562.242      538.719      470.137        0.212        0.079       51.392       12.612        0.060      342.235       17.503      868.112
05/01/2014  10:18:00       22.903       17.908       15.440       26.272       32.955       32.231      690.226     1086.049     1038.822        0.195        0.141       29.073       19.694        0.459      342.449       17.867      868.107
05/01/2014  10:19:00       31.471        3.365       22.784       37.397       40.773       34.943     1398.529     1662.454     1220.999        0.290        0.214       31.651       20.254        0.410      342.470       17.903      868.099
05/01/2014  10:20:00       53.227       -3.519       19.005       36.799       53.691       35.145     1354.137     2882.708     1235.153        0.434        0.274       53.343       29.336        0.302      342.102       17.278      868.091
05/01/2014  10:21:00        4.067       17.567       45.021       24.013       34.534       28.999      576.645     1192.609      840.928        0.248        0.131       18.032       18.286        1.028      343.035       18.865      868.084
05/01/2014  10:22:00       45.660      -11.113       40.884       50.506       56.178       40.657     2550.812     3155.966     1652.964        0.562        0.368       46.993       27.829        0.351      342.767       18.407      868.075
05/01/2014  10:23:00       40.670      -13.254       30.857       52.369       61.854       38.470     2742.560     3825.977     1479.979        0.541        0.402       42.775       27.984        0.428      342.689       18.275      868.084
05/01/2014  10:24:00       41.200       16.998       40.440       49.975       39.972       44.801     2497.496     1597.738     2007.116        0.486        0.305       44.569       40.383        0.821      342.666       18.236      868.078
05/01/2014  10:25:00       29.993       23.105       47.250       39.981       43.370       37.501     1598.471     1880.974     1406.331        0.427        0.244       37.861       34.584        0.834      342.205       17.451      868.093
05/01/2014  10:26:00       49.526       -5.481       54.262       43.936       37.468       31.613     1930.413     1403.823      999.385        0.488        0.217       49.829       23.046        0.214      342.491       17.939      868.092
05/01/2014  10:27:00       71.103        9.197       36.104       40.441       40.748       36.943     1635.488     1660.431     1364.755        0.555        0.233       71.695       33.501        0.218      341.861       16.867      868.080
05/01/2014  10:28:00       13.781       27.551        4.324       51.712       22.137       27.188     2674.181      490.049      739.185        0.243        0.195       30.805       14.220        0.213      342.213       17.466      868.066
05/01/2014  10:29:00      -28.473       42.465      -18.681       45.080       26.988       33.569     2032.174      728.347     1126.869        0.342        0.194       51.127       23.371        0.209      342.449       17.868      868.047
05/01/2014  10:30:00       14.630       21.631       29.805       39.366       37.114       36.088     1549.695     1377.479     1302.356        0.290        0.211       26.113       28.507        1.192      342.862       18.570      868.032
05/01/2014  10:31:00        0.382       -6.334       31.298       17.900       22.143       24.727      320.399      490.293      611.405        0.122        0.071        6.345       14.200        5.008      343.297       19.312      868.015
05/01/2014  10:32:00        7.491      -23.368       28.498       31.078       21.424       20.656      965.871      458.975      426.678        0.163        0.093       24.539       15.087        0.378      342.751       18.381      868.003
05/01/2014  10:33:00      -19.387       -4.579       14.855       20.687       22.239       23.911      427.935      494.555      571.723        0.106        0.075       19.921       19.187        0.928      343.170       19.094      867.995
05/01/2014  10:34:00      -39.700        6.920       14.145       24.714       22.398       18.815      610.773      501.684      353.999        0.164        0.073       40.299       16.844        0.175      343.278       19.279      867.971
05/01/2014  10:35:00      -49.739       15.242        4.598       41.936       33.397       28.741     1758.660     1115.361      826.064        0.321        0.185       52.021       28.364        0.297      343.153       19.065      867.963
05/01/2014  10:36:00      -39.470       22.950       10.797       25.701       16.831       28.313      660.553      283.276      801.648        0.197        0.087       45.658       24.214        0.281      343.183       19.118      867.939
05/01/2014  10:37:00        4.009       14.652       27.854       21.152       24.482       20.549      447.398      599.375      422.255        0.124        0.073       15.191        9.418        0.384      343.203       19.152      867.932
05/01/2014  10:38:00      -14.046      -22.289        4.000       36.744       22.511       32.487     1350.128      506.757     1055.378        0.181        0.146       26.346       20.193        0.587      343.247       19.226      867.911
05/01/2014  10:39:00       38.945      -16.729        9.007       35.413       56.499       36.945     1254.074     3192.189     1364.942        0.384        0.291       42.386       31.803        0.563      342.670       18.243      867.900
05/01/2014  10:40:00       31.521       22.104       38.503       40.461       39.678       29.890     1637.073     1574.319      893.426        0.353        0.205       38.499       26.113        0.460      342.720       18.328      867.883
05/01/2014  10:41:00       37.052      -15.058       26.815       36.227       33.832       28.590     1312.387     1144.604      817.401        0.280        0.164       39.995       21.753        0.296      342.942       18.706      867.880
05/01/2014  10:42:00       38.774       15.059       38.787       31.650       28.423       26.032     1001.752      807.840      677.680        0.286        0.124       41.596       17.301        0.173      342.891       18.618      867.866
05/01/2014  10:43:00       25.320       19.928       46.036       39.475       51.958       34.247     1558.245     2699.598     1172.869        0.429        0.272       32.221       35.194        1.193      342.939       18.702      867.856
05/01/2014  10:44:00       47.441        1.696       24.478       42.336       64.808       39.364     1792.317     4200.132     1549.546        0.520        0.377       47.472       37.298        0.617      343.102       18.977      867.845
05/01/2014  10:45:00       29.424       18.343       28.748       35.140       38.969       23.390     1234.805     1518.598      547.114        0.266        0.165       34.673       14.436        0.173      343.031       18.856      867.838
05/01/2014  10:46:00        5.433      -43.246       18.412       41.537       61.352       39.782     1725.316     3764.080     1582.571        0.465        0.354       43.586       24.518        0.316      343.478       19.617      867.827
05/01/2014  10:47:00       49.843      -75.907       23.159       55.562       90.558       43.818     3087.103     8200.696     1920.050        1.099        0.660       90.809       44.482        0.240      343.438       19.549      867.818
05/01/2014  10:48:00       30.669      -59.801       39.186       36.458       85.825       34.477     1329.200     7365.853     1188.638        0.797        0.494       67.207       39.193        0.340      343.446       19.564      867.817
05/01/2014  10:49:00       -6.546        0.928       31.022       28.532       23.799       27.095      814.060      566.415      734.134        0.156        0.106        6.611       19.676        8.857      343.710       20.012      867.803
05/01/2014  10:50:00      -17.141      -54.096        7.240       56.665       56.935       38.309     3210.945     3241.623     1467.582        0.559        0.396       56.747       24.077        0.180      343.436       19.546      867.800
05/01/2014  10:51:00       47.137      -59.282       35.188       59.427       60.917       50.669     3531.580     3710.825     2567.379        0.839        0.490       75.738       42.794        0.319      343.474       19.612      867.792
05/01/2014  10:52:00       70.872     -173.688       -8.020       56.134       74.520       45.015     3151.032     5553.228     2026.324        2.299        0.537      187.591       32.961        0.031      343.150       19.058      867.779
05/01/2014  10:53:00       22.520      -72.752       39.665       55.373       94.170       51.046     3066.191     8868.080     2605.717        1.095        0.727       76.158       52.723        0.479      343.579       19.790      867.763
05/01/2014  10:54:00       91.735     -190.976      -11.559       93.044       76.914       50.951     8657.159     5915.759     2596.047        3.109        0.858      211.866       47.199        0.050      343.189       19.122      867.749
05/01/2014  10:55:00       84.712     -175.939      -19.710       66.623       88.724       50.250     4438.619     7871.998     2525.024        2.667        0.742      195.271       48.421        0.061      343.245       19.219      867.746
05/01/2014  10:56:00       14.722     -157.999       -6.261       52.588       77.856       40.583     2765.491     6061.550     1647.018        1.784        0.524      158.683       42.818        0.073      343.238       19.206      867.751
05/01/2014  10:57:00       43.577       60.281       39.837       45.513       37.842       42.652     2071.462     1431.996     1819.209        0.622        0.266       74.383       34.712        0.218      343.186       19.122      867.738
05/01/2014  10:58:00       53.824       76.721       -1.727       38.140       39.878       32.702     1454.685     1590.227     1069.432        0.645        0.206       93.718       27.501        0.086      343.188       19.126      867.727
05/01/2014  10:59:00      -16.254       23.557       12.543       17.786       32.800       25.328      316.353     1075.814      641.524        0.150        0.102       28.620       23.274        0.661      343.913       20.361      867.705
05/01/2014  11:00:00       23.216      -25.038       -6.203       24.190       39.036       20.970      585.144     1523.816      439.724        0.188        0.127       34.145       18.114        0.281      343.470       19.606      867.695
05/01/2014  11:01:00        2.300        6.001       30.958       21.261       13.280       15.855      452.025      176.355      251.377        0.094        0.044        6.427       10.190        2.514      344.357       21.119      867.677
05/01/2014  11:02:00       16.775       27.040       28.224       23.491       25.506       24.479      551.834      650.536      599.216        0.181        0.090       31.821       19.776        0.386      344.030       20.560      867.667
05/01/2014  11:03:00        0.812       -9.688       21.432       19.381       35.358       24.972      375.640     1250.204      623.606        0.140        0.112        9.722       15.908        2.677      344.172       20.803      867.657
05/01/2014  11:04:00       16.089       10.806       40.470       51.358       52.069       40.013     2637.678     2711.144     1601.023        0.448        0.347       19.381       38.160        3.877      343.977       20.470      867.639
05/01/2014  11:05:00       55.959      -33.537       36.123       75.155      106.897       61.171     5648.295    11426.883     3741.868        1.318        1.041       65.239       79.994        1.503      343.648       19.908      867.634
05/01/2014  11:06:00      -35.476      -13.656       34.718       41.312       83.955       36.460     1706.686     7048.364     1329.357        0.637        0.504       38.013       30.127        0.628      344.073       20.633      867.623
05/01/2014  11:07:00       85.103     -138.217      -31.955       71.293       62.345       47.599     5082.739     3886.927     2265.622        1.930        0.562      162.316       31.585        0.038      343.849       20.249      867.622
05/01/2014  11:08:00       28.277        1.619       63.788       57.257       76.928       53.024     3278.415     5917.988     2811.501        0.844        0.600       28.324       49.360        3.037      344.200       20.850      867.616
05/01/2014  11:09:00        1.900       23.171       70.783       44.030       65.415       44.924     1938.609     4279.083     2018.144        0.689        0.412       23.248       43.083        3.434      344.085       20.656      867.607
05/01/2014  11:10:00       98.077      -94.996       15.729       90.181      155.195       77.686     8132.573    24085.403     6035.170        2.856        1.913      136.541       98.536        0.521      343.929       20.383      867.612
05/01/2014  11:11:00      113.533     -156.369      -11.507       98.406      109.954       53.285     9683.690    12089.921     2839.294        3.104        1.231      193.238       72.838        0.142      343.713       20.016      867.600
05/01/2014  11:12:00        6.658       56.401       74.074       48.309       44.486       44.599     2333.731     1979.008     1989.081        0.751        0.315       56.792       37.237        0.430      343.814       20.191      867.606
05/01/2014  11:13:00       84.955       49.863       35.044       57.786       81.542       50.768     3339.239     6649.090     2577.425        1.175        0.628       98.508       40.484        0.169      343.587       19.804      867.598
05/01/2014  11:14:00       17.784       10.848       18.808       55.541       38.452       29.710     3084.830     1478.553      882.679        0.312        0.272       20.832       19.751        0.899      344.110       20.696      867.582
05/01/2014  11:15:00       22.568       -3.085       15.440       31.599       30.476       32.400      998.470      928.796     1049.792        0.187        0.149       22.778       17.019        0.558      344.088       20.660      867.583
05/01/2014  11:16:00      136.458     -166.407      -29.956       61.678       78.907       38.636     3804.191     6226.381     1492.708        2.936        0.576      215.202       31.303        0.021      343.616       19.849      867.572
05/01/2014  11:17:00       44.051      -47.175       25.036       77.446       82.246       30.423     5997.949     6764.447      925.554        0.924        0.684       64.545       47.064        0.532      344.151       20.766      867.581
05/01/2014  11:18:00       -4.030       32.497       40.216       31.460       43.808       45.937      989.725     1919.100     2110.203        0.385        0.251       32.746       35.057        1.146      344.144       20.755      867.564
05/01/2014  11:19:00      126.347      114.049       86.906       63.345       46.144       35.672     4012.530     2129.285     1272.503        2.197        0.371      170.208       21.608        0.016      343.511       19.672      867.556
05/01/2014  11:20:00       65.860      -54.555       32.372       76.624       82.689       55.484     5871.185     6837.519     3078.457        1.207        0.789       85.521       51.425        0.362      344.262       20.956      867.553
05/01/2014  11:21:00       89.090        0.441       76.998       91.674       85.757       55.583     8404.042     7354.259     3089.467        1.635        0.942       89.091       62.416        0.491      344.280       20.989      867.553
05/01/2014  11:22:00      104.287      -30.428       13.757       77.371       70.112       46.307     5986.198     4915.654     2144.311        1.252        0.652      108.635       41.912        0.149      343.434       19.543      867.554
05/01/2014  11:23:00      151.893       71.978       39.044       78.039       55.817       54.928     6090.074     3115.536     3017.070        2.100        0.611      168.085       45.295        0.073      343.667       19.938      867.546
05/01/2014  11:24:00      132.026       55.628       45.288       88.245       55.512       57.319     7787.097     3081.589     3285.436        1.836        0.708      143.267       42.828        0.089      343.979       20.471      867.532
05/01/2014  11:25:00      126.898       82.195       -3.368       51.991       27.797       31.678     2703.057      772.674     1003.527        1.367        0.224      151.192       20.643        0.019      343.803       20.172      867.519
05/01/2014  11:26:00       79.216       77.407        9.797       45.296       26.098       36.006     2051.690      681.105     1296.432        0.820        0.201      110.756       20.020        0.033      343.986       20.484      867.512
05/01/2014  11:27:00       74.894      -10.967        5.109       71.037       95.569       40.022     5046.204     9133.365     1601.788        1.077        0.789       75.693       25.599        0.114      344.454       21.284      867.498
05/01/2014  11:28:00       56.944     -152.536      -14.990       41.379       78.241       35.578     1712.222     6121.613     1265.798        1.792        0.455      162.818       23.798        0.021      343.929       20.385      867.495
05/01/2014  11:29:00       -5.352        7.071       47.528       22.208       27.281       20.838      493.175      744.256      434.235        0.200        0.084        8.868       12.626        2.027      344.860       21.979      867.486
05/01/2014  11:30:00       59.042       19.607       37.506       56.415       59.966       41.202     3182.675     3595.885     1697.596        0.687        0.424       62.212       40.568        0.425      344.464       21.303      867.483
05/01/2014  11:31:00       43.334       -5.830       46.650       50.642       68.045       32.884     2564.630     4630.113     1081.368        0.618        0.414       43.725       36.434        0.694      344.402       21.196      867.478
05/01/2014  11:32:00       85.642       83.666       46.137       64.343       52.796       52.530     4140.015     2787.421     2759.358        1.307        0.484      119.727       36.415        0.093      344.103       20.684      867.477
05/01/2014  11:33:00       38.876       43.754       19.892       30.022       41.634       27.256      901.347     1733.418      742.897        0.360        0.169       58.530       11.179        0.036      344.162       20.785      867.477
05/01/2014  11:34:00        8.599      -27.870        1.194       47.628       39.344       27.455     2268.460     1547.936      753.776        0.271        0.229       29.166       22.344        0.587      343.998       20.505      867.469
05/01/2014  11:35:00       26.568      -37.974       24.586       48.755       54.620       33.408     2377.042     2983.321     1116.096        0.461        0.324       46.345       27.903        0.362      344.514       21.388      867.447
05/01/2014  11:36:00      134.994       78.684       24.369       75.822       73.264       37.791     5749.008     5367.598     1428.189        1.877        0.627      156.252       32.513        0.043      344.128       20.726      867.441
05/01/2014  11:37:00      169.303      111.727       29.593       94.585       60.648       55.044     8946.383     3678.240     3029.896        2.884        0.783      202.846       48.337        0.057      344.167       20.792      867.413
05/01/2014  11:38:00      276.890      218.846       37.850       88.655       56.038       71.519     7859.680     3140.269     5114.966        7.105        0.806      352.933       50.269        0.020      344.097       20.671      867.396
05/01/2014  11:39:00      154.994      141.799        3.835       69.924       75.326       61.116     4889.349     5674.036     3735.131        2.922        0.715      210.072       48.786        0.054      344.173       20.802      867.407
05/01/2014  11:40:00       88.176       97.392       80.774       69.151       46.689       49.893     4781.845     2179.897     2489.344        1.662        0.473      131.378       29.550        0.051      344.330       21.073      867.413
05/01/2014  11:41:00       54.885       35.760       59.078       59.209      100.666       63.408     3505.709    10133.725     4020.528        1.272        0.883       65.507       69.439        1.124      344.172       20.800      867.423
05/01/2014  11:42:00       90.607      -85.936       -7.519       50.965       48.480       34.963     2597.447     2350.287     1222.440        1.091        0.309      124.878       19.160        0.024      344.084       20.653      867.413
05/01/2014  11:43:00       38.548      -43.733       12.629       56.229       77.006       66.867     3161.744     5929.885     4471.188        0.856        0.678       58.297       48.070        0.680      344.619       21.566      867.408
05/01/2014  11:44:00       84.115     -200.326      -40.036      103.540       87.556       62.952    10720.582     7665.978     3962.900        3.557        1.117      217.269       66.474        0.094      344.459       21.291      867.405
05/01/2014  11:45:00       22.810      -64.123       10.041       71.346       97.622       53.185     5090.231     9530.143     2828.691        1.109        0.872       68.059       58.960        0.750      344.915       22.072      867.412
05/01/2014  11:46:00        8.418      -18.021        5.276       26.631       32.528       33.013      709.220     1058.096     1089.888        0.164        0.143       19.891       25.787        1.681      343.946       20.417      867.400
05/01/2014  11:47:00      -57.210      -56.182       -4.575       58.101       66.414       36.000     3375.697     4410.813     1295.999        0.776        0.454       80.183       42.230        0.277      344.259       20.951      867.395
05/01/2014  11:48:00     -114.283      -63.339      -16.535       44.916       66.133       24.919     2017.484     4373.602      620.958        1.218        0.351      130.661       22.397        0.029      344.131       20.732      867.368
05/01/2014  11:49:00      -37.770      -18.846        6.971       38.267       51.804       29.207     1464.339     2683.628      853.033        0.341        0.250       42.211       33.991        0.648      344.730       21.758      867.359
05/01/2014  11:50:00       15.255      -15.145       -3.630       37.304       35.545       32.347     1391.601     1263.428     1046.303        0.209        0.185       21.496       25.990        1.462      344.396       21.186      867.378
05/01/2014  11:51:00       50.881       54.966       38.636       61.701       61.894       54.469     3807.062     3830.866     2966.912        0.885        0.530       74.901       43.727        0.341      344.327       21.068      867.363
05/01/2014  11:52:00       51.872       20.448       26.317       50.242       38.455       31.369     2524.249     1478.813      984.030        0.439        0.249       55.757       18.001        0.104      344.731       21.756      867.357
05/01/2014  11:53:00       -1.497       24.555       62.823       40.181       46.522       45.831     1614.480     2164.328     2100.500        0.521        0.294       24.601       31.905        1.682      344.784       21.849      867.326
05/01/2014  11:54:00       15.032      -13.392       30.089       55.301       58.528       42.973     3058.246     3425.579     1846.709        0.482        0.417       20.132       30.956        2.364      344.465       21.303      867.315
05/01/2014  11:55:00        6.463       -2.715       17.732       87.015       78.005       45.532     7571.542     6084.845     2073.130        0.804        0.786        7.010       41.985       35.873      344.634       21.591      867.294
05/01/2014  11:56:00       36.718      -76.187       44.238       59.386      137.465       70.108     3526.755    18896.584     4915.189        1.822        1.367       84.574       75.510        0.797      345.128       22.437      867.264
05/01/2014  11:57:00       62.857      -10.761       76.796       93.685      102.769       62.575     8776.827    10561.454     3915.617        1.660        1.163       63.772       54.214        0.723      345.105       22.398      867.280
05/01/2014  11:58:00        3.021       -6.369       77.595       28.665       78.116       33.134      821.678     6102.142     1097.882        0.704        0.401        7.049       17.295        6.020      345.413       22.926      867.272
05/01/2014  11:59:00       44.878       23.196       63.551       46.530       63.207       39.930     2165.070     3995.100     1594.398        0.717        0.388       50.518       38.412        0.578      345.258       22.660      867.267
05/01/2014  12:00:00       89.927       87.140       29.854       58.768       56.710       50.473     3453.722     3215.991     2547.507        1.289        0.461      125.221       35.062        0.078      344.623       21.572      867.258
05/01/2014  12:01:00       51.617      -20.717       23.079       66.549       77.991       41.976     4428.704     6082.564     1761.968        0.795        0.614       55.619       39.874        0.514      344.875       22.005      867.235
05/01/2014  12:02:00       98.661      -76.105       16.883       78.753       90.228       59.123     6202.047     8141.181     3495.473        1.682        0.892      124.604       62.542        0.252      344.664       21.643      867.230
05/01/2014  12:03:00      198.695       89.537       50.815      160.569       88.758       64.524    25782.501     7877.897     4163.354        4.394        1.891      217.937       62.369        0.082      344.661       21.637      867.218
05/01/2014  12:04:00      110.558       89.324       24.232      101.193       80.427       52.887    10240.068     6468.429     2797.006        2.014        0.975      142.133       47.523        0.112      344.910       22.063      867.204
05/01/2014  12:05:00       99.617       43.768       41.668       98.462       77.899       56.347     9694.704     6068.205     3174.970        1.625        0.947      108.808       34.379        0.100      345.144       22.463      867.199
05/01/2014  12:06:00       63.793       25.967       13.689       47.729       46.348       26.122     2278.060     2148.178      682.355        0.502        0.255       68.875       16.983        0.061      344.951       22.135      867.197
05/01/2014  12:07:00      144.570       87.035       73.307      114.118       60.075       59.241    13023.026     3608.963     3509.539        2.699        1.007      168.747       56.905        0.114      344.992       22.204      867.158
05/01/2014  12:08:00       58.040      118.591      108.729       75.291       91.632       60.779     5668.809     8396.492     3694.034        2.350        0.888      132.032       55.041        0.174      344.701       21.705      867.143
05/01/2014  12:09:00      213.220       79.228       34.170      105.922       74.040       48.601    11219.536     5481.995     2362.084        3.598        0.953      227.464       39.083        0.030      344.691       21.687      867.132
05/01/2014  12:10:00       -1.966      -28.879       21.702       35.601       33.772       23.944     1267.444     1140.542      573.293        0.214        0.149       28.946       14.004        0.234      345.018       22.249      867.112
05/01/2014  12:11:00       92.314       48.692       32.166       76.444       48.401       43.643     5843.672     2342.641     1904.696        1.101        0.505      104.368       39.401        0.143      344.837       21.939      867.088
05/01/2014  12:12:00      101.962       43.169       28.028       80.194       76.665       51.901     6431.025     5877.547     2693.689        1.402        0.750      110.724       37.015        0.112      345.446       22.982      867.072
05/01/2014  12:13:00      122.757       93.608       30.907       92.517       52.359       61.652     8559.343     2741.465     3800.951        1.994        0.755      154.376       28.074        0.033      345.230       22.610      867.063
05/01/2014  12:14:00       58.902      111.505      112.529       64.032       59.234       48.090     4100.082     3508.615     2312.655        1.924        0.496      126.106       24.324        0.037      345.286       22.708      867.055
05/01/2014  12:15:00      104.298       81.055        9.888       51.117       54.779       33.514     2612.978     3000.775     1123.214        1.214        0.337      132.091       15.660        0.014      344.846       21.954      867.046
05/01/2014  12:16:00      -25.012      -21.853       23.604       46.018       54.387       32.260     2117.642     2957.970     1040.695        0.389        0.306       33.214       33.161        0.997      345.699       23.417      867.058
05/01/2014  12:17:00        7.502      -56.844       22.473       52.694       53.028       44.941     2776.622     2812.011     2019.717        0.570        0.380       57.337       38.542        0.452      345.394       22.892      867.054
05/01/2014  12:18:00      -91.931      -33.354        4.756       91.675       78.382       44.672     8404.358     6143.798     1995.613        1.306        0.827       97.795       47.559        0.237      345.062       22.325      867.014
05/01/2014  12:19:00      -81.087        2.247        3.571       76.868       51.911       42.955     5908.680     2694.708     1845.149        0.852        0.522       81.119       35.709        0.194      344.939       22.114      866.992
05/01/2014  12:20:00       17.890      -44.406       18.340       63.842       86.864       49.056     4075.857     7545.272     2406.518        0.833        0.701       47.874       37.146        0.602      345.459       23.005      866.972
05/01/2014  12:21:00       20.597       59.792       11.766       42.350       63.216       44.479     1793.535     3996.260     1978.420        0.595        0.388       63.240       29.992        0.225      345.134       22.448      866.950
05/01/2014  12:22:00       65.669       76.495        6.015       57.950       60.451       48.167     3358.150     3654.351     2320.043        0.976        0.467      100.816       37.915        0.141      345.055       22.313      866.921
05/01/2014  12:23:00        2.369       -4.223       26.105       38.351       56.745       40.497     1470.827     3219.952     1640.042        0.352        0.317        4.842       28.133       33.756      345.890       23.745      866.901
05/01/2014  12:24:00       34.917       60.609       94.328       54.674       61.651       42.408     2989.267     3800.808     1798.458        1.119        0.429       69.947       45.526        0.424      345.755       23.512      866.907
05/01/2014  12:25:00       97.747      -61.629       44.457       95.072      124.857       76.779     9038.777    15589.378     5894.940        2.292        1.526      115.554       85.758        0.551      345.980       23.897      866.911
05/01/2014  12:26:00      120.658      -77.571       39.911      100.454       99.237       74.261    10091.064     9847.974     5514.657        2.381        1.273      143.442       63.771        0.198      345.554       23.166      866.891
05/01/2014  12:27:00       96.938     -166.940      -37.563       71.174       84.511       46.247     5065.753     7142.048     2138.820        2.651        0.717      193.044       40.889        0.045      345.354       22.822      866.895
05/01/2014  12:28:00       80.193     -177.528      -31.255       71.166       62.979       42.959     5064.546     3966.298     1845.445        2.490        0.544      194.800       21.875        0.013      345.113       22.410      866.873
05/01/2014  12:29:00       25.958     -104.572       13.837       79.138      101.654       65.531     6262.751    10333.564     4294.357        1.634        1.045      107.745       44.719        0.172      345.469       23.019      866.857
05/01/2014  12:30:00      108.068      -93.540        7.945      135.013      152.831       83.906    18228.437    23357.228     7040.259        3.455        2.431      142.928      119.705        0.701      345.530       23.125      866.865
05/01/2014  12:31:00      200.281     -219.491      -37.386       81.638       92.871       49.360     6664.689     8625.026     2436.444        5.370        0.886      297.134       47.324        0.025      345.167       22.501      866.838
05/01/2014  12:32:00      102.522     -107.865       11.693       79.174       95.295       45.390     6268.582     9081.214     2060.262        1.984        0.871      148.814       54.587        0.135      345.375       22.860      866.856
05/01/2014  12:33:00      152.906      -14.663       74.015      129.029      147.425       78.303    16648.513    21734.256     6131.379        3.678        2.226      153.607       92.799        0.365      345.693       23.403      866.821
05/01/2014  12:34:00      176.876       68.176       71.638      113.301      116.227       77.591    12837.153    13508.768     6020.360        3.671        1.618      189.560       53.642        0.080      345.506       23.081      866.787
05/01/2014  12:35:00      103.448     -110.572       42.222      108.082      131.148       84.664    11681.713    17199.776     7168.039        3.037        1.802      151.418       80.046        0.279      345.686       23.392      866.777
05/01/2014  12:36:00      154.942      -81.190       53.600      130.285      174.566      112.588    16974.309    30473.175    12675.974        4.679        3.006      174.925      138.244        0.625      345.546       23.152      866.754
05/01/2014  12:37:00      108.627      156.841      144.429      117.984       97.307       82.999    13920.223     9468.567     6888.892        4.376        1.514      190.785       65.649        0.118      345.593       23.232      866.752
05/01/2014  12:38:00       96.992       96.136      104.018       80.880       76.918       64.301     6541.502     5916.307     4134.557        2.303        0.830      136.564       56.344        0.170      345.432       22.956      866.769
05/01/2014  12:39:00       84.699       33.929       53.568       52.788       73.827       39.670     2786.605     5450.456     1573.714        1.050        0.491       91.242       39.334        0.186      345.781       23.555      866.741
05/01/2014  12:40:00       75.182       30.566       99.930      100.878       68.840       62.076    10176.419     4738.974     3853.424        1.767        0.938       81.158       48.642        0.359      346.135       24.165      866.730
05/01/2014  12:41:00      164.932       71.730       57.811       75.887       68.052       48.628     5758.794     4631.055     2364.683        2.422        0.638      179.855       32.446        0.033      345.492       23.058      866.732
05/01/2014  12:42:00      109.324       22.282       59.522       63.268       83.150       55.651     4002.814     6913.860     3097.045        1.500        0.701      111.572       52.891        0.225      345.921       23.796      866.701
05/01/2014  12:43:00       88.044       88.460       98.294       85.855       91.328       74.912     7371.049     8340.731     5611.842        2.328        1.066      124.807       59.745        0.229      345.904       23.766      866.686
05/01/2014  12:44:00       81.815       45.833       35.275       63.598       75.759       37.842     4044.746     5739.491     1432.009        1.063        0.561       93.778       16.253        0.030      345.621       23.283      866.672
05/01/2014  12:45:00      112.895      157.643      141.781       92.613      102.323       73.636     8577.195    10469.902     5422.309        4.108        1.223      193.898       74.634        0.148      345.928       23.807      866.650
05/01/2014  12:46:00       74.781       36.549       71.006       90.217      128.088       77.801     8139.086    16406.630     6053.030        2.128        1.530       83.235       75.526        0.823      345.962       23.865      866.614
05/01/2014  12:47:00       57.377      -54.562       72.649       92.254      151.826       80.421     8510.793    23051.095     6467.523        2.478        1.901       79.178      102.368        1.672      346.381       24.586      866.612
05/01/2014  12:48:00       41.585      -72.621        2.308       53.125       48.365       38.036     2822.309     2339.167     1446.728        0.681        0.330       83.684       31.833        0.145      345.987       23.910      866.633
05/01/2014  12:49:00      -21.247        4.423       23.383       31.110       32.672       25.129      967.851     1067.432      631.453        0.184        0.133       21.702       19.667        0.821      346.610       24.982      866.614
05/01/2014  12:50:00       75.249      -50.264       -4.546       63.451      123.077       46.537     4026.048    15148.053     2165.713        1.477        1.067       90.492       47.411        0.274      346.117       24.133      866.596
05/01/2014  12:51:00      154.345      102.574       88.316      130.495       89.149       69.647    17028.828     7947.501     4850.647        3.598        1.491      185.321       61.304        0.109      346.117       24.131      866.576
05/01/2014  12:52:00      112.184       96.743       59.830      106.129       68.691       62.951    11263.296     4718.408     3962.858        2.273        0.997      148.137       59.401        0.161      345.916       23.787      866.545
05/01/2014  12:53:00      141.887      135.188       72.203      123.138       98.999       95.798    15162.914     9800.841     9177.177        3.887        1.707      195.979       48.605        0.062      345.823       23.626      866.504
05/01/2014  12:54:00      155.684      162.362      128.011      142.179      134.914      131.577    20214.995    18201.896    17312.549        6.135        2.786      224.942      103.441        0.211      345.722       23.453      866.463
05/01/2014  12:55:00       23.251       70.492      112.821       90.786      100.101       65.386     8242.057    10020.125     4275.355        2.038        1.127       74.227       50.478        0.462      346.426       24.665      866.473
05/01/2014  12:56:00      127.532       97.703       78.315       89.665       68.269       78.041     8039.807     4660.701     6090.465        2.536        0.940      160.656       66.082        0.169      346.018       23.961      866.478
05/01/2014  12:57:00      162.477       90.673       40.381       67.460       45.717       47.501     4550.794     2090.020     2256.300        2.257        0.445      186.066       25.032        0.018      345.526       23.117      866.463
05/01/2014  12:58:00       59.811       26.463       94.854      118.224      139.026       94.337    13976.881    19328.275     8899.376        2.773        2.110       65.404       92.427        1.997      346.166       24.215      866.456
05/01/2014  12:59:00       64.073       69.240      125.014       69.062       82.451       50.473     4769.527     6798.249     2547.499        1.932        0.706       94.337       48.815        0.268      345.998       23.929      866.475
05/01/2014  13:00:00       55.553        0.726       34.828       40.782       81.336       59.397     1663.190     6615.566     3528.010        0.805        0.590       55.557       60.082        1.170      345.704       23.423      866.464
05/01/2014  13:01:00       28.896       12.632        3.794       30.661       38.741       30.204      940.078     1500.887      912.285        0.218        0.168       31.536       18.389        0.340      345.604       23.254      866.427
05/01/2014  13:02:00      -26.234       -9.716       31.871       41.231       45.933       29.305     1699.962     2109.877      858.797        0.323        0.233       27.976       31.649        1.280      346.118       24.137      866.385
05/01/2014  13:03:00      -34.485        8.453        1.605       44.339       38.828       27.984     1965.986     1507.584      783.125        0.276        0.213       35.506       27.696        0.608      346.265       24.390      866.364
05/01/2014  13:04:00       -4.856      -63.938      -11.924       39.623       26.807       23.501     1570.013      718.630      552.276        0.355        0.142       64.122        6.495        0.010      346.088       24.084      866.364
05/01/2014  13:05:00       -5.163       -8.531       18.383       25.532       25.225       21.707      651.869      636.278      471.189        0.110        0.088        9.972       16.514        2.742      347.019       25.685      866.350
05/01/2014  13:06:00      -23.541      -36.279       11.683       48.515       39.095       36.335     2353.713     1528.439     1320.217        0.360        0.260       43.247       20.963        0.235      346.425       24.663      866.329
05/01/2014  13:07:00      -61.396      -58.947       -6.702       47.081       65.276       32.673     2216.643     4261.005     1067.530        0.742        0.377       85.113       20.979        0.061      345.735       23.479      866.338
05/01/2014  13:08:00      -31.653       23.095       10.466       69.145       33.004       27.117     4780.970     1089.292      735.342        0.412        0.330       39.183       17.547        0.201      346.204       24.285      866.316
05/01/2014  13:09:00        3.073       37.430       56.046       47.009       41.653       42.605     2209.818     1734.958     1815.180        0.515        0.288       37.556       20.713        0.304      346.657       25.062      866.301
05/01/2014  13:10:00      -40.641       19.688       30.957       50.909       34.243       37.923     2591.723     1172.611     1438.139        0.410        0.260       45.158       26.858        0.354      346.765       25.249      866.286
05/01/2014  13:11:00      -91.585      -18.105        2.312       57.766       40.280       25.621     3336.900     1622.462      656.428        0.717        0.281       93.358       22.950        0.060      346.468       24.737      866.280
05/01/2014  13:12:00      -48.059       26.881       19.921       61.213       32.008       33.189     3747.067     1024.540     1101.495        0.465        0.294       55.066       35.820        0.423      346.812       25.329      866.262
05/01/2014  13:13:00       83.932       67.691       54.458      101.653       49.579       52.099    10333.379     2458.122     2714.271        1.505        0.775      107.827       34.265        0.101      346.381       24.588      866.242
05/01/2014  13:14:00       31.385        7.417        7.923       56.344       89.101       37.766     3174.699     7938.959     1426.290        0.682        0.627       32.249       39.816        1.524      346.234       24.336      866.234
05/01/2014  13:15:00       17.493       -6.868       -1.434       55.223       52.232       46.952     3049.566     2728.213     2204.522        0.417        0.399       18.793       37.355        3.951      346.493       24.780      866.232
05/01/2014  13:16:00      -18.588      -66.021      -10.929       51.827       44.203       22.311     2686.079     1953.865      497.793        0.498        0.257       68.588       15.661        0.052      346.156       24.200      866.213
05/01/2014  13:17:00       44.526      -78.128       -7.071       43.482       46.834       34.564     1890.695     2193.435     1194.654        0.671        0.264       89.925       30.807        0.117      346.232       24.333      866.206
05/01/2014  13:18:00       52.127       49.000       67.920       67.425       61.067       49.393     4546.152     3729.218     2439.639        1.022        0.536       71.541       47.471        0.440      346.894       25.469      866.186
05/01/2014  13:19:00      184.624      123.121       55.984       81.459       77.443       67.542     6635.520     5997.480     4561.896        3.478        0.860      221.911       57.711        0.068      345.970       23.878      866.178
05/01/2014  13:20:00      134.439      102.473       83.538      106.243       69.611       66.356    11287.477     4845.700     4403.122        2.804        1.027      169.041       68.570        0.165      346.040       23.998      866.141
05/01/2014  13:21:00       81.925        7.113       16.775       92.136      117.731       48.997     8488.975    13860.505     2400.710        1.589        1.238       82.233       18.186        0.049      346.235       24.335      866.129
05/01/2014  13:22:00       43.361      -37.024        0.560       54.109       48.610       35.312     2927.753     2362.887     1246.943        0.489        0.327       57.017       34.220        0.360      346.331       24.502      866.104
05/01/2014  13:23:00       33.462       71.070       82.637       59.953       51.417       41.936     3594.322     2643.715     1758.613        1.050        0.400       78.554       41.324        0.277      346.717       25.165      866.101
05/01/2014  13:24:00       52.107       -9.928       34.807       60.165       54.804       41.370     3619.775     3003.507     1711.492        0.618        0.417       53.044       26.330        0.246      346.727       25.182      866.101
05/01/2014  13:25:00       22.526       16.835       25.943       46.028       69.695       50.713     2118.606     4857.382     2571.840        0.550        0.477       28.122       40.115        2.035      347.023       25.691      866.094
05/01/2014  13:26:00       59.385     -140.981      -15.877       58.703       77.891       34.745     3446.093     6066.996     1207.183        1.719        0.536      152.978       34.266        0.050      346.431       24.671      866.091
05/01/2014  13:27:00       31.181       91.762      110.860       71.613       58.800       54.370     5128.432     3457.396     2956.094        1.661        0.577       96.915       35.838        0.137      346.711       25.154      866.091
05/01/2014  13:28:00      136.698      112.007       49.856       53.967       41.035       46.962     2912.416     1683.885     2205.440        2.026        0.340      176.726       28.226        0.026      346.190       24.257      866.080
05/01/2014  13:29:00      100.783       49.720       36.504       53.851       46.396       36.890     2899.895     2152.570     1360.886        1.019        0.321      112.380       18.889        0.028      346.225       24.320      866.076
05/01/2014  13:30:00       11.545      -83.198       -8.608       43.839       42.264       22.805     1921.872     1786.250      520.052        0.568        0.211       83.995       11.104        0.017      346.173       24.231      866.059
05/01/2014  13:31:00       14.876      -11.382       17.664       40.351       72.087       34.764     1628.229     5196.574     1208.513        0.435        0.402       18.731       12.711        0.460      346.851       25.397      866.057
05/01/2014  13:32:00       72.499     -101.407       32.917       86.636      115.228       61.084     7505.760    13277.485     3731.225        2.056        1.226      124.657       63.381        0.259      346.729       25.185      866.038
05/01/2014  13:33:00       75.118     -148.229        5.771       86.365      132.779       57.408     7458.947    17630.380     3295.677        2.801        1.419      166.177       72.692        0.191      346.437       24.681      866.035
05/01/2014  13:34:00      130.749      -64.034       49.080       94.785      181.547      101.835     8984.248    32959.307    10370.270        3.795        2.616      145.587      130.052        0.798      346.423       24.656      866.038
05/01/2014  13:35:00       39.289      -92.068       12.012       63.009      136.384       58.463     3970.131    18600.501     3417.888        1.807        1.299      100.101       72.137        0.519      346.379       24.582      866.081
05/01/2014  13:36:00      -15.655      -34.207       31.335       56.123       47.666       36.882     3149.788     2272.011     1360.280        0.459        0.339       37.619       31.894        0.719      346.574       24.919      866.065
05/01/2014  13:37:00      -69.608      -92.885      -13.098       65.579       49.167       26.205     4300.631     2417.442      686.712        1.052        0.370      116.072       17.209        0.022      346.037       23.995      866.062
05/01/2014  13:38:00      -73.335      -38.060        1.589       63.938       52.888       27.255     4088.120     2797.090      742.831        0.723        0.381       82.623       26.282        0.101      346.495       24.784      866.030
05/01/2014  13:39:00     -172.221      -38.812      -16.187       44.313       59.697       36.105     1963.626     3563.784     1303.569        1.913        0.342      176.540       27.265        0.024      346.225       24.319      866.012
05/01/2014  13:40:00     -139.669      -90.911      -19.782       54.242       57.432       32.141     2942.144     3298.431     1033.016        1.772        0.364      166.650       20.152        0.015      346.117       24.132      866.004
05/01/2014  13:41:00      -38.286      -49.511        9.818       82.571       53.393       46.368     6818.047     2850.828     2150.029        0.791        0.591       62.587       40.491        0.419      346.436       24.683      865.979
05/01/2014  13:42:00      -35.937      -25.044       -3.192       62.521       60.393       26.477     3908.839     3647.314      701.035        0.509        0.413       43.803       23.677        0.292      346.609       24.980      865.964
05/01/2014  13:43:00       -9.827       11.072       12.508       52.407       25.255       20.955     2746.495      637.798      439.103        0.210        0.191       14.804       27.355        3.414      346.774       25.264      865.966
05/01/2014  13:44:00       -3.642       -5.302        4.211       30.662       40.722       35.361      940.149     1658.292     1250.406        0.195        0.192        6.433       29.175       20.569      346.967       25.595      865.957
05/01/2014  13:45:00       78.690      -41.547       16.802       50.518       65.277       46.154     2552.119     4261.047     2130.203        0.857        0.447       88.985       42.365        0.227      346.911       25.499      865.957
05/01/2014  13:46:00       48.211        5.012       52.553       60.923       87.418       71.315     3711.552     7641.940     5085.759        1.077        0.822       48.471       72.773        2.254      346.799       25.307      865.955
05/01/2014  13:47:00       53.414      -59.907       13.639       61.142       93.045       45.719     3738.289     8657.309     2090.217        1.055        0.724       80.261       51.074        0.405      346.730       25.187      865.946
05/01/2014  13:48:00       76.536       28.899       26.547       47.872       81.478       51.816     2291.715     6638.585     2684.896        0.950        0.581       81.810       49.259        0.363      346.651       25.053      865.932
05/01/2014  13:49:00       53.703       54.762       67.413       59.612       48.971       51.650     3553.618     2398.191     2667.773        0.952        0.431       76.700       42.128        0.302      346.854       25.401      865.921
05/01/2014  13:50:00       58.727      114.023      110.033       88.022       73.770       46.968     7747.924     5441.977     2206.004        2.197        0.770      128.258       41.135        0.103      346.914       25.504      865.889
05/01/2014  13:51:00       37.188      -46.461       25.626       81.890       82.318       53.027     6706.014     6776.320     2811.812        1.024        0.815       59.511       43.669        0.538      346.846       25.385      865.892
05/01/2014  13:52:00      -34.479        6.903       -6.326       29.558       35.453       24.839      873.652     1256.884      616.992        0.201        0.137       35.164       21.556        0.376      346.719       25.169      865.872
05/01/2014  13:53:00      -17.472       14.501       -1.986       43.040       27.410       35.596     1852.461      751.282     1267.072        0.219        0.194       22.706       18.720        0.680      347.221       26.034      865.863
05/01/2014  13:54:00       29.618      -87.167       -3.779       64.842       43.422       34.836     4204.430     1885.473     1213.576        0.790        0.365       92.062       22.574        0.060      346.859       25.410      865.837
05/01/2014  13:55:00      -85.084     -107.539        3.544       60.923       60.219       27.985     3711.631     3626.350      783.151        1.347        0.406      137.127       36.092        0.069      346.467       24.734      865.850
05/01/2014  13:56:00       -5.150      -37.571       -0.381       48.059       45.237       23.933     2309.637     2046.380      572.791        0.318        0.246       37.922       23.325        0.378      346.844       25.385      865.856
05/01/2014  13:57:00      -63.953      -51.860       -5.335       88.576       53.504       27.679     7845.620     2862.652      766.102        0.914        0.574       82.338       26.258        0.102      346.698       25.134      865.854
05/01/2014  13:58:00       -6.646      -41.077       19.927       51.513       47.703       35.655     2653.592     2275.557     1271.279        0.416        0.310       41.611       32.830        0.622      346.936       25.543      865.844
05/01/2014  13:59:00       17.041       14.674       56.764       49.525       78.907       52.192     2452.716     6226.338     2724.020        0.756        0.570       22.488       43.403        3.725      347.296       26.161      865.827
05/01/2014  14:00:00       19.067       29.749       51.963       33.554       37.970       35.476     1125.854     1441.732     1258.556        0.389        0.191       35.335       21.442        0.368      347.019       25.686      865.835
05/01/2014  14:01:00       28.961       49.189       14.861       41.074       22.254       24.966     1687.078      495.247      623.303        0.314        0.140       57.082       17.516        0.094      346.670       25.085      865.828
05/01/2014  14:02:00       41.057     -119.400       -4.285       83.272      113.127       60.464     6934.165    12797.658     3655.903        1.967        1.169      126.262       50.694        0.161      346.933       25.535      865.821
05/01/2014  14:03:00      101.806     -106.569       11.041      104.172      130.359       84.961    10851.736    16993.420     7218.426        2.845        1.753      147.382       96.031        0.425      346.808       25.321      865.788
05/01/2014  14:04:00       60.165     -146.067      -14.634       82.101       85.856       73.508     6740.632     7371.232     5403.353        2.234        0.976      157.973       50.830        0.104      346.620       24.996      865.784
05/01/2014  14:05:00      137.506     -143.652       14.253       76.345      130.852       79.332     5828.581    17122.363     6293.591        3.449        1.462      198.856       83.021        0.174      346.654       25.054      865.764
05/01/2014  14:06:00       44.206     -107.599       10.904       67.176      133.870       80.665     4512.605    17921.099     6506.794        2.129        1.447      116.326       84.529        0.528      346.967       25.592      865.744
05/01/2014  14:07:00       95.265     -253.740      -18.767       49.803       56.216       35.704     2480.322     3160.197     1274.754        4.036        0.346      271.034        6.738        0.001      346.315       24.469      865.769
05/01/2014  14:08:00       83.713     -143.492        2.200       60.322       79.453       56.157     3638.691     6312.713     3153.615        2.035        0.655      166.126       54.154        0.106      346.493       24.779      865.774
05/01/2014  14:09:00      -42.897     -126.579      -20.830       59.893       72.838       48.272     3587.139     5305.420     2330.211        1.476        0.561      133.651       36.081        0.073      346.997       25.646      865.751
05/01/2014  14:10:00        1.272       18.633       59.416       32.652       66.285       33.020     1066.159     4393.731     1090.288        0.521        0.328       18.677       36.841        3.891      347.181       25.965      865.744
05/01/2014  14:11:00      -36.714      -82.943        8.721       53.909       91.443       30.942     2906.168     8361.755      957.415        1.026        0.611       90.705       38.925        0.184      346.948       25.562      865.748
05/01/2014  14:12:00      -59.251      -32.952      -29.337       47.792       30.515       24.565     2284.100      931.137      603.463        0.464        0.191       67.797       20.784        0.094      346.323       24.487      865.757
05/01/2014  14:13:00      -50.815       34.505      -21.072       28.085       39.523       22.451      788.794     1562.049      504.031        0.354        0.143       61.423       19.292        0.099      346.402       24.622      865.752
05/01/2014  14:14:00       26.376       98.433      -35.966       58.792       46.797       32.839     3456.555     2189.995     1078.419        0.920        0.336      101.906       34.849        0.117      346.382       24.589      865.760
05/01/2014  14:15:00      -65.204       79.183      -23.073       32.070       45.523       23.692     1028.458     2072.369      561.322        0.736        0.183      102.575       11.972        0.014      346.451       24.708      865.745
05/01/2014  14:16:00      -70.167       40.616       -3.980       46.845       54.494       31.037     2194.417     2969.592      963.311        0.636        0.306       81.074       19.516        0.058      346.839       25.375      865.727
05/01/2014  14:17:00      -98.419      -35.996        4.234       64.885       58.702       34.056     4210.104     3445.951     1159.838        0.991        0.441      104.795       34.006        0.105      346.969       25.599      865.710
05/01/2014  14:18:00      -59.087      -72.178        1.815       85.829       54.539       35.249     7366.635     2974.449     1242.492        1.014        0.579       93.279       34.230        0.135      346.863       25.416      865.706
05/01/2014  14:19:00     -100.942      -95.462       -7.895       82.745       69.326       34.192     6846.680     4806.100     1169.085        1.609        0.641      138.932       43.488        0.098      346.737       25.199      865.704
05/01/2014  14:20:00      -62.687       34.418       -8.105       54.342       44.870       41.392     2953.000     2013.273     1713.296        0.593        0.334       71.514       29.202        0.167      346.772       25.261      865.712
05/01/2014  14:21:00      -13.026      -35.024       -3.436       30.510       38.917       24.359      930.860     1514.532      593.348        0.222        0.152       37.368       18.987        0.258      346.643       25.039      865.691
05/01/2014  14:22:00      -44.424      -73.832        2.488       55.464       54.359       26.164     3076.271     2954.906      684.538        0.707        0.336       86.167       27.792        0.104      347.008       25.666      865.661
05/01/2014  14:23:00      -97.670      -96.927       -2.722       59.531       55.787       38.516     3543.895     3112.176     1483.500        1.354        0.407      137.602       40.496        0.087      346.719       25.169      865.658
05/01/2014  14:24:00      -77.163      -73.684        0.896       53.208       39.818       30.224     2831.104     1585.474      913.500        0.836        0.267      106.693       29.721        0.078      346.924       25.522      865.659
05/01/2014  14:25:00      -63.832      -77.796        2.683       54.087       42.766       29.800     2925.435     1828.937      888.053        0.789        0.282      100.632       30.226        0.090      346.830       25.360      865.654
05/01/2014  14:26:00       -9.309      -30.643       16.998       49.867       63.516       35.476     2486.707     4034.321     1258.555        0.455        0.389       32.026       35.809        1.250      347.071       25.775      865.638
05/01/2014  14:27:00        6.158      -33.308       18.068       35.358       72.110       50.436     1250.171     5199.831     2543.777        0.523        0.450       33.873       51.617        2.322      347.096       25.819      865.621
05/01/2014  14:28:00      -84.021      -36.945       -4.291       57.249       26.805       22.770     3277.440      718.500      518.465        0.648        0.226       91.785       25.980        0.080      346.860       25.410      865.616
05/01/2014  14:29:00      -45.045      -14.976       -7.483       39.155       20.712       21.133     1533.116      429.005      446.592        0.236        0.120       47.469       22.886        0.232      346.812       25.330      865.615
05/01/2014  14:30:00       -0.563      -60.207       16.837       37.846       32.509       32.526     1432.352     1056.832     1057.945        0.373        0.177       60.210       19.086        0.100      347.288       26.148      865.601
05/01/2014  14:31:00      -87.235      -69.800        0.372       53.509       43.241       30.694     2863.173     1869.770      942.150        0.908        0.284      111.723       21.924        0.039      346.773       25.261      865.602
05/01/2014  14:32:00      -11.605     -113.917       -6.544       47.864       71.235       34.031     2290.983     5074.416     1158.132        1.084        0.426      114.507       19.727        0.030      346.790       25.291      865.609
05/01/2014  14:33:00       -8.413      -59.537        4.384       43.858       40.076       34.055     1923.522     1606.082     1159.729        0.416        0.234       60.129       27.759        0.213      347.151       25.914      865.614
05/01/2014  14:34:00      -25.707     -112.987       -9.344       42.397       54.839       41.492     1797.507     3007.358     1721.623        1.002        0.326      115.875       32.723        0.080      347.050       25.738      865.592
05/01/2014  14:35:00       38.093      -54.034       15.910       51.142       67.965       48.842     2615.458     4619.232     2385.514        0.712        0.481       66.111       47.461        0.515      347.326       26.215      865.592
05/01/2014  14:36:00       16.945      -60.050       15.006       33.485       52.757       44.980     1121.223     2783.250     2023.240        0.502        0.296       62.395       19.764        0.100      347.218       26.029      865.605
05/01/2014  14:37:00       24.281      -12.812       52.200       28.704       41.667       27.496      823.930     1736.126      756.056        0.340        0.166       27.453       18.539        0.456      347.227       26.045      865.610
05/01/2014  14:38:00       13.506      -26.819        9.277       37.695       76.889       35.993     1420.887     5911.930     1295.474        0.481        0.431       30.028       47.929        2.548      347.159       25.927      865.590
05/01/2014  14:39:00        9.960      -27.723       31.920       41.324       49.322       33.498     1707.687     2432.699     1122.098        0.357        0.263       29.458       36.428        1.529      347.447       26.422      865.591
05/01/2014  14:40:00       41.921      -24.139       50.568       61.538      102.064       71.892     3786.946    10417.018     5168.439        1.213        0.969       48.374       68.634        2.013      347.314       26.194      865.576
05/01/2014  14:41:00       47.932       62.122       70.142       66.126       67.716       55.926     4372.685     4585.402     3127.747        1.158        0.604       78.464       51.690        0.434      347.136       25.888      865.560
05/01/2014  14:42:00       84.551     -107.572       -8.325       52.718       69.242       50.410     2779.138     4794.494     2541.193        1.445        0.506      136.823       42.365        0.096      346.782       25.278      865.567
05/01/2014  14:43:00       34.026     -154.950      -11.184       50.030       48.374       40.395     2503.037     2340.001     1631.733        1.588        0.324      158.642        9.034        0.003      346.713       25.158      865.547
05/01/2014  14:44:00      -23.223      -60.919      -17.767       45.707       53.010       28.068     2089.149     2810.047      787.805        0.513        0.284       65.195       27.393        0.177      346.649       25.049      865.529
05/01/2014  14:45:00       25.400       22.451        2.205       50.485       24.776       28.147     2548.725      613.845      792.277        0.255        0.198       33.900       17.312        0.261      346.856       25.405      865.511
05/01/2014  14:46:00       84.548       70.907        3.203       17.182       26.819       22.849      295.233      719.255      522.100        0.686        0.077      110.346       12.035        0.012      346.644       25.042      865.496
05/01/2014  14:47:00       25.551       36.074       18.399       25.534       28.150       28.746      651.982      792.413      826.342        0.228        0.114       44.207       24.421        0.305      347.140       25.893      865.476
05/01/2014  14:48:00      -10.691       27.955       24.626       67.346       29.779       28.042     4535.425      886.775      786.366        0.385        0.310       29.930       35.910        1.440      347.354       26.263      865.459
05/01/2014  14:49:00      -93.660      -26.131        4.073       64.265       58.123       28.572     4129.935     3378.228      816.377        0.890        0.416       97.237       23.419        0.058      347.379       26.305      865.438
05/01/2014  14:50:00     -127.966      -43.850        9.841       68.744       55.027       29.239     4725.766     3027.936      854.894        1.350        0.430      135.271       31.779        0.055      347.361       26.275      865.414
05/01/2014  14:51:00     -112.701       -5.039       -7.467       43.001       44.322       23.089     1849.048     1964.471      533.113        0.856        0.217      112.814       22.725        0.041      347.102       25.827      865.404
05/01/2014  14:52:00      -64.664       18.719       10.889       63.017       34.966       30.225     3971.197     1222.601      913.529        0.538        0.305       67.319       33.257        0.244      347.591       26.672      865.375
05/01/2014  14:53:00     -125.368       18.144      -18.521       50.827       32.474       23.358     2583.340     1054.539      545.606        1.029        0.209      126.674       25.313        0.040      347.074       25.780      865.365
05/01/2014  14:54:00      -94.278        1.708       -4.492       32.868       38.000       23.621     1080.288     1444.029      557.967        0.600        0.154       94.293       18.918        0.040      347.264       26.107      865.354
05/01/2014  14:55:00      -14.985       13.716       10.065       34.145       35.270       24.009     1165.877     1243.977      576.434        0.175        0.149       20.314       12.587        0.384      347.815       27.058      865.331
05/01/2014  14:56:00      -25.585       92.286        6.599       35.249       66.065       31.794     1242.468     4364.537     1010.846        0.792        0.331       95.767       32.062        0.112      347.577       26.647      865.338
05/01/2014  14:57:00      -10.811       82.935        0.287       39.876       42.532       30.982     1590.082     1808.978      959.862        0.568        0.218       83.636       25.931        0.096      347.418       26.372      865.328
05/01/2014  14:58:00        6.342       -7.212        7.872       19.411       23.510       14.046      376.772      552.701      197.290        0.064        0.056        9.604        7.831        0.665      347.817       27.061      865.311
05/01/2014  14:59:00      -20.451      -15.093       -1.569       38.735       31.716       25.591     1500.374     1005.935      654.897        0.190        0.158       25.417       22.404        0.777      347.579       26.651      865.291
05/01/2014  15:00:00     -136.822       61.631      -11.943       81.976       59.430       42.541     6720.086     3531.917     1809.753        1.736        0.603      150.063       47.980        0.102      347.486       26.488      865.283
05/01/2014  15:01:00     -133.384       38.226      -11.613       88.112       56.672       41.384     7763.793     3211.681     1712.617        1.604        0.634      138.753       51.827        0.140      347.315       26.195      865.271
05/01/2014  15:02:00      -33.471      120.949       -1.330       59.867      108.745       55.896     3584.108    11825.526     3124.335        1.714        0.927      125.495       49.388        0.155      347.665       26.798      865.260
05/01/2014  15:03:00      -48.237      163.827      -16.772       61.508       61.538       37.606     3783.255     3786.956     1414.178        1.921        0.449      170.781       32.853        0.037      347.239       26.065      865.260
05/01/2014  15:04:00      104.017       82.119       -8.233       49.322       62.838       41.453     2432.679     3948.616     1718.348        1.286        0.405      132.526       30.857        0.054      347.130       25.877      865.243
05/01/2014  15:05:00       15.097       45.870       -8.675       99.920       31.890       28.986     9983.939     1016.995      840.203        0.712        0.592       48.291       28.942        0.359      347.580       26.651      865.208
05/01/2014  15:06:00       -0.938      179.052      -21.327       45.964      101.772       29.021     2112.694    10357.524      842.194        2.291        0.666      179.055       41.422        0.054      347.393       26.327      865.205
05/01/2014  15:07:00       10.210      155.600      -18.276       38.098       67.704       31.860     1451.457     4583.833     1015.083        1.585        0.353      155.935       33.162        0.045      347.065       25.765      865.215
05/01/2014  15:08:00      -19.172      133.623       -9.992       48.997       87.634       30.353     2400.665     7679.631      921.297        1.466        0.550      134.991       23.507        0.030      347.049       25.736      865.201
05/01/2014  15:09:00      -65.851      114.257      -11.654       50.003       77.637       34.816     2500.338     6027.483     1212.129        1.363        0.487      131.874       40.739        0.095      347.218       26.027      865.210
05/01/2014  15:10:00     -217.119      105.126      -46.984       71.444       62.321       42.558     5104.195     3883.941     1811.181        3.560        0.540      241.231       35.695        0.022      347.141       25.890      865.211
05/01/2014  15:11:00      -93.264       50.151      -29.222       53.700       55.150       35.305     2883.683     3041.476     1246.468        0.962        0.359      105.893       33.379        0.099      347.010       25.669      865.191
05/01/2014  15:12:00       48.789       27.838      -12.674       67.388       50.933       34.208     4541.188     2594.216     1170.171        0.581        0.415       56.172       28.304        0.254      346.962       25.587      865.173
05/01/2014  15:13:00       64.681      -71.389       14.574       46.741       47.880       25.082     2184.698     2292.505      629.109        0.730        0.255       96.333       16.507        0.029      347.023       25.692      865.137
05/01/2014  15:14:00      -22.137       64.492       34.668       92.291      112.439       47.575     8517.680    12642.431     2263.409        1.463        1.171       68.186       56.412        0.684      347.360       26.272      865.120
05/01/2014  15:15:00      -72.664       83.644       -7.239       51.986       53.106       39.043     2702.583     2820.201     1524.330        0.969        0.352      110.799       33.401        0.091      347.379       26.305      865.119
05/01/2014  15:16:00       -4.975      171.892      -13.562       53.176       65.281       37.548     2827.685     4261.546     1409.822        1.913        0.425      171.964       36.585        0.045      347.168       25.940      865.111
05/01/2014  15:17:00      -30.818      162.517      -29.731       34.611       69.972       26.193     1197.894     4896.108      686.073        1.751        0.339      165.413       16.121        0.009      346.953       25.570      865.093
05/01/2014  15:18:00       -9.850       46.444        6.063       22.668       46.850       27.590      513.850     2194.879      761.190        0.288        0.173       47.478       27.493        0.335      347.438       26.407      865.077
05/01/2014  15:19:00      -58.327       74.356       -8.780       57.435       80.163       29.732     3298.727     6426.185      883.979        0.981        0.530       94.503       32.910        0.121      347.334       26.229      865.076
05/01/2014  15:20:00      -55.610      169.411      -23.444       55.951       68.460       33.539     3130.568     4686.817     1124.839        2.064        0.447      178.305       24.239        0.018      347.216       26.023      865.072
05/01/2014  15:21:00      -49.376      245.884      -32.250       51.821       86.786       30.111     2685.376     7531.860      906.692        3.753        0.556      250.793       29.223        0.014      347.188       25.972      865.062
05/01/2014  15:22:00      136.837      116.111       -9.757       37.473       55.735       38.816     1404.230     3106.337     1506.674        1.916        0.301      179.460       34.847        0.038      347.090       25.807      865.087
05/01/2014  15:23:00       87.195      -27.006        0.818       53.132       76.546       34.865     2823.046     5859.261     1215.544        0.911        0.495       91.281       34.619        0.144      347.122       25.862      865.066
05/01/2014  15:24:00        8.727      -66.645      -17.809       35.905       31.021       16.346     1289.141      962.305      267.196        0.368        0.126       67.214       15.298        0.052      347.097       25.820      865.014
05/01/2014  15:25:00       15.496      -78.605      -13.966       42.300       35.584       16.674     1789.329     1266.242      278.026        0.497        0.167       80.118       15.021        0.035      347.472       26.466      864.967
05/01/2014  15:26:00       97.399     -167.533      -25.848       64.301       64.332       40.284     4134.554     4138.659     1622.768        2.406        0.495      193.788       45.149        0.054      347.284       26.139      864.946
05/01/2014  15:27:00       96.494     -139.965      -13.393       69.917       78.379       54.375     4888.426     6143.203     2956.598        2.153        0.699      170.004       56.817        0.112      347.371       26.290      864.931
05/01/2014  15:28:00       92.487     -135.715      -22.922       68.495       89.017       57.208     4691.595     7924.092     3272.772        2.169        0.794      164.232       56.570        0.119      347.351       26.256      864.923
05/01/2014  15:29:00       60.875      -69.121        0.180       60.898       68.049       40.094     3708.522     4630.657     1607.512        0.921        0.497       92.106       45.326        0.242      347.517       26.544      864.906
05/01/2014  15:30:00        9.681       22.250       21.090       51.566       58.308       33.849     2659.099     3399.788     1145.743        0.412        0.360       24.265       39.250        2.616      347.467       26.457      864.897
05/01/2014  15:31:00       55.839       58.977       43.496       31.147       47.247       47.725      970.153     2232.237     2277.656        0.698        0.274       81.218       33.629        0.171      347.573       26.639      864.886
05/01/2014  15:32:00      -15.368        2.013        8.611       51.227       52.070       47.645     2624.255     2711.260     2270.007        0.396        0.380       15.500       42.489        7.515      347.782       26.999      864.873
05/01/2014  15:33:00        2.477       82.662      114.411       48.389       45.876       32.717     2341.536     2104.599     1070.378        1.272        0.276       82.699       29.185        0.125      347.799       27.029      864.867
05/01/2014  15:34:00       32.812      -40.469       16.078       36.671       63.060       33.786     1344.773     3976.566     1141.494        0.472        0.323       52.100       37.648        0.522      347.584       26.659      864.861
05/01/2014  15:35:00       57.209       38.950       33.838       60.028       32.152       34.866     3603.420     1033.780     1215.622        0.589        0.293       69.210       18.381        0.071      347.864       27.141      864.839
05/01/2014  15:36:00       26.804       11.641       20.196       36.544       61.623       36.389     1335.483     3797.401     1324.181        0.386        0.323       29.223       36.532        1.563      348.140       27.618      864.828
05/01/2014  15:37:00      -28.790      136.666      -14.598       46.674      106.655       46.536     2178.441    11375.218     2165.578        1.772        0.786      139.666       54.299        0.151      347.743       26.932      864.840
05/01/2014  15:38:00      -27.415      267.446       -9.153       64.364       93.263       57.643     4142.669     8697.931     3322.724        4.426        0.808      268.848       48.025        0.032      347.397       26.332      864.797
05/01/2014  15:39:00      -27.423      216.661      -26.491       59.882       69.066       39.750     3585.887     4770.159     1580.032        2.916        0.497      218.390       38.822        0.032      347.477       26.472      864.777
05/01/2014  15:40:00        5.900      232.982      -43.631       55.440       88.190       34.567     3073.622     7777.525     1194.869        3.413        0.602      233.057       35.595        0.023      347.515       26.538      864.763
05/01/2014  15:41:00      -94.727      230.791      -32.286       47.910       86.466       39.036     2295.372     7476.418     1523.782        3.729        0.565      249.475       40.066        0.026      347.330       26.218      864.764
05/01/2014  15:42:00      -41.957      154.180      -16.042       34.965       51.280       23.941     1222.520     2629.665      573.168        1.511        0.221      159.787       27.937        0.031      347.413       26.365      864.757
05/01/2014  15:43:00      -13.425      184.293      -22.621       47.194       71.664       35.824     2227.274     5135.773     1283.383        2.165        0.432      184.781       42.567        0.053      347.626       26.729      864.747
05/01/2014  15:44:00     -123.129      117.779      -39.274       88.237       88.295       42.266     7785.763     7796.034     1786.380        2.397        0.868      170.390       50.138        0.087      347.533       26.569      864.763
05/01/2014  15:45:00     -206.773       63.288      -39.863       81.223      109.378       51.070     6597.222    11963.620     2608.183        3.476        1.058      216.241       20.954        0.009      347.620       26.718      864.706
05/01/2014  15:46:00     -290.322      -44.375      -31.210      167.290      111.092       60.510    27986.093    12341.535     3661.464        6.560        2.199      293.694       53.295        0.033      347.616       26.712      864.751
05/01/2014  15:47:00     -197.315       48.283      -24.954      124.654      103.553       50.354    15538.664    10723.173     2535.545        3.534        1.440      203.137       42.583        0.044      347.643       26.759      864.782
05/01/2014  15:48:00     -242.237        3.045      -25.591       66.883       69.513       38.448     4473.352     4832.122     1478.251        3.506        0.539      242.256       35.759        0.022      347.420       26.373      864.800
05/01/2014  15:49:00      -96.645       18.895       11.006       99.393       74.798       46.706     9878.918     5594.693     2181.406        1.373        0.883       98.475       52.516        0.284      347.772       26.981      864.771
05/01/2014  15:50:00      -94.420      -17.200      -19.982       49.760       73.289       30.305     2476.043     5371.346      918.419        0.919        0.438       95.974       11.917        0.015      347.389       26.323      864.752
05/01/2014  15:51:00      -86.384        8.476      -25.596       46.734       28.248       31.974     2184.089      797.971     1022.354        0.610        0.200       86.799       32.019        0.136      347.343       26.244      864.715
05/01/2014  15:52:00      -22.157       11.677       -0.571       52.683       19.833       37.236     2775.452      393.333     1386.490        0.259        0.228       25.046       28.200        1.268      347.531       26.569      864.683
05/01/2014  15:53:00      -37.587      -12.597        7.067       28.349       20.501       24.877      803.659      420.300      618.846        0.173        0.092       39.642       20.417        0.265      347.647       26.769      864.665
05/01/2014  15:54:00       -2.449      -30.806       10.940       47.574       33.144       24.390     2263.241     1098.552      594.874        0.251        0.198       30.903       22.961        0.552      347.777       26.991      864.656
05/01/2014  15:55:00        1.623      -11.666       61.207       32.149       32.376       19.038     1033.565     1048.194      362.462        0.316        0.122       11.779       14.917        1.604      347.966       27.319      864.660
05/01/2014  15:56:00       -0.128        5.757       22.657       23.384       17.230       18.591      546.818      296.861      345.635        0.087        0.059        5.759       14.042        5.945      348.022       27.414      864.667
05/01/2014  15:57:00       23.872       13.219        9.625       28.597       20.063       20.732      817.791      402.541      429.798        0.124        0.083       27.288       16.798        0.379      347.714       26.883      864.654
05/01/2014  15:58:00       74.052       51.707       -4.894       37.137       42.385       36.836     1379.181     1796.522     1356.907        0.636        0.227       90.318       25.776        0.081      347.473       26.467      864.647
05/01/2014  15:59:00      -24.572       -7.131      -12.405       31.376       28.021       24.403      984.442      785.190      595.510        0.159        0.118       25.586       18.412        0.518      347.657       26.785      864.628
05/01/2014  16:00:00      -15.199        4.076      -23.173       21.083       24.005       16.395      444.513      576.223      268.797        0.104        0.064       15.736       10.691        0.462      347.852       27.121      864.636
05/01/2014  16:01:00      -83.334      -43.009       -2.745       62.448       31.297       32.335     3899.738      979.472     1045.574        0.736        0.296       93.778       23.088        0.061      347.866       27.144      864.657
05/01/2014  16:02:00     -159.352      -74.940        4.865      105.706       94.959       55.052    11173.672     9017.165     3030.751        2.712        1.161      176.094       62.081        0.124      347.951       27.290      864.696
05/01/2014  16:03:00     -312.059     -191.717       -1.145      226.572      153.022       95.765    51334.707    23415.869     9171.007       10.901        4.196      366.246      121.876        0.111      347.517       26.539      864.640
05/01/2014  16:04:00     -222.115     -114.448       -0.408      146.527      116.790       75.337    21470.043    13639.956     5675.640        5.160        2.039      249.867       87.634        0.123      347.708       26.868      864.562
05/01/2014  16:05:00     -482.562     -117.455      -22.870      234.909      189.334      107.596    55182.039    35847.389    11576.973       17.488        5.130      496.651      114.560        0.053      347.624       26.724      864.535
05/01/2014  16:06:00     -235.934      -86.854       27.706      228.196      116.692       73.812    52073.253    13617.013     5448.273        6.754        3.557      251.413       99.291        0.156      347.693       26.845      864.575
05/01/2014  16:07:00     -199.331     -123.650       11.104      108.957      105.066       57.270    11871.675    11038.891     3279.836        4.066        1.310      234.568       49.433        0.044      347.788       27.007      864.593
05/01/2014  16:08:00     -299.032     -224.324      -11.238      160.961      149.253       69.457    25908.535    22276.398     4824.301        9.643        2.650      373.820       72.239        0.037      347.506       26.521      864.603
05/01/2014  16:09:00     -277.128     -260.008       -6.305      169.886      121.773       68.685    28861.410    14828.611     4717.611        9.642        2.420      380.005       69.461        0.033      347.453       26.429      864.589
05/01/2014  16:10:00     -334.100     -286.802        4.179      220.534      188.983      103.914    48635.297    35714.548    10798.087       14.450        4.757      440.316       98.347        0.050      347.558       26.611      864.586
05/01/2014  16:11:00     -376.053     -111.495      -16.806      188.803      147.148       84.109    35646.696    21652.625     7074.354       10.924        3.219      392.233       87.919        0.050      347.614       26.707      864.595
05/01/2014  16:12:00     -352.489      -21.442       -0.101      212.861      132.367       84.812    45309.827    17520.963     7193.104        9.735        3.501      353.141      104.719        0.088      347.627       26.730      864.577
05/01/2014  16:13:00     -388.865     -202.901       -1.824      226.648      151.643       87.362    51369.152    22995.664     7632.091       13.718        4.100      438.617      106.281        0.059      347.680       26.821      864.571
05/01/2014  16:14:00     -442.066     -285.703      -23.620      239.135      222.383      106.378    57185.401    49454.302    11316.381       19.776        5.898      526.354      125.956        0.057      347.500       26.511      864.575
05/01/2014  16:15:00     -396.017     -263.224       -9.463      231.388      199.396       74.784    53540.401    39758.879     5592.606       16.253        4.945      475.517       84.978        0.032      347.364       26.275      864.559
05/01/2014  16:16:00     -138.722      -33.706        1.270      113.660       85.642       51.147    12918.526     7334.485     2615.979        2.162        1.143      142.759       59.410        0.173      347.738       26.923      864.558
05/01/2014  16:17:00     -131.524     -133.967      -10.279       68.855       71.717       45.230     4740.956     5143.361     2045.731        2.364        0.597      187.738       41.878        0.050      347.626       26.728      864.555
05/01/2014  16:18:00     -212.158     -132.421       -2.378      108.184       77.448       54.392    11703.728     5998.228     2958.458        4.160        1.033      250.093       49.253        0.039      347.964       27.311      864.564
05/01/2014  16:19:00     -335.086     -197.118        0.091      187.786      140.582       76.246    35263.733    19763.334     5813.500       10.598        3.042      388.765       77.564        0.040      347.843       27.103      864.554
05/01/2014  16:20:00     -334.882     -203.384        5.302      189.665      125.616       76.173    35972.735    15779.260     5802.383       10.554        2.878      391.804       86.385        0.049      347.724       26.897      864.534
05/01/2014  16:21:00     -318.700     -228.165      -12.604      166.142      161.574       78.382    27603.035    26106.041     6143.816       10.681        2.993      391.955       84.506        0.046      347.652       26.773      864.529
05/01/2014  16:22:00     -284.459      -81.729        5.376      159.407      123.073       75.036    25410.601    15147.041     5630.407        6.690        2.309      295.967       68.986        0.054      347.942       27.276      864.529
05/01/2014  16:23:00     -213.572      -91.990       -9.777      154.628      159.641       76.102    23909.790    25485.278     5791.462        5.467        2.759      232.541       80.430        0.120      347.846       27.107      864.492
05/01/2014  16:24:00     -379.499     -305.769      -19.796      156.831      135.352       77.711    24596.009    18320.115     6038.923       14.342        2.448      487.354       78.523        0.026      347.645       26.762      864.479
05/01/2014  16:25:00     -333.620     -241.747        3.543      249.499      173.524      101.190    62249.554    30110.543    10239.504       13.616        5.130      412.000      129.926        0.099      347.654       26.777      864.493
05/01/2014  16:26:00     -164.262      -85.680       15.017      193.658      110.700       86.172    37503.536    12254.529     7425.624        4.585        2.859      185.265       93.515        0.255      347.906       27.213      864.498
05/01/2014  16:27:00     -487.653      -10.981      -48.289      159.070      135.803       68.923    25303.367    18442.556     4750.370       14.437        2.425      487.776       69.355        0.020      347.510       26.528      864.492
05/01/2014  16:28:00     -299.254      -86.133       -5.772      176.417      143.052       88.397    31122.792    20464.016     7813.966        7.819        2.970      311.402       78.343        0.063      347.764       26.966      864.465
05/01/2014  16:29:00     -511.303     -172.541      -45.454      178.674      176.678       88.905    31924.316    31215.244     7904.104       18.214        3.552      539.630       92.740        0.030      347.607       26.694      864.455
05/01/2014  16:30:00     -435.959      -30.638      -58.777      115.778      110.378       64.719    13404.531    12183.238     4188.562       11.211        1.489      437.034       53.507        0.015      347.521       26.546      864.467
05/01/2014  16:31:00     -409.340        0.443      -37.436      106.732      116.130       51.030    11391.654    13486.255     2604.109        9.822        1.374      409.340       44.502        0.012      347.669       26.803      864.454
05/01/2014  16:32:00     -406.752      -98.434      -19.237      140.935      145.185       61.493    19862.809    21078.601     3781.363       11.011        2.236      418.493       57.700        0.019      347.753       26.946      864.445
05/01/2014  16:33:00     -344.577      -67.106      -16.551      143.135      169.420       70.378    20487.543    28703.193     4953.129        8.882        2.707      351.050       71.423        0.041      347.464       26.449      864.456
05/01/2014  16:34:00     -181.715     -112.214       10.612      176.497      154.410       69.061    31151.053    23842.433     4769.375        5.273        2.988      213.571       82.883        0.151      347.889       27.182      864.461
05/01/2014  16:35:00     -183.649     -100.811       -3.295      159.065      116.946       61.851    25301.575    13676.399     3825.502        4.334        2.140      209.499       55.554        0.070      347.688       26.835      864.446
05/01/2014  16:36:00     -242.020       86.887      -25.576      129.414      101.985       61.987    16747.943    10400.850     3842.391        4.888        1.550      257.144       63.409        0.061      347.655       26.777      864.443
05/01/2014  16:37:00     -415.321      -73.564      -22.124      161.636      116.274       71.217    26126.051    13519.755     5071.808       11.155        2.236      421.785       80.296        0.036      347.777       26.988      864.409
05/01/2014  16:38:00     -565.524      -94.814      -20.365      267.120      157.757       91.927    71352.835    24887.223     8450.602       21.694        5.235      573.417      105.394        0.034      347.624       26.725      864.359
05/01/2014  16:39:00     -422.930     -194.021        5.586      153.232      159.569       71.769    23480.154    25462.185     5150.735       13.531        2.705      465.311       76.071        0.027      347.734       26.914      864.417
05/01/2014  16:40:00     -235.050     -180.402       -0.242      164.156      144.189       65.393    26947.167    20790.467     4276.235        6.989        2.601      296.300       76.760        0.067      347.794       27.018      864.416
05/01/2014  16:41:00     -386.605     -274.751      -15.335      193.716      162.504       86.167    37526.074    26407.591     7424.829       14.826        3.568      474.291       89.246        0.035      347.491       26.495      864.428
05/01/2014  16:42:00     -331.655     -231.371        3.973      179.391      136.283       74.001    32181.255    18573.078     5476.168       10.988        2.812      404.385       82.629        0.042      347.378       26.299      864.402
05/01/2014  16:43:00     -374.963     -242.599       -5.065      169.889      135.401       90.698    28862.424    18333.451     8226.160       12.744        2.771      446.600       92.103        0.043      347.412       26.358      864.377
05/01/2014  16:44:00     -313.002     -204.275      -11.594      144.316      126.761       68.587    20827.073    16068.473     4704.173        9.071        2.080      373.763       75.017        0.040      347.561       26.615      864.379
05/01/2014  16:45:00     -444.138     -269.655       -1.632      205.962      166.804       90.200    42420.528    27823.516     8135.971       17.416        3.919      519.589      103.687        0.040      347.376       26.297      864.371
05/01/2014  16:46:00     -308.537     -215.107       -2.744      134.381      127.962       74.702    18058.280    16374.183     5580.414        9.074        2.001      376.120       71.611        0.036      347.311       26.185      864.371
05/01/2014  16:47:00     -351.474     -160.987      -16.494      118.309      112.791       69.162    13997.056    12721.831     4783.379        9.061        1.575      386.589       53.345        0.019      347.464       26.450      864.357
05/01/2014  16:48:00     -345.739     -234.910       -3.033      169.610      154.404       82.935    28767.402    23840.525     6878.211       11.710        2.974      417.993       90.756        0.047      347.382       26.307      864.332
05/01/2014  16:49:00     -469.315     -281.946      -18.962      256.957      191.353      114.728    66026.718    36615.899    13162.589       20.793        5.790      547.495      128.115        0.055      347.482       26.479      864.305
05/01/2014  16:50:00     -343.032      -17.627      -30.543      215.976      132.560       83.649    46645.595    17572.043     6997.102        9.505        3.561      343.485       84.309        0.060      347.580       26.648      864.378
05/01/2014  16:51:00     -410.419     -143.469      -24.278      138.482      136.906       64.348    19177.185    18743.328     4140.621       11.583        2.103      434.772       71.587        0.027      347.284       26.137      864.386
05/01/2014  16:52:00     -316.425      -69.550      -23.698      152.756       94.104       58.913    23334.246     8855.492     3470.771        7.059        1.783      323.979       72.385        0.050      347.375       26.296      864.368
05/01/2014  16:53:00     -395.416      -93.923       -9.248      159.888      138.403       66.057    25564.307    19155.466     4363.554       10.716        2.454      406.418       71.787        0.031      347.526       26.555      864.367
05/01/2014  16:54:00     -393.284      -72.402      -18.025      146.933      121.042       60.877    21589.225    14651.162     3706.020       10.008        1.997      399.893       69.749        0.030      347.503       26.516      864.352
05/01/2014  16:55:00     -368.680      -52.236      -19.936       99.260       94.866       55.147     9852.563     8999.497     3041.141        8.047        1.095      372.362       49.613        0.018      347.558       26.613      864.348
05/01/2014  16:56:00     -247.280      -75.226       -8.546       97.661       76.895       47.421     9537.698     5912.917     2248.729        4.229        0.885      258.469       49.210        0.036      347.654       26.777      864.333
05/01/2014  16:57:00     -259.237     -106.392       -1.312      106.179       81.467       51.686    11274.017     6636.815     2671.474        4.955        1.029      280.220       53.256        0.036      347.742       26.928      864.343
05/01/2014  16:58:00     -335.228     -255.617        0.315      199.143      165.001       94.682    39657.874    27225.327     8964.619       12.677        3.792      421.567       87.246        0.043      347.563       26.620      864.339
05/01/2014  16:59:00     -430.868     -129.870      -20.554      222.671      137.502       71.685    49582.538    18906.933     5138.693       13.827        3.681      450.014       87.370        0.038      347.481       26.478      864.341
05/01/2014  17:00:00     -444.241     -135.244      -19.328      199.459      146.320       80.529    39783.819    21409.656     6484.942       14.183        3.384      464.372       76.010        0.027      347.501       26.513      864.331
05/01/2014  17:01:00     -288.777     -141.628       -8.663      127.843       91.286       68.175    16343.875     8333.202     4647.812        6.642        1.466      321.638       58.297        0.033      347.618       26.714      864.347
05/01/2014  17:02:00     -448.087      -88.725      -12.988      183.741      122.030       79.511    33760.717    14891.409     6321.940       13.189        2.749      456.787       91.584        0.040      347.394       26.329      864.340
05/01/2014  17:03:00     -327.221      -82.236      -23.806      136.284      134.911       62.720    18573.463    18200.897     3933.810        7.755        2.035      337.396       41.649        0.015      347.402       26.342      864.321
05/01/2014  17:04:00     -136.764     -275.213       20.145      168.340      135.841       85.671    28338.238    18452.749     7339.557        7.448        2.707      307.321       99.639        0.105      347.420       26.373      864.313
05/01/2014  17:05:00     -279.792     -231.055        9.715      197.856      135.937       77.625    39146.985    18478.875     6025.637        9.770        3.183      362.863       96.473        0.071      347.471       26.461      864.287
05/01/2014  17:06:00     -255.875     -136.911        8.223      147.929      148.408       75.269    21882.968    22024.888     5665.397        6.692        2.479      290.201       64.021        0.049      347.584       26.656      864.287
05/01/2014  17:07:00     -405.764     -311.259       12.995      279.476      197.835      104.044    78106.650    39138.493    10825.180       19.486        6.404      511.397      118.217        0.053      347.420       26.373      864.299
05/01/2014  17:08:00     -406.480     -273.304        3.847      212.783      124.373       79.081    45276.605    15468.597     6253.829       15.345        3.350      489.817       86.033        0.031      347.353       26.257      864.285
05/01/2014  17:09:00     -335.215     -194.070       -1.898      162.693      131.779       77.993    26468.997    17365.606     6082.955        9.997        2.496      387.340       86.083        0.049      347.526       26.556      864.297
05/01/2014  17:10:00     -202.214      -85.660       -2.215      131.965      101.378       62.898    17414.838    10277.593     3956.133        3.993        1.582      219.609       49.810        0.051      347.660       26.787      864.278
05/01/2014  17:11:00     -361.966     -212.265       -0.613      197.657      161.981       85.231    39068.413    26237.802     7264.307       12.431        3.629      419.614       97.473        0.054      347.594       26.673      864.288
05/01/2014  17:12:00     -438.540     -339.279        5.258      263.810      190.208      119.998    69595.597    36179.018    14399.535       21.379        6.009      554.462      141.310        0.065      347.320       26.200      864.297
05/01/2014  17:13:00     -334.760     -223.322       -6.020      195.386      192.739       86.329    38175.689    37148.183     7452.668       12.236        4.139      402.414       97.417        0.059      347.530       26.563      864.307
05/01/2014  17:14:00     -442.546     -220.759       -2.635      173.741      188.756       92.021    30185.950    35628.777     8467.845       15.942        3.714      494.552      102.217        0.043      347.326       26.210      864.315
05/01/2014  17:15:00     -235.691     -189.783       20.461      204.853      198.366       99.677    41964.877    39349.212     9935.520        9.160        4.562      302.602      117.425        0.151      347.486       26.487      864.293
05/01/2014  17:16:00     -325.446     -205.713       -3.360      196.716      120.534       64.132    38697.252    14528.436     4112.974       10.278        2.867      385.010       77.888        0.041      347.408       26.353      864.319
05/01/2014  17:17:00     -162.422      -92.475       13.374      148.534       91.748       60.610    22062.317     8417.758     3673.514        3.463        1.708      186.902       59.934        0.103      347.564       26.622      864.317
05/01/2014  17:18:00     -206.560     -197.243        2.757      124.807      120.373       68.023    15576.895    14489.626     4627.077        5.813        1.735      285.608       68.849        0.058      347.571       26.636      864.320
05/01/2014  17:19:00     -501.980     -260.259        0.121      236.232      144.061      109.205    55805.753    20753.464    11925.734       20.408        4.424      565.437      113.631        0.040      347.291       26.150      864.313
05/01/2014  17:20:00     -290.056     -295.838      -10.797      167.233      180.663       87.878    27966.875    32639.253     7722.602       12.004        3.416      414.310       99.187        0.057      347.249       26.077      864.301
05/01/2014  17:21:00     -368.066     -279.009       -7.520      162.851      159.707       84.802    26520.367    25506.386     7191.441       13.628        2.961      461.864       89.305        0.037      347.286       26.141      864.293
05/01/2014  17:22:00     -266.729     -270.365       17.160      207.964      148.126       94.071    43249.042    21941.404     8849.307       10.927        3.702      379.792       93.216        0.060      347.312       26.187      864.295
05/01/2014  17:23:00     -165.185     -141.964       12.085      145.533       83.927       64.695    21179.915     7043.731     4185.500        3.999        1.620      217.806       66.432        0.093      347.331       26.219      864.282
05/01/2014  17:24:00     -267.541     -226.348        1.295      142.605      144.045       88.045    20336.143    20749.076     7752.010        8.582        2.442      350.445       95.547        0.074      347.299       26.164      864.266
05/01/2014  17:25:00     -532.888     -186.411      -35.449      230.953      210.142       91.961    53339.267    44159.563     8456.769       21.294        5.298      564.552       89.057        0.025      347.371       26.287      864.286
05/01/2014  17:26:00     -413.977      -35.145       -5.006      273.868      166.090       87.124    75003.721    27586.021     7590.561       14.139        5.509      415.467       68.991        0.028      347.542       26.583      864.264
05/01/2014  17:27:00     -448.656     -144.914      -20.861      186.936      141.291       80.487    34944.951    19963.196     6478.124       14.204        3.069      471.479       94.129        0.040      347.497       26.504      864.334
05/01/2014  17:28:00     -390.964       15.770      -22.307      158.124      149.524       58.989    25003.138    22357.507     3479.674       10.221        2.542      391.282       35.338        0.008      347.426       26.382      864.350
05/01/2014  17:29:00     -467.218      -92.435      -11.846      205.542      124.612       69.904    42247.612    15528.225     4886.561       14.481        3.133      476.274       82.264        0.030      347.277       26.126      864.342
05/01/2014  17:30:00     -268.247     -109.105       -4.253      134.491       69.446       48.436    18087.724     4822.782     2346.053        5.456        1.263      289.587       57.478        0.039      347.426       26.382      864.314
05/01/2014  17:31:00     -247.118      -63.568      -34.560      123.713      115.971       51.255    15305.002    13449.244     2627.073        4.884        1.569      255.164       35.519        0.019      347.381       26.305      864.300
05/01/2014  17:32:00     -673.409      -26.381      -47.298      180.510      162.064       90.738    32583.792    26264.839     8233.413       26.173        3.354      673.925       81.805        0.015      347.356       26.261      864.274
05/01/2014  17:33:00     -449.132      -96.443      -12.644      185.779      140.471       69.330    34513.853    19732.195     4806.669       13.510        2.953      459.370       79.651        0.030      347.303       26.169      864.303
05/01/2014  17:34:00     -325.966      -68.182      -10.932      156.764      107.482       60.786    24574.981    11552.445     3694.933        7.541        1.991      333.021       65.155        0.038      347.318       26.195      864.292
05/01/2014  17:35:00     -297.782     -111.935       -1.974      130.665       97.780       59.081    17073.410     9560.878     3490.589        6.566        1.506      318.125       61.409        0.037      347.406       26.350      864.316
05/01/2014  17:36:00     -172.579      -44.178       -2.985       86.587       85.639       45.598     7497.249     7334.028     2079.216        2.432        0.846      178.144       51.684        0.084      347.457       26.438      864.323
05/01/2014  17:37:00     -331.698     -165.769      -12.729      251.112      138.018       71.954    63057.269    19049.043     5177.352       11.246        4.364      370.814       91.665        0.061      347.432       26.396      864.326
05/01/2014  17:38:00     -446.930      -18.936      -32.251      197.921      156.049       82.031    39172.814    24351.280     6729.054       13.569        3.513      447.331       82.999        0.034      347.372       26.291      864.294
05/01/2014  17:39:00     -347.553     -142.530       15.373      223.745      179.940      103.628    50061.962    32378.547    10738.714       11.724        4.659      375.643      107.879        0.082      347.337       26.229      864.295
05/01/2014  17:40:00     -283.772     -106.537       11.854      212.400      134.216       78.366    45113.913    18014.059     6141.262        8.063        3.463      303.112       99.455        0.108      347.252       26.084      864.315
05/01/2014  17:41:00     -300.224     -248.301        1.303      206.941      173.771      104.197    42824.574    30196.353    10857.078       11.782        4.194      389.600      109.344        0.079      347.179       25.956      864.317
05/01/2014  17:42:00     -524.727     -255.399       -9.855      229.236      211.298      105.381    52549.034    44647.026    11105.107       22.446        5.415      583.581      109.692        0.035      347.081       25.787      864.305
05/01/2014  17:43:00     -533.288     -252.676       -4.792      275.274      232.642      105.418    75775.667    54122.487    11112.931       24.461        7.051      590.120      125.292        0.045      347.022       25.687      864.312
05/01/2014  17:44:00     -410.246     -265.588        9.402      325.895      214.584      124.734   106207.751    46046.277    15558.643       20.334        8.391      488.711      165.551        0.115      347.097       25.815      864.284
05/01/2014  17:45:00     -519.184     -148.262      -16.935      211.210      207.542       98.000    44609.723    43073.643     9603.907       19.453        4.864      539.939       95.622        0.031      347.039       25.717      864.328
05/01/2014  17:46:00     -379.772     -184.484      -14.069      206.344      170.535       90.393    42577.673    29082.105     8170.851       12.913        3.992      422.210       77.018        0.033      347.109       25.836      864.376
05/01/2014  17:47:00     -448.980     -119.912      -24.791      159.607      154.847       90.315    25474.494    23977.455     8156.838       13.708        2.880      464.717       91.209        0.039      347.003       25.655      864.398
05/01/2014  17:48:00     -460.538     -210.374      -12.364      213.419      208.872       89.089    45547.698    43627.670     7936.935       17.679        4.856      506.313      106.962        0.045      347.012       25.669      864.400
05/01/2014  17:49:00     -370.965     -227.937       -1.488      223.580      160.259       79.497    49987.994    25682.885     6319.811       13.577        4.100      435.397       98.996        0.052      346.969       25.595      864.390
05/01/2014  17:50:00     -276.843     -205.826       -3.950      164.349      154.028       76.987    27010.686    23724.592     5927.041        8.783        2.833      344.973       78.698        0.052      347.001       25.652      864.407
05/01/2014  17:51:00     -269.721     -226.718        4.946      215.716      153.473       89.812    46533.183    23553.811     8066.133       10.115        3.908      352.350       95.449        0.073      347.032       25.703      864.387
05/01/2014  17:52:00     -342.752     -199.580       15.962      242.209      178.206      110.448    58665.235    31757.209    12198.796       13.007        5.131      396.625      124.717        0.099      347.010       25.667      864.363
05/01/2014  17:53:00     -449.327     -291.069      -13.551      227.303      193.332      106.376    51666.642    37377.339    11315.824       19.356        5.018      535.365      102.184        0.036      346.965       25.589      864.362
05/01/2014  17:54:00     -279.024     -149.584        8.658      167.713      129.328       80.389    28127.776    16725.795     6462.379        7.580        2.566      316.591       72.030        0.052      347.114       25.845      864.401
05/01/2014  17:55:00     -251.263     -134.167       -7.225      215.599      172.534       94.489    46483.085    29768.091     8928.185        8.317        4.259      284.840       96.538        0.115      347.145       25.900      864.414
05/01/2014  17:56:00     -362.454     -112.593        1.333      223.018      193.855       93.916    49737.089    37579.731     8820.277       12.008        4.807      379.539      109.326        0.083      347.062       25.757      864.405
05/01/2014  17:57:00     -317.430     -138.408       -0.152      238.602      188.411       98.589    56931.016    35498.729     9719.776       11.101        5.107      346.293      106.347        0.094      346.986       25.624      864.402
05/01/2014  17:58:00     -389.867     -307.389      -10.172      239.300      221.999      117.298    57264.583    49283.695    13758.813       18.342        6.015      496.472      124.383        0.063      347.003       25.654      864.376
05/01/2014  17:59:00     -445.093     -203.892      -13.555      243.166      203.964      101.068    59129.710    41601.163    10214.814       17.538        5.547      489.571      119.886        0.060      347.055       25.744      864.412
05/01/2014  18:00:00     -233.609     -144.257        2.936      179.338      171.912      105.989    32162.196    29553.806    11233.692        7.416        3.647      274.560      101.902        0.138      347.044       25.725      864.436
05/01/2014  18:01:00     -394.225      -31.886      -17.490      189.256      160.997       87.846    35817.895    25919.897     7716.921       11.308        3.473      395.512       81.608        0.043      347.000       25.650      864.440
05/01/2014  18:02:00     -264.262     -105.741       -1.209      193.718      161.792       81.433    37526.779    26176.758     6631.295        7.566        3.517      284.632       84.706        0.089      347.048       25.732      864.472
05/01/2014  18:03:00     -426.955      -84.635      -16.181      224.458      179.966       96.705    50381.399    32387.641     9351.835       14.090        4.606      435.263      110.012        0.064      346.976       25.607      864.461
05/01/2014  18:04:00     -411.647     -154.244       -7.397      204.544      202.901       96.362    41838.287    41168.809     9285.607       14.278        4.615      439.596      100.409        0.052      346.875       25.434      864.463
05/01/2014  18:05:00     -391.361      -85.973      -24.787      210.257      149.483       79.041    44208.038    22345.148     6247.483       11.697        3.640      400.693       86.743        0.047      346.909       25.493      864.470
05/01/2014  18:06:00     -431.455     -166.094      -14.465      204.248      177.802       85.354    41717.365    31613.530     7285.221       14.727        4.031      462.321       89.771        0.038      346.883       25.449      864.453
05/01/2014  18:07:00     -336.404     -254.845      -19.622      166.888      178.463       93.884    27851.569    31849.081     8814.246       12.349        3.426      422.035       94.133        0.050      346.847       25.385      864.457
05/01/2014  18:08:00     -351.453     -149.031       33.978      272.030      190.896      101.158    74000.469    36441.256    10232.983       13.376        6.034      381.745      127.442        0.111      346.735       25.192      864.450
05/01/2014  18:09:00     -456.659     -273.652      -16.650      209.025      174.277       93.818    43691.395    30372.307     8801.768       18.327        4.143      532.375      106.691        0.040      346.679       25.097      864.431
05/01/2014  18:10:00     -412.672     -395.849       -3.437      227.619      192.755      124.627    51810.634    37154.624    15531.873       21.573        5.225      571.834      121.602        0.045      346.668       25.078      864.413
05/01/2014  18:11:00     -388.573      -47.969       -8.952      219.646      165.831       79.490    48244.321    27499.814     6318.698       11.770        4.103      391.523       96.392        0.061      346.711       25.152      864.469
05/01/2014  18:12:00     -302.289     -137.529       -4.827      187.453      169.172       85.099    35138.573    28619.164     7241.843        9.064        3.550      332.104       93.487        0.079      346.763       25.240      864.472
05/01/2014  18:13:00     -384.105     -228.945       -6.441      219.583      138.346      112.625    48216.735    19139.643    12684.474       14.000        4.002      447.161      119.181        0.071      346.710       25.149      864.420
05/01/2014  18:14:00     -440.840     -307.823        1.205      219.496      193.901      104.807    48178.696    37597.504    10984.452       19.291        4.838      537.676      126.277        0.055      346.636       25.023      864.437
05/01/2014  18:15:00     -432.672     -199.290       -7.726      252.076      163.456       96.299    63542.432    26717.741     9273.510       16.324        4.977      476.363      111.167        0.054      346.663       25.070      864.436
05/01/2014  18:16:00     -485.832     -341.283        3.478      228.979      183.541      122.755    52431.208    33687.288    15068.860       22.683        5.059      593.723      135.331        0.052      346.606       24.971      864.422
05/01/2014  18:17:00     -440.811     -312.651      -10.926      229.034      149.481      106.613    52456.634    22344.452    11366.429       18.916        4.308      540.430      111.736        0.043      346.637       25.022      864.424
05/01/2014  18:18:00     -337.671     -132.563      -10.919      155.411      159.175       86.693    24152.614    25336.593     7515.755        9.435        2.850      362.760       87.706        0.058      346.715       25.159      864.448
05/01/2014  18:19:00     -341.517     -147.753      -10.173      170.543      134.216       77.436    29084.796    18014.022     5996.385        9.582        2.655      372.108       64.037        0.030      346.693       25.121      864.462
05/01/2014  18:20:00     -351.021     -255.541       -2.507      234.641      222.213      113.878    55056.520    49378.561    12968.174       15.294        5.870      434.185      132.499        0.093      346.660       25.063      864.417
05/01/2014  18:21:00     -507.990     -228.868      -23.023      193.427      182.517       90.544    37413.881    33312.519     8198.259       19.493        3.946      557.167      101.758        0.033      346.652       25.051      864.382
05/01/2014  18:22:00     -332.127     -126.288      -17.552      222.806      142.926       78.650    49642.314    20427.951     6185.866       10.140        3.813      355.327       92.071        0.067      346.714       25.156      864.426
05/01/2014  18:23:00     -342.190      -13.193      -14.293      166.912      148.345       84.747    27859.569    22006.367     7182.082        8.725        2.852      342.444       84.677        0.061      346.676       25.091      864.419
05/01/2014  18:24:00     -364.018     -221.487       -0.310      222.442      181.971       93.235    49480.512    33113.317     8692.745       13.641        4.564      426.105      114.391        0.072      346.661       25.065      864.416
05/01/2014  18:25:00     -373.551     -228.337       -6.053      182.307      146.995       84.973    33235.784    21607.385     7220.495       12.688        3.103      437.811       93.389        0.046      346.629       25.011      864.400
05/01/2014  18:26:00     -369.307     -180.570      -11.511      254.331      165.120       85.749    64684.450    27264.614     7352.815       13.419        4.965      411.087      104.601        0.065      346.623       25.002      864.416
05/01/2014  18:27:00     -341.868      -99.548        9.139      204.305      129.628       86.072    41740.353    16803.540     7408.335        9.640        3.298      356.067       98.986        0.077      346.616       24.989      864.407
05/01/2014  18:28:00     -380.169     -265.659      -15.283      195.155      155.090       77.841    38085.449    24052.765     6059.242       14.175        3.410      463.792       85.080        0.034      346.559       24.889      864.397
05/01/2014  18:29:00     -492.642      -31.281      -25.849      245.040      189.610       78.328    60044.741    35951.954     6135.260       17.322        5.107      493.635       93.662        0.036      346.509       24.806      864.389
05/01/2014  18:30:00     -232.631      -54.561        0.790      128.173      130.662       62.182    16428.256    17072.678     3866.613        4.722        1.868      238.944       55.317        0.054      346.583       24.931      864.406
05/01/2014  18:31:00     -285.157      -81.070       11.806      181.032      125.563       82.555    32772.546    15765.979     6815.307        7.168        2.768      296.457       91.020        0.094      346.538       24.855      864.403
05/01/2014  18:32:00     -349.525     -295.167      -24.508      183.608      177.750       93.247    33711.914    31595.144     8695.077       14.193        3.700      457.483       92.718        0.041      346.514       24.814      864.394
05/01/2014  18:33:00     -450.445     -135.252       -7.455      230.593      159.334       95.602    53172.901    25387.422     9139.683       15.446        4.385      470.313       98.518        0.044      346.459       24.717      864.386
05/01/2014  18:34:00     -369.441     -120.069       -9.706      191.639      140.853       84.849    36725.456    19839.534     7199.355       10.737        3.188      388.463       84.652        0.047      346.453       24.707      864.394
05/01/2014  18:35:00     -217.523      -62.472        6.447      147.089      119.204       69.834    21635.070    14209.577     4876.722        4.598        2.036      226.316       67.102        0.088      346.474       24.745      864.404
05/01/2014  18:36:00     -183.787     -148.741       -0.519      192.462      153.968       94.019    37041.657    23706.227     8839.631        6.273        3.479      236.435       99.995        0.179      346.457       24.714      864.389
05/01/2014  18:37:00     -348.924      -72.404       -4.798      183.798      154.515       89.656    33781.551    23874.950     8038.137        9.634        3.285      356.357       96.948        0.074      346.440       24.686      864.398
05/01/2014  18:38:00     -327.062     -173.814       -4.183      157.809      155.355       72.423    24903.759    24135.331     5245.121        9.573        2.714      370.380       74.476        0.040      346.426       24.661      864.379
05/01/2014  18:39:00     -442.211     -221.290        1.918      230.550      186.070       98.657    53153.506    34622.121     9733.274       17.100        4.875      494.490      112.402        0.052      346.394       24.605      864.370
05/01/2014  18:40:00     -268.068     -155.429       -3.572      144.511      137.582       79.893    20883.366    18928.782     6382.940        7.110        2.310      309.869       79.505        0.066      346.420       24.652      864.386
05/01/2014  18:41:00     -189.801      -92.987        9.968      144.933      135.524       63.065    21005.555    18366.725     3977.161        4.405        2.167      211.356       65.858        0.097      346.436       24.680      864.385
05/01/2014  18:42:00     -270.856     -240.282       12.432      183.281      151.825       99.938    33591.907    23050.912     9987.506        9.893        3.332      362.075      107.330        0.088      346.379       24.580      864.338
05/01/2014  18:43:00     -345.684     -196.456      -17.068      150.900      133.922       68.648    22770.699    17935.081     4712.566       10.189        2.271      397.608       68.864        0.030      346.391       24.600      864.362
05/01/2014  18:44:00     -320.081     -204.040      -10.175      209.877      138.562       82.959    44048.399    19199.544     6882.152       10.714        3.507      379.584      100.685        0.070      346.376       24.575      864.371
05/01/2014  18:45:00     -432.496     -250.027       11.361      274.557      185.280      104.915    75381.759    34328.763    11007.218       18.518        6.036      499.567      128.566        0.066      346.341       24.515      864.351
05/01/2014  18:46:00     -371.864     -228.022       -6.780      208.573      146.255       82.530    43502.866    21390.402     6811.205       13.100        3.585      436.208      103.221        0.056      346.356       24.540      864.366
05/01/2014  18:47:00     -343.968     -101.641       -2.036      201.869      164.699       73.115    40751.059    27125.832     5345.797       10.092        3.661      358.671       86.991        0.059      346.357       24.543      864.388
05/01/2014  18:48:00     -341.734     -208.996      -13.936      224.908      120.430       77.765    50583.629    14503.383     6047.450       11.588        3.557      400.577       93.884        0.055      346.328       24.492      864.375
05/01/2014  18:49:00     -188.312     -138.081       10.020      160.409      145.178       90.175    25731.146    21076.613     8131.514        5.477        2.747      233.512       96.381        0.170      346.347       24.526      864.379
05/01/2014  18:50:00     -252.312     -100.349       12.383      151.219      154.878       76.054    22867.275    23987.279     5784.220        6.325        2.632      271.535       90.773        0.112      346.346       24.525      864.390
05/01/2014  18:51:00     -362.655      -99.885      -16.091      163.412      119.900       73.697    26703.467    14375.918     5431.278        9.412        2.326      376.159       77.460        0.042      346.342       24.519      864.388
05/01/2014  18:52:00     -293.142     -108.829      -12.831      148.849      135.506       70.375    22156.070    18361.848     4952.701        7.170        2.274      312.692       67.483        0.047      346.344       24.521      864.405
05/01/2014  18:53:00     -353.938     -154.768       -7.153      171.873      118.075       73.754    29540.164    13941.745     5439.597        9.909        2.446      386.296       77.849        0.041      346.308       24.459      864.409
05/01/2014  18:54:00     -390.440     -174.838       -8.970      203.694      151.381       91.861    41491.101    22916.350     8438.494       12.795        3.642      427.799       99.837        0.054      346.300       24.445      864.406
05/01/2014  18:55:00     -341.197     -165.977       -2.849      155.074      126.636       71.461    24047.972    16036.585     5106.684        9.457        2.260      379.426       68.411        0.033      346.286       24.422      864.426
05/01/2014  18:56:00     -336.854     -119.439      -16.038      144.882      105.812       65.328    20990.829    11196.078     4267.780        8.222        1.823      357.402       70.835        0.039      346.293       24.432      864.454
05/01/2014  18:57:00     -247.991     -171.070       -3.318      165.396      124.360       78.344    27355.941    15465.460     6137.830        6.986        2.448      301.271       87.690        0.085      346.265       24.386      864.440
05/01/2014  18:58:00     -194.566     -148.835       17.060      169.912      142.516       82.180    28870.165    20310.880     6753.478        5.811        2.797      244.965       94.467        0.149      346.248       24.355      864.430
05/01/2014  18:59:00     -333.071     -188.191       -9.570      147.746      127.857       76.042    21828.773    16347.423     5782.435        9.519        2.198      382.560       61.874        0.026      346.250       24.358      864.440
05/01/2014  19:00:00     -457.761     -243.671      -19.585      238.717      167.511       93.185    56986.005    28060.060     8683.405       18.150        4.686      518.576      103.887        0.040      346.221       24.308      864.440
05/01/2014  19:01:00     -299.904     -144.739      -12.100      170.777      136.136       69.884    29164.791    18532.880     4883.839        8.180        2.629      333.004       69.417        0.043      346.240       24.341      864.446
05/01/2014  19:02:00     -352.794     -121.380       10.925      244.326      159.103       93.658    59695.201    25313.847     8771.894       11.653        4.689      373.091       96.967        0.068      346.224       24.314      864.462
05/01/2014  19:03:00     -380.501     -137.336      -34.803      155.895      103.379       82.902    24303.218    10687.199     6872.807       10.335        2.093      404.527       75.035        0.034      346.221       24.308      864.483
05/01/2014  19:04:00     -440.053      -89.429      -16.574      213.099      148.260       81.912    45411.098    21981.004     6709.528       13.800        3.705      449.048       96.354        0.046      346.187       24.251      864.502
05/01/2014  19:05:00     -279.500      -16.642       -1.635      181.499      130.334       69.208    32941.725    16987.038     4789.801        6.655        2.736      279.995       83.471        0.089      346.198       24.268      864.516
05/01/2014  19:06:00     -371.076        1.196      -20.458      228.034      137.649       96.726    51999.708    18947.362     9355.836       10.919        4.015      371.078      106.145        0.082      346.186       24.248      864.514
05/01/2014  19:07:00     -383.027      -44.709       -6.436      204.350      174.373       92.528    41758.956    30405.911     8561.396       11.472        4.036      385.628      108.058        0.079      346.165       24.213      864.514
05/01/2014  19:08:00     -391.236       -3.289      -13.724      191.903      148.953       81.245    36826.825    22187.023     6600.771       10.943        3.281      391.250       83.778        0.046      346.180       24.238      864.500
05/01/2014  19:09:00     -490.753     -204.256      -24.047      164.524      128.442       84.976    27068.237    16497.242     7220.894       16.695        2.539      531.563       86.189        0.026      346.143       24.175      864.496
05/01/2014  19:10:00     -448.119     -142.768      -21.352      209.157      144.589       83.659    43746.783    20905.872     6998.800       14.664        3.583      470.312       89.153        0.036      346.154       24.195      864.493
05/01/2014  19:11:00     -242.243      -77.969        4.081      138.238      105.998       63.885    19109.845    11235.620     4081.352        4.960        1.721      254.482       74.000        0.085      346.135       24.162      864.508
05/01/2014  19:12:00     -165.411      -62.806       -5.558       96.578       95.324       54.724     9327.218     9086.750     2994.708        2.637        1.070      176.933       51.808        0.086      346.188       24.253      864.505
05/01/2014  19:13:00     -118.372      -60.796        9.181      139.718       96.303       63.045    19521.094     9274.290     3974.616        2.527        1.639      133.072       69.899        0.276      346.167       24.217      864.511
05/01/2014  19:14:00      -75.172      -54.237       26.014      131.299       70.889       54.292    17239.462     5025.200     2947.605        1.724        1.261       92.696       65.761        0.503      346.164       24.212      864.511
05/01/2014  19:15:00     -236.950      -44.418      -13.548      140.166      118.146       60.796    19646.487    13958.363     3696.178        4.779        1.865      241.077       60.254        0.062      346.163       24.211      864.502
05/01/2014  19:16:00     -421.914      -79.081       -6.759      224.500      153.698       95.702    50400.039    23622.959     9158.939       13.373        4.159      429.261      117.491        0.075      346.115       24.126      864.492
05/01/2014  19:17:00     -251.218      -30.791        2.360      130.193      120.445       71.945    16950.199    14507.009     5176.016        5.034        1.832      253.098       72.619        0.082      346.099       24.099      864.499
05/01/2014  19:18:00     -300.474     -127.106       -6.247      199.450      135.926       75.121    39780.149    18475.923     5643.209        8.518        3.195      326.252       72.783        0.050      346.100       24.102      864.513
05/01/2014  19:19:00     -390.236       -8.679      -13.541      211.551      121.950       98.653    44754.032    14871.923     9732.401       11.094        3.468      390.332      111.681        0.082      346.068       24.047      864.518
05/01/2014  19:20:00     -379.762      -28.989        1.251      167.313      155.582       74.702    27993.559    24205.913     5580.409       10.141        2.889      380.867       85.992        0.051      346.061       24.034      864.515
05/01/2014  19:21:00     -463.847     -163.866      -23.176      243.313      167.852       84.702    59201.113    28174.368     7174.482       16.853        4.727      491.941      105.998        0.046      346.040       23.997      864.488
05/01/2014  19:22:00     -220.724     -125.001        2.559      140.056      108.530       66.047    19615.555    11778.740     4362.207        5.005        1.788      253.662       64.045        0.064      346.041       23.999      864.490
05/01/2014  19:23:00     -160.947      -33.908       -9.992      132.433       90.339       62.810    17538.537     8161.216     3945.119        2.839        1.482      164.480       64.650        0.154      346.053       24.021      864.520
05/01/2014  19:24:00     -261.728      -10.075       -7.089      122.213       99.585       65.683    14936.029     9917.207     4314.197        4.890        1.458      261.921       60.590        0.054      346.014       23.955      864.519
05/01/2014  19:25:00     -419.382      -55.821      -19.676      216.133      151.790       80.466    46713.393    23040.309     6474.818       12.779        3.811      423.080       98.276        0.054      345.975       23.889      864.501
05/01/2014  19:26:00     -307.073     -112.375        0.123      188.015      142.989       85.086    35349.786    20445.860     7239.623        8.497        3.152      326.990       91.757        0.079      345.963       23.866      864.487
05/01/2014  19:27:00     -381.696     -173.750       -6.770      239.470      174.762       84.272    57345.718    30541.678     7101.827       13.544        4.749      419.381      101.517        0.059      345.942       23.830      864.507
05/01/2014  19:28:00     -292.956     -136.073        4.539      158.634      107.741       76.767    25164.698    11608.031     5893.167        7.350        2.133      323.015       80.230        0.062      345.922       23.796      864.534
05/01/2014  19:29:00     -131.667     -102.198        6.374      149.104      118.011       79.006    22232.150    13926.615     6241.927        3.510        2.120      166.675       73.748        0.196      345.930       23.811      864.537
05/01/2014  19:30:00     -280.288      -38.557      -12.762      125.530      118.291       61.482    15757.890    13992.773     3780.088        5.686        1.677      282.927       52.702        0.035      345.927       23.802      864.552
05/01/2014  19:31:00     -255.000     -138.113       -9.283      154.948      159.991       92.089    24008.794    25597.118     8480.412        7.112        2.904      290.000       87.383        0.091      345.906       23.768      864.548
05/01/2014  19:32:00     -275.086      -62.637      -13.521      162.365      129.385       78.978    26362.424    16740.395     6237.475        6.455        2.467      282.127       78.417        0.077      345.875       23.716      864.568
05/01/2014  19:33:00     -351.104     -112.806      -19.443      148.130      115.940       63.270    21942.620    13442.044     4003.133        8.787        1.969      368.781       53.491        0.021      345.865       23.698      864.599
05/01/2014  19:34:00     -251.201      -18.990      -18.535      119.976       99.537       52.670    14394.211     9907.610     2774.141        4.544        1.354      251.918       62.087        0.061      345.843       23.659      864.611
05/01/2014  19:35:00     -354.058      -85.069      -21.773      137.291      108.694       64.882    18848.870    11814.472     4209.732        8.396        1.744      364.134       66.978        0.034      345.822       23.624      864.602
05/01/2014  19:36:00     -305.581      -95.794      -11.168      149.662      100.582       74.335    22398.852    10116.835     5525.680        7.035        1.902      320.244       75.506        0.056      345.806       23.598      864.599
05/01/2014  19:37:00     -331.463      -46.846      -17.674      142.924       92.115       65.314    20427.266     8485.223     4265.861        7.277        1.659      334.757       69.148        0.043      345.781       23.553      864.611
05/01/2014  19:38:00     -308.430     -132.944      -12.179      148.670      123.859       74.807    22102.688    15341.054     5596.037        7.799        2.152      335.862       62.450        0.035      345.768       23.532      864.617
05/01/2014  19:39:00     -158.533      -27.636       27.983      184.050      113.826       86.614    33874.555    12956.274     7502.071        4.050        2.717      160.924       76.646        0.227      345.742       23.488      864.596
05/01/2014  19:40:00     -330.268      -36.160      -11.062      166.114      149.253       88.273    27593.911    22276.404     7792.185        8.407        2.883      332.242       79.950        0.058      345.749       23.500      864.593
05/01/2014  19:41:00     -422.874      -17.897      -15.190      267.736      139.905       85.786    71682.510    19573.327     7359.249       13.897        4.931      423.253      108.622        0.066      345.737       23.478      864.598
05/01/2014  19:42:00     -247.642      -67.342        5.205      171.487      139.450       71.650    29407.787    19446.253     5133.740        5.993        2.699      256.635       81.830        0.102      345.720       23.449      864.624
05/01/2014  19:43:00     -381.394     -190.515      -18.551      220.883      137.197       76.966    48789.290    18823.139     5923.718       12.780        3.677      426.330       92.622        0.047      345.720       23.450      864.624
05/01/2014  19:44:00     -268.442     -127.892       -7.244      163.702      139.438       72.750    26798.374    19442.933     5292.523        6.999        2.577      297.350       73.371        0.061      345.694       23.404      864.627
05/01/2014  19:45:00     -150.736      -31.527       18.324      126.887      112.949       62.409    16100.343    12757.516     3894.859        2.840        1.638      153.998       53.346        0.120      345.664       23.353      864.641
05/01/2014  19:46:00     -389.602     -172.911      -35.754      208.046      103.239       82.907    43283.102    10658.251     6873.502       12.188        3.041      426.249       97.747        0.053      345.679       23.380      864.666
05/01/2014  19:47:00     -250.562      -72.969       -7.990      195.052      114.552       79.726    38045.200    13122.265     6356.156        6.284        2.876      260.971       89.180        0.117      345.657       23.341      864.678
05/01/2014  19:48:00     -235.832      -43.471        1.263      140.358      107.251       57.641    19700.365    11502.735     3322.537        4.601        1.726      239.805       67.320        0.079      345.626       23.287      864.690
05/01/2014  19:49:00     -312.317     -126.164      -11.178      116.237      139.561       70.051    13511.087    19477.137     4907.197        7.573        1.895      336.837       70.605        0.044      345.614       23.266      864.706
05/01/2014  19:50:00     -363.620      -70.096      -17.379      116.328       92.286       63.286    13532.169     8516.641     4005.170        8.174        1.303      370.314       63.992        0.030      345.598       23.239      864.720
05/01/2014  19:51:00     -239.032      -75.327       -7.411      136.920      108.188       64.278    18747.146    11704.570     4131.698        4.872        1.729      250.620       61.528        0.060      345.567       23.186      864.728
05/01/2014  19:52:00     -143.010      -45.829       -1.929      164.693      132.549       77.756    27123.661    17569.131     6046.053        3.664        2.537      150.174       79.226        0.278      345.523       23.113      864.733
05/01/2014  19:53:00     -479.523      -84.204      -36.989      182.899      198.617       82.967    33452.006    39448.698     6883.584       15.908        3.989      486.860       65.227        0.018      345.569       23.191      864.733
05/01/2014  19:54:00     -325.815     -152.453      -13.920      208.719      115.802       71.264    43563.568    13410.155     5078.573        9.581        3.103      359.718       79.392        0.049      345.565       23.183      864.725
05/01/2014  19:55:00     -280.405     -105.285      -17.474      122.964       83.172       56.420    15120.140     6917.648     3183.248        5.761        1.261      299.519       64.521        0.046      345.530       23.122      864.743
05/01/2014  19:56:00     -175.920      -52.719       19.622      135.670      116.629       61.100    18406.318    13602.438     3733.264        3.492        1.787      183.649       57.400        0.098      345.509       23.087      864.748
05/01/2014  19:57:00     -312.299      -61.170       -1.584      134.187      150.290       69.951    18006.105    22587.033     4893.077        7.337        2.274      318.233       61.751        0.038      345.464       23.008      864.770
05/01/2014  19:58:00     -236.692      -91.464       19.918      204.171      120.145       81.066    41685.810    14434.761     6571.767        6.373        3.135      253.749      105.680        0.173      345.448       22.983      864.793
05/01/2014  19:59:00     -180.205      -43.979       11.277      110.358      100.724       48.884    12178.897    10145.257     2389.603        2.962        1.236      185.494       42.359        0.052      345.449       22.984      864.798
05/01/2014  20:00:00     -358.511      -41.193      -18.620      171.718      113.010       57.628    29487.013    12771.276     3320.950        8.807        2.279      360.870       51.856        0.021      345.439       22.966      864.780
05/01/2014  20:01:00     -290.742     -128.985       -7.834      177.390      141.708       73.461    31467.143    20081.019     5396.546        7.908        2.847      318.069       90.026        0.080      345.408       22.913      864.762
05/01/2014  20:02:00     -316.122     -106.869      -14.220      236.147      150.081       79.691    55765.394    22524.401     6350.695        9.808        4.232      333.698       83.175        0.062      345.407       22.913      864.760
05/01/2014  20:03:00     -252.311     -157.407        3.301      132.464      128.229       73.186    17546.601    16442.767     5356.230        6.389        1.967      297.385       75.402        0.064      345.383       22.871      864.781
05/01/2014  20:04:00     -393.920      -56.608      -19.084      184.241      143.909       80.084    33944.683    20709.931     6413.485       10.989        3.053      397.966       87.531        0.048      345.385       22.873      864.792
05/01/2014  20:05:00     -247.835     -117.365       -8.331      119.957       93.567       53.724    14389.656     8754.849     2886.224        5.064        1.302      274.220       60.160        0.048      345.361       22.833      864.807
05/01/2014  20:06:00     -319.894     -163.850      -14.801      182.526      143.655       83.691    33315.823    20636.790     7004.101        9.517        3.048      359.415       84.019        0.055      345.364       22.838      864.796
05/01/2014  20:07:00     -392.075     -229.392      -10.194      252.098      178.625       97.211    63553.471    31906.956     9449.902       15.566        5.246      454.250       95.209        0.044      345.351       22.814      864.808
05/01/2014  20:08:00     -378.927     -132.522        1.006      160.324      172.759       80.405    25703.670    29845.844     6464.917       11.157        3.101      401.432       88.116        0.048      345.338       22.794      864.824
05/01/2014  20:09:00     -441.866     -123.085      -45.786      225.602      178.092      102.790    50896.141    31716.618    10565.751       15.282        4.659      458.689      103.442        0.051      345.346       22.805      864.835
05/01/2014  20:10:00     -346.472      -57.786      -12.191      151.230      147.535       68.210    22870.382    21766.659     4652.646        8.640        2.464      351.258       70.068        0.040      345.330       22.779      864.846
05/01/2014  20:11:00     -363.874      -92.203      -13.272      204.055      159.831       90.454    41638.509    25546.072     8181.915       10.821        3.768      375.374       95.856        0.065      345.291       22.712      864.852
05/01/2014  20:12:00     -250.251      -92.273      -10.783      181.191      105.802       85.297    32830.126    11194.024     7275.510        6.127        2.565      266.721       59.441        0.050      345.294       22.717      864.844
05/01/2014  20:13:00     -443.293     -100.683      -11.651      288.807      201.858      107.469    83409.759    40746.837    11549.503       17.122        6.785      454.583      134.154        0.087      345.266       22.670      864.831
05/01/2014  20:14:00     -369.362      -43.137      -13.583      199.559      163.048       75.574    39823.777    26584.708     5711.387       10.528        3.606      371.873       81.532        0.048      345.213       22.579      864.846
05/01/2014  20:15:00     -386.415      -92.881      -26.562      227.552      138.160       84.381    51779.755    19088.110     7120.109       11.830        3.899      397.421       86.223        0.047      345.216       22.585      864.860
05/01/2014  20:16:00     -240.382      -13.433       14.509      179.938      138.351       75.437    32377.862    19141.030     5690.729        5.768        2.860      240.757       82.600        0.118      345.173       22.511      864.869
05/01/2014  20:17:00     -412.247      -41.632       -8.014      231.148      145.186       79.815    53429.597    21079.026     6370.381       12.630        4.044      414.343       94.390        0.052      345.165       22.495      864.900
05/01/2014  20:18:00     -295.773       -6.331       -4.337      194.174      114.356       77.091    37703.538    13077.305     5943.000        7.212        2.836      295.840       87.948        0.088      345.124       22.429      864.884
05/01/2014  20:19:00     -313.491       -9.116      -10.299      160.715      129.748       75.127    25829.428    16834.454     5644.043        7.338        2.415      313.624       78.577        0.063      345.108       22.400      864.875
05/01/2014  20:20:00     -291.583     -172.487      -26.726      197.499      163.192       94.570    39005.829    26631.707     8943.557        9.502        3.729      338.781      108.953        0.103      345.101       22.389      864.865
05/01/2014  20:21:00     -324.359     -184.409       -1.839      221.915      152.054       94.299    49246.129    23120.271     8892.286       11.022        4.063      373.116      101.690        0.074      345.094       22.376      864.862
05/01/2014  20:22:00     -308.703     -181.373       -1.843      196.702      156.162       80.128    38691.778    24386.621     6420.419        9.883        3.475      358.041       93.838        0.069      345.075       22.343      864.899
05/01/2014  20:23:00     -307.639     -125.350       -6.609      164.516      139.628       69.773    27065.574    19496.100     4868.281        8.090        2.571      332.196       72.633        0.048      345.063       22.324      864.907
05/01/2014  20:24:00     -441.509     -149.276        3.549      215.377      181.950       91.171    46387.041    33105.933     8312.073       15.250        4.390      466.062       99.851        0.046      345.034       22.275      864.922
05/01/2014  20:25:00     -466.342     -167.292      -39.472      239.777      213.183      102.550    57492.804    45446.935    10516.581       18.022        5.673      495.440      113.618        0.053      345.030       22.267      864.949
05/01/2014  20:26:00     -405.342     -144.716      -19.884      197.996      168.555       95.246    39202.326    28410.767     9071.839       13.115        3.834      430.401       94.734        0.048      345.002       22.220      864.972
05/01/2014  20:27:00     -449.418      -72.100      -20.768      229.856      158.598       82.185    52833.863    25153.192     6754.454       14.616        4.237      455.165       88.350        0.038      344.992       22.199      864.987
05/01/2014  20:28:00     -501.435      -37.336      -32.454      193.883      107.187       82.458    37590.563    11489.012     6799.345       15.487        2.794      502.823      101.500        0.041      344.957       22.141      864.984
05/01/2014  20:29:00     -257.697      -69.435       -7.633      159.594      105.089       73.723    25470.400    11043.619     5435.031        5.661        2.097      266.888       75.601        0.080      344.919       22.076      864.990
05/01/2014  20:30:00     -188.663      -44.815        5.543      166.284      141.992       70.972    27650.463    20161.602     5037.039        4.523        2.642      193.913       78.533        0.164      344.892       22.031      865.016
05/01/2014  20:31:00     -416.739     -258.428       -8.055      234.470      197.912      111.218    54976.131    39169.242    12369.393       17.350        5.326      490.364      125.281        0.065      344.927       22.090      865.009
05/01/2014  20:32:00     -521.793        6.725      -42.898      158.437      145.080       92.343    25102.227    21048.199     8527.177       16.440        2.734      521.836       85.620        0.027      344.913       22.065      865.020
05/01/2014  20:33:00     -478.917      -13.589      -38.297      258.032      144.615       80.930    66580.346    20913.632     6549.642       16.251        4.702      479.110      110.785        0.053      344.880       22.010      865.014
05/01/2014  20:34:00     -414.545      -87.898      -40.006      282.671      165.372      112.226    79903.075    27347.829    12594.775       15.049        5.992      423.761      134.997        0.101      344.889       22.025      865.011
05/01/2014  20:35:00     -485.873     -109.274      -28.253      382.414      213.902      120.844   146240.349    45754.114    14603.297       22.766       10.330      498.010      167.970        0.114      344.890       22.026      864.995
05/01/2014  20:36:00     -319.866     -219.021       -1.426      199.281      135.270       99.161    39712.984    18297.888     9832.935       10.905        3.392      387.665      102.740        0.070      344.873       21.998      865.024
05/01/2014  20:37:00     -565.197     -171.688      -28.582      170.960      180.412      100.406    29227.311    32548.588    10081.449       21.078        3.593      590.698       72.728        0.015      344.887       22.021      865.041
05/01/2014  20:38:00     -487.384     -206.202      -18.064      231.382      184.970      106.588    53537.796    34213.800    11361.014       18.973        4.956      529.210      111.710        0.045      344.849       21.955      865.062
05/01/2014  20:39:00     -340.950      -22.203      -12.779      162.456      123.212       77.351    26391.825    15181.077     5983.199        8.222        2.378      341.672       84.933        0.062      344.822       21.910      865.074
05/01/2014  20:40:00     -293.132      -53.994        2.223      194.513      149.301       75.997    37835.468    22290.860     5775.478        7.736        3.295      298.063       92.398        0.096      344.769       21.818      865.074
05/01/2014  20:41:00     -498.464      -84.215       -5.271      248.024      195.816       98.393    61515.895    38343.988     9681.206       18.254        5.477      505.528       97.862        0.037      344.783       21.843      865.064
05/01/2014  20:42:00     -451.064      -37.154      -31.174      168.790      150.992       82.828    28489.907    22798.446     6860.448       13.197        2.907      452.592       84.023        0.034      344.770       21.822      865.093
05/01/2014  20:43:00     -429.631     -216.742      -38.688      194.296      194.023       97.594    37750.918    37645.045     9524.494       15.897        4.246      481.207       96.639        0.040      344.785       21.846      865.073
05/01/2014  20:44:00     -298.690     -109.517      -11.965      302.615      156.576       88.951    91575.726    24516.037     7912.359       11.265        6.200      318.135       92.809        0.085      344.757       21.800      865.109
05/01/2014  20:45:00     -277.329      -97.373        6.110      193.611      156.940       79.470    37485.168    24630.173     6315.449        7.742        3.422      293.926       93.282        0.101      344.747       21.782      865.133
05/01/2014  20:46:00     -202.044       -4.794       -3.804      208.396      102.834       66.391    43428.732    10574.760     4407.795        4.962        2.921      202.100       87.260        0.186      344.676       21.662      865.118
05/01/2014  20:47:00     -348.388      -40.711      -28.723      149.952      153.741       72.305    22485.670    23636.441     5228.028        8.759        2.568      350.758       80.620        0.053      344.662       21.637      865.128
05/01/2014  20:48:00     -315.992      -68.433       10.412      178.237      185.181      102.600    31768.272    34291.844    10526.742        9.060        3.829      323.317      103.799        0.103      344.643       21.604      865.124
05/01/2014  20:49:00     -346.491      -72.510      -16.677      207.939      187.186       93.783    43238.810    35038.443     8795.167       10.631        4.354      353.997      104.191        0.087      344.634       21.589      865.137
05/01/2014  20:50:00     -315.970      -69.864      -10.944      176.564      180.067       84.053    31174.866    32424.081     7064.852        8.774        3.533      323.602       91.036        0.079      344.647       21.611      865.125
05/01/2014  20:51:00     -343.039      -86.103      -19.472      187.782      146.559       87.789    35261.964    21479.497     7706.828        9.495        3.222      353.680      101.004        0.082      344.645       21.607      865.120
05/01/2014  20:52:00     -334.631     -120.316        1.239      217.035      173.675       82.680    47104.311    30162.922     6835.919       10.526        4.205      355.603       85.616        0.058      344.623       21.570      865.146
05/01/2014  20:53:00     -287.487     -105.896       -6.615      163.471      124.160       78.698    26722.926    15415.660     6193.418        7.111        2.417      306.371       78.582        0.066      344.604       21.537      865.142
05/01/2014  20:54:00     -216.429      -87.726       32.044      185.473      154.403       76.336    34400.373    23840.350     5827.210        5.980        3.203      233.532       96.782        0.172      344.554       21.453      865.172
05/01/2014  20:55:00     -236.041       -5.730      -15.758      144.671       89.645       55.611    20929.815     8036.267     3092.552        4.402        1.603      236.111       56.968        0.058      344.557       21.458      865.155
05/01/2014  20:56:00     -464.979     -109.488      -21.284      229.912      150.753       96.814    52859.515    22726.615     9372.996       15.679        4.248      477.695      120.641        0.064      344.536       21.420      865.156
05/01/2014  20:57:00     -520.534     -136.009      -20.693      207.326      141.767       84.497    42984.278    20097.827     7139.702       18.004        3.511      538.009       96.897        0.032      344.533       21.415      865.158
05/01/2014  20:58:00     -306.105      -98.953        6.069      207.117      130.453       79.264    42897.652    17017.862     6282.837        8.485        3.310      321.702       87.617        0.074      344.497       21.354      865.127
05/01/2014  20:59:00     -262.239       -7.798       14.139      262.389      141.554      103.593    68848.113    20037.495    10731.412        8.430        4.981      262.355      132.929        0.257      344.506       21.369      865.144
05/01/2014  21:00:00     -575.524     -101.699      -29.171      218.808      198.148       87.414    47876.983    39262.613     7641.214       21.858        4.739      584.441       81.497        0.019      344.541       21.429      865.191
05/01/2014  21:01:00     -438.272     -100.091      -33.060      253.443      157.595       93.327    64233.489    24836.199     8709.898       15.047        4.889      449.556      108.656        0.058      344.500       21.358      865.214
05/01/2014  21:02:00     -408.131      -33.423      -20.165      224.881      129.773       85.818    50571.341    16840.909     7364.775       12.142        3.739      409.498      100.029        0.060      344.479       21.324      865.207
05/01/2014  21:03:00     -218.787       26.130       19.719      153.041      109.088       73.567    23421.621    11900.251     5412.104        4.483        2.037      220.342       79.984        0.132      344.420       21.222      865.208
05/01/2014  21:04:00     -283.887     -103.305       -7.420      141.336      125.376       81.296    19975.902    15719.217     6609.013        6.680        2.115      302.099       58.378        0.037      344.441       21.259      865.236
05/01/2014  21:05:00     -392.315      -34.345      -20.232      215.991      147.268       81.238    46652.273    21687.997     6599.597       11.520        3.747      393.815       81.976        0.043      344.409       21.204      865.264
05/01/2014  21:06:00     -366.220      -71.291      -10.549      209.407      137.065       82.916    43851.306    18786.800     6875.083       10.440        3.476      373.094       92.374        0.061      344.400       21.188      865.280
05/01/2014  21:07:00     -443.645     -129.815      -33.888      232.124      186.005      100.414    53881.618    34597.977    10083.039       15.667        4.928      462.248      100.002        0.047      344.405       21.196      865.264
05/01/2014  21:08:00     -464.080      -72.217      -10.220      169.784      148.366       81.604    28826.547    22012.509     6659.198       13.908        2.875      469.665       79.547        0.029      344.388       21.168      865.277
05/01/2014  21:09:00     -452.968      -91.034      -13.574      195.877      120.255       73.974    38367.739    14461.239     5472.115       13.596        2.915      462.025       74.875        0.026      344.369       21.136      865.247
05/01/2014  21:10:00     -535.601     -158.651      -24.120      180.560      194.567       82.619    32601.914    37856.373     6825.952       19.494        3.864      558.605       87.700        0.025      344.348       21.100      865.262
05/01/2014  21:11:00     -375.967      -63.756      -20.858      233.684      163.393       92.953    54608.368    26697.299     8640.264       11.788        4.497      381.335       96.134        0.064      344.316       21.046      865.294
05/01/2014  21:12:00     -380.898      -47.718      -14.491      159.117      191.598       76.184    25318.119    36709.931     5803.953       10.769        3.392      383.875       65.517        0.029      344.314       21.041      865.314
05/01/2014  21:13:00     -200.200     -125.215       -2.369      178.287      126.495       81.958    31786.124    16000.878     6717.081        5.512        2.725      236.133       83.945        0.126      344.270       20.969      865.322
05/01/2014  21:14:00     -373.359     -118.001      -26.577      159.303      158.418       76.381    25377.339    25096.372     5834.099       10.516        2.815      391.563       53.774        0.019      344.284       20.989      865.327
05/01/2014  21:15:00     -289.577      -69.117       -1.406      150.788      137.904       78.012    22736.902    19017.492     6085.816        6.823        2.392      297.711       74.837        0.063      344.213       20.869      865.342
05/01/2014  21:16:00     -306.679      -88.057        3.246      209.389      132.720       77.670    43843.709    17614.503     6032.690        8.464        3.375      319.071       91.587        0.082      344.216       20.874      865.337
05/01/2014  21:17:00     -356.295      -48.497      -14.037      228.582      108.865       71.315    52249.727    11851.499     5085.814        9.933        3.459      359.580       80.495        0.050      344.190       20.829      865.365
05/01/2014  21:18:00     -280.303      -37.107      -12.476      153.614      142.683       72.593    23597.355    20358.341     5269.711        6.465        2.461      282.748       68.938        0.059      344.206       20.858      865.391
05/01/2014  21:19:00     -363.803       32.138      -24.121      198.112      108.708       74.390    39248.325    11817.346     5533.836        9.527        2.830      365.219       92.219        0.064      344.188       20.826      865.388
05/01/2014  21:20:00     -372.810      -54.323      -20.533      188.230      127.996       77.393    35430.466    16383.082     5989.651       10.007        2.890      376.747       79.966        0.045      344.196       20.842      865.397
05/01/2014  21:21:00     -405.079      -43.650       -0.018      259.494      168.981      104.023    67337.373    28554.538    10820.770       13.633        5.336      407.424      131.088        0.104      344.153       20.766      865.393
05/01/2014  21:22:00     -508.803      -37.939      -23.977      201.177      146.195       82.445    40472.189    21372.975     6797.155       16.475        3.432      510.215       95.674        0.035      344.170       20.795      865.401
05/01/2014  21:23:00     -385.773     -115.175      -23.058      167.785      131.465       81.665    28151.807    17283.078     6669.167       10.735        2.605      402.599       79.167        0.039      344.146       20.754      865.392
05/01/2014  21:24:00     -372.369      -64.680        9.428      186.217      163.878       90.923    34676.661    26856.108     8266.968       10.635        3.490      377.944       92.805        0.060      344.124       20.719      865.394
05/01/2014  21:25:00     -198.041      -76.981        3.560       87.325       79.834       51.496     7625.641     6373.482     2651.822        3.090        0.833      212.477       47.937        0.051      344.107       20.689      865.394
05/01/2014  21:26:00     -224.662      -94.915        1.516      185.180      146.750       83.276    34291.565    21535.652     6934.822        6.111        3.138      243.889      104.615        0.184      344.109       20.691      865.356
05/01/2014  21:27:00     -333.371     -123.471       -7.521      230.841      217.874      105.082    53287.440    47469.231    11042.132       11.910        5.590      355.501      110.785        0.097      344.122       20.715      865.351
05/01/2014  21:28:00     -604.500     -117.143      -37.403      273.234      191.391      100.686    74656.756    36630.633    10137.636       25.096        6.071      615.746      124.676        0.041      344.192       20.831      865.397
05/01/2014  21:29:00     -613.003     -121.893      -35.008      187.046      157.624       91.708    34986.115    24845.406     8410.328       23.004        3.412      625.004       93.165        0.022      344.166       20.790      865.462
05/01/2014  21:30:00     -311.862      -76.750      -11.101      226.771      157.165       72.288    51425.202    24700.740     5225.523        9.230        4.068      321.167      103.732        0.104      344.123       20.715      865.460
05/01/2014  21:31:00     -295.208      -74.453        1.063      187.800      131.152       81.573    35268.873    17200.867     6654.199        7.590        2.956      304.452       91.384        0.090      344.086       20.653      865.442
05/01/2014  21:32:00     -285.351      -67.531      -10.250      185.487      154.110       70.485    34405.494    23749.917     4968.150        7.459        3.156      293.233       76.466        0.068      344.064       20.614      865.456
05/01/2014  21:33:00     -356.136      -94.147      -26.339      194.750      148.436       80.078    37927.389    22033.316     6412.513       10.137        3.319      368.370       81.060        0.048      344.065       20.616      865.462
05/01/2014  21:34:00     -351.882     -189.356       -8.665      177.794      174.642       86.104    31610.644    30499.793     7413.886       11.462        3.476      399.595       72.763        0.033      344.058       20.604      865.461
05/01/2014  21:35:00     -503.686      -87.996      -22.917      238.245      185.076      104.582    56760.727    34253.242    10937.389       18.194        5.098      511.315      114.644        0.050      344.075       20.634      865.481
05/01/2014  21:36:00     -421.148      -97.814      -33.738      180.209      180.091       89.358    32475.106    32432.679     7984.861       13.047        3.645      432.358       76.415        0.031      344.112       20.698      865.513
05/01/2014  21:37:00     -423.143      -24.488      -30.979      161.012      127.556       70.717    25924.813    16270.634     5000.903       11.389        2.360      423.851       77.157        0.033      344.053       20.596      865.531
05/01/2014  21:38:00     -348.765      -48.786      -14.397      183.176      125.098       70.027    33553.402    15649.445     4903.779        8.915        2.705      352.160       73.036        0.043      344.014       20.529      865.542
05/01/2014  21:39:00     -411.396      -74.541      -21.873      140.112      144.064       81.510    19631.253    20754.457     6643.868       11.115        2.351      418.094       80.357        0.037      344.021       20.540      865.526
05/01/2014  21:40:00     -394.113       16.299      -13.395      186.798      131.264       89.557    34893.614    17230.144     8020.379       10.795        3.007      394.450       82.759        0.044      343.996       20.498      865.548
05/01/2014  21:41:00     -334.244      -91.596        0.095      177.689      146.624       79.805    31573.268    21498.471     6368.810        8.976        2.972      346.567       90.076        0.068      343.965       20.445      865.536
05/01/2014  21:42:00     -333.713      -60.599      -23.429      178.852      152.447       82.733    31987.948    23240.057     6844.736        8.882        3.104      339.171       79.959        0.056      343.968       20.450      865.534
05/01/2014  21:43:00     -434.484      -41.835      -20.382      210.160      153.685       84.378    44167.153    23619.101     7119.593       13.291        3.745      436.493      101.351        0.054      343.982       20.474      865.571
05/01/2014  21:44:00      -55.763       -0.356       34.035       97.738       87.364       54.034     9552.763     7632.530     2919.628        1.218        1.005       55.764       53.047        0.905      343.836       20.229      865.552
05/01/2014  21:45:00     -450.765     -112.417      -35.318      214.859      182.582       88.387    46164.569    33336.167     7812.334       15.218        4.366      464.571      103.738        0.050      343.935       20.394      865.554
05/01/2014  21:46:00     -343.310     -108.573       -6.537      188.016      161.940       74.511    35350.053    26224.695     5551.921        9.840        3.356      360.070       68.725        0.036      343.970       20.454      865.607
05/01/2014  21:47:00     -498.150      -40.244      -32.478      151.497      132.662       74.949    22951.407    17599.209     5617.319       14.849        2.308      499.773       72.887        0.021      343.976       20.463      865.642
05/01/2014  21:48:00     -350.965      -41.100      -32.515      163.459       85.477       61.451    26718.879     7306.291     3776.194        8.185        1.890      353.363       65.787        0.035      343.966       20.448      865.654
05/01/2014  21:49:00     -513.457      -19.660      -42.287      177.636      141.366       80.251    31554.575    19984.262     6440.279       16.188        2.899      513.833       87.272        0.029      343.951       20.421      865.660
05/01/2014  21:50:00     -391.122      -45.209      -30.798      150.030      117.411       67.126    22508.935    13785.409     4505.959        9.838        2.040      393.726       51.034        0.017      343.899       20.332      865.669
05/01/2014  21:51:00     -308.473      -92.761       -4.765      174.843      155.583       90.011    30570.008    24206.063     8102.042        8.332        3.144      322.118       88.924        0.076      343.866       20.278      865.697
05/01/2014  21:52:00     -334.359      -16.439      -13.518      172.917       97.864       68.388    29900.347     9577.319     4676.911        7.819        2.208      334.763       78.524        0.055      343.906       20.344      865.716
05/01/2014  21:53:00     -385.215      -47.981      -30.083      186.813      102.531       63.184    34899.033    10512.597     3992.251       10.049        2.470      388.192       82.037        0.045      343.917       20.362      865.708
05/01/2014  21:54:00     -234.424      -72.793       -5.043      117.503      111.027       54.418    13806.881    12327.056     2961.306        4.468        1.455      245.466       47.621        0.038      343.866       20.278      865.723
05/01/2014  21:55:00     -283.907      -98.486       -3.421      100.927      101.020       60.801    10186.343    10205.098     3696.723        5.720        1.204      300.504       51.974        0.030      343.854       20.255      865.757
05/01/2014  21:56:00     -400.383     -144.080      -29.163      157.505      129.332       68.809    24807.759    16726.796     4734.614       11.408        2.313      425.518       59.897        0.020      343.870       20.283      865.739
05/01/2014  21:57:00     -274.203      -45.158      -13.888      181.970       99.022       67.089    33113.180     9805.340     4500.921        6.241        2.371      277.897       82.834        0.089      343.824       20.206      865.770
05/01/2014  21:58:00     -358.076       17.688      -42.961      126.268      105.636       52.219    15943.623    11159.037     2726.867        8.010        1.491      358.513       51.227        0.020      343.839       20.230      865.800
05/01/2014  21:59:00     -246.245       -6.675      -21.414       94.107      123.932       56.049     8856.139    15359.175     3141.505        4.424        1.368      246.335       49.679        0.041      343.809       20.180      865.799
05/01/2014  22:00:00     -270.037       -0.180      -24.212       89.306       73.004       39.117     7975.555     5329.636     1530.113        4.417        0.742      270.037       40.035        0.022      343.795       20.155      865.835
05/01/2014  22:01:00     -263.462     -117.200       -4.817      151.339      125.123       67.714    22903.378    15655.821     4585.221        6.315        2.157      288.355       69.387        0.058      343.791       20.147      865.827
05/01/2014  22:02:00     -137.875      -29.619        2.821      110.271       61.216       41.399    12159.629     3747.350     1713.918        1.875        0.881      141.021       40.756        0.084      343.718       20.026      865.851
05/01/2014  22:03:00      -58.371        8.278       -2.422       27.710       33.914       25.155      767.839     1150.148      632.785        0.302        0.128       58.955       19.164        0.106      343.719       20.028      865.841
05/01/2014  22:04:00     -175.732      -39.127       -1.430      118.589       99.559       54.074    14063.447     9911.999     2923.956        2.965        1.345      180.035       48.608        0.073      343.677       19.954      865.867
05/01/2014  22:05:00     -200.200      -61.033      -17.021      123.612       69.921       45.941    15280.009     4888.902     2110.531        3.318        1.114      209.297       51.190        0.060      343.677       19.954      865.908
05/01/2014  22:06:00     -225.396       46.814      -28.994       91.273      100.298       57.412     8330.715    10059.654     3296.157        3.776        1.084      230.206       43.611        0.036      343.732       20.047      865.904
05/01/2014  22:07:00     -230.267       16.993      -26.631       88.287       80.079       49.049     7794.655     6412.594     2405.809        3.531        0.831      230.893       44.937        0.038      343.782       20.134      865.856
05/01/2014  22:08:00     -150.799      -48.953      -22.436       68.468       84.613       38.439     4687.843     7159.423     1477.532        1.948        0.666      158.546       16.947        0.011      343.732       20.048      865.854
05/01/2014  22:09:00     -293.000     -121.364       -8.543      155.657      115.699       52.215    24229.238    13386.288     2726.406        7.049        2.017      317.140       63.451        0.040      343.647       19.902      865.890
05/01/2014  22:10:00     -296.702       11.030      -22.045      170.797      126.826       67.374    29171.685    16084.950     4539.301        6.921        2.490      296.907       72.803        0.060      343.707       20.005      865.904
05/01/2014  22:11:00     -262.157      -40.524      -11.239      105.116      118.024       51.506    11049.439    13929.605     2652.862        4.906        1.382      265.270       53.564        0.041      343.713       20.014      865.891
05/01/2014  22:12:00     -175.560      -51.041       -4.942      106.788       94.792       52.947    11403.620     8985.436     2803.433        2.832        1.160      182.830       51.679        0.080      343.636       19.883      865.890
05/01/2014  22:13:00     -247.854     -102.164      -22.906       68.139       67.022       44.634     4642.903     4491.906     1992.156        4.176        0.556      268.084       18.514        0.005      343.633       19.877      865.911
05/01/2014  22:14:00     -143.234      -48.202       13.880      151.772      133.474       65.600    23034.841    17815.242     4303.322        3.408        2.258      151.127       80.795        0.286      343.585       19.799      865.896
05/01/2014  22:15:00     -350.483       13.513      -16.228      151.112      104.054       50.527    22834.841    10827.209     2553.000        7.974        1.811      350.743       67.070        0.037      343.589       19.804      865.927
05/01/2014  22:16:00     -226.275      -20.017       -4.127      112.571       74.078       49.991    12672.186     5487.551     2499.124        3.613        1.033      227.159       55.513        0.060      343.647       19.903      865.922
05/01/2014  22:17:00     -158.366      -39.994        8.696      136.397       94.000       49.280    18604.166     8835.989     2428.472        2.831        1.493      163.338       45.977        0.079      343.594       19.814      865.914
05/01/2014  22:18:00     -314.813      -81.177      -23.415      128.367       84.255       48.083    16477.979     7098.879     2311.974        6.606        1.294      325.111       49.462        0.023      343.667       19.936      865.922
05/01/2014  22:19:00     -131.148      -12.919        4.842       94.662       72.762       39.523     8960.936     5294.277     1562.091        1.660        0.791      131.782       41.490        0.099      343.626       19.869      865.905
05/01/2014  22:20:00     -159.470      -26.287       -9.153       58.612       61.235       32.891     3435.326     3749.677     1081.800        1.723        0.413      161.622       34.973        0.047      343.570       19.773      865.908
05/01/2014  22:21:00     -175.183      -50.717      -13.570      105.941       73.576       44.578    11223.564     5413.428     1987.173        2.603        0.931      182.377       30.858        0.029      343.530       19.706      865.936
05/01/2014  22:22:00     -115.965      -31.355        4.775      103.797       52.703       45.819    10773.724     2777.645     2099.362        1.505        0.783      120.130       53.500        0.198      343.477       19.615      865.926
05/01/2014  22:23:00     -159.205      -44.956      -10.192       67.736       62.620       34.845     4588.135     3921.214     1214.181        1.860        0.486      165.431       31.665        0.037      343.589       19.804      865.915
05/01/2014  22:24:00      -97.508        7.866       -7.414       60.443       59.566       36.263     3653.381     3548.118     1314.995        0.907        0.426       97.824       23.560        0.058      343.555       19.748      865.892
05/01/2014  22:25:00      -31.901       20.221       -6.106       41.897       36.420       21.996     1755.360     1326.443      483.841        0.251        0.178       37.769        9.663        0.065      343.489       19.637      865.911
05/01/2014  22:26:00     -151.682      -34.611       -8.456       46.721       73.432       26.944     2182.895     5392.220      725.999        1.629        0.415      155.581       14.301        0.008      343.521       19.689      865.949
05/01/2014  22:27:00      -87.708      -17.720       -4.360       56.317       86.538       49.095     3171.595     7488.876     2410.276        1.055        0.654       89.480       30.744        0.118      343.476       19.615      865.975
05/01/2014  22:28:00     -129.258        7.014      -13.548       55.889       50.390       35.755     3123.538     2539.201     1278.390        1.194        0.347      129.448       29.560        0.052      343.480       19.621      865.990
05/01/2014  22:29:00     -249.794       39.716      -20.997      115.360      122.691       54.421    13308.010    15053.145     2961.671        4.786        1.566      252.932       57.992        0.053      343.591       19.807      865.971
05/01/2014  22:30:00     -131.873       -1.524       -8.400       62.009       69.809       34.511     3845.055     4873.239     1191.016        1.368        0.495      131.882       32.162        0.059      343.490       19.639      865.960
05/01/2014  22:31:00     -124.293       82.328      -26.245       54.331       60.353       28.376     2951.874     3642.519      805.218        1.516        0.370      149.086       20.629        0.019      343.487       19.633      866.003
05/01/2014  22:32:00     -175.016       11.919      -10.268       88.401       85.733       62.396     7814.762     7350.183     3893.222        2.496        0.953      175.421       33.525        0.037      343.467       19.597      866.000
05/01/2014  22:33:00      -89.922       94.021      -19.212       57.433       73.117       44.170     3298.545     5346.162     1950.953        1.394        0.530      130.099       30.954        0.057      343.375       19.444      866.015
05/01/2014  22:34:00      -72.768      118.368      -12.927       55.522       59.233       35.643     3082.727     3508.522     1270.393        1.367        0.393      138.947       32.653        0.055      343.395       19.476      866.052
05/01/2014  22:35:00     -103.393       32.793      -13.185       48.457       56.928       25.037     2348.116     3240.767      626.832        0.908        0.311      108.468       18.441        0.029      343.374       19.440      866.064
05/01/2014  22:36:00     -146.280      -64.013      -16.836       81.921       67.723       42.535     6711.089     4586.426     1809.267        1.944        0.655      159.673       34.812        0.048      343.414       19.507      866.080
05/01/2014  22:37:00     -136.029      163.313      -19.611      104.998      101.543       71.838    11024.488    10310.997     5160.719        3.602        1.325      212.544       74.873        0.124      343.443       19.556      866.071
05/01/2014  22:38:00     -163.819       92.859      -13.511      115.201       88.106       47.440    13271.182     7762.710     2250.510        2.946        1.164      188.307       49.567        0.069      343.481       19.620      866.077
05/01/2014  22:39:00     -172.383       80.676      -25.036       96.416       88.561       52.856     9296.039     7842.971     2793.725        2.839        0.997      190.327       60.089        0.100      343.502       19.657      866.083
05/01/2014  22:40:00     -175.614      -74.623       -2.788       83.044       71.034       54.904     6896.306     5045.882     3014.443        2.568        0.748      190.811       35.827        0.035      343.388       19.461      866.092
05/01/2014  22:41:00     -218.500      -74.901      -12.740      122.317      101.000       46.774    14961.496    10201.054     2187.819        4.043        1.368      230.981       46.974        0.041      343.380       19.448      866.095
05/01/2014  22:42:00     -324.503      -44.924      -15.489       99.631      122.862       57.323     9926.388    15095.087     3285.947        6.793        1.415      327.598       39.538        0.015      343.438       19.547      866.098
05/01/2014  22:43:00     -318.942      -81.761      -15.700       81.818       98.685       46.328     6694.200     9738.650     2146.264        6.361        0.929      329.255       41.064        0.016      343.421       19.518      866.086
05/01/2014  22:44:00     -306.515      -38.354      -21.727      137.303       91.580       61.585    18852.155     8386.987     3792.773        6.346        1.552      308.906       69.112        0.050      343.414       19.507      866.092
05/01/2014  22:45:00     -400.480      -56.621      -26.602      139.344      116.659       66.070    19416.639    13609.337     4365.276       10.084        1.870      404.463       65.999        0.027      343.428       19.530      866.084
05/01/2014  22:46:00     -219.267     -121.427        3.335      129.115      101.993       62.403    16670.666    10402.516     3894.177        4.689        1.548      250.644       70.264        0.079      343.335       19.372      866.064
05/01/2014  22:47:00     -346.460     -107.912      -15.204      132.353      115.465       61.926    17517.348    13332.090     3834.820        8.329        1.734      362.877       68.377        0.036      343.416       19.509      866.074
05/01/2014  22:48:00     -309.856      -99.354       -7.438      110.268      110.491       62.217    12159.104    12208.344     3870.994        6.708        1.412      325.395       54.899        0.028      343.409       19.497      866.071
05/01/2014  22:49:00     -291.689     -114.421      -11.468      190.101      123.832       76.124    36138.397    15334.330     5794.789        7.778        2.863      313.328      101.811        0.106      343.408       19.496      866.064
05/01/2014  22:50:00     -336.831      -57.321      -16.365      128.930      121.754       58.890    16622.992    14823.998     3467.984        7.595        1.746      341.674       66.862        0.038      343.424       19.523      866.067
05/01/2014  22:51:00     -264.865      -38.017       -5.314      115.597       89.614       54.226    13362.669     8030.679     2940.469        4.798        1.217      267.580       53.257        0.040      343.347       19.392      866.069
05/01/2014  22:52:00     -277.528      -34.732      -11.758      143.221       85.875       55.940    20512.287     7374.483     3129.311        5.468        1.551      279.693       58.170        0.043      343.402       19.486      866.048
05/01/2014  22:53:00     -224.113      -15.935      -14.076      152.475       88.555       56.680    23248.623     7842.033     3212.623        4.248        1.715      224.679       73.154        0.106      343.349       19.397      866.037
05/01/2014  22:54:00     -267.175      -50.205       -8.171      149.550       95.353       57.559    22365.067     9092.159     3313.023        5.436        1.739      271.851       69.737        0.066      343.317       19.341      866.033
05/01/2014  22:55:00     -408.461     -134.756      -13.699      126.553      111.795       60.700    16015.591    12498.180     3684.432       10.869        1.610      430.116       61.260        0.020      343.399       19.479      866.002
05/01/2014  22:56:00     -317.718     -131.252      -13.677      146.221      108.888       60.310    21380.439    11856.515     3637.298        7.761        1.844      343.761       72.068        0.044      343.335       19.371      865.983
05/01/2014  22:57:00     -330.937      -73.075       -7.908      168.192      124.170       68.446    28288.566    15418.155     4684.821        8.165        2.420      338.909       76.068        0.050      343.365       19.422      865.967
05/01/2014  22:58:00     -344.976      -56.323      -20.546       94.416      104.721       50.480     8914.301    10966.476     2548.203        7.251        1.121      349.543       43.730        0.016      343.399       19.480      865.961
05/01/2014  22:59:00     -345.495      -87.579       -7.396      150.775      110.109       58.235    22733.201    12124.012     3391.278        8.266        1.912      356.422       63.856        0.032      343.348       19.394      865.972
05/01/2014  23:00:00     -230.641      -66.360        0.575      126.212       97.481       62.334    15929.402     9502.601     3885.522        4.345        1.466      239.998       67.504        0.079      343.303       19.317      865.973
05/01/2014  23:01:00     -312.702      -94.132       -8.056      130.219      101.043       62.417    16957.018    10209.657     3895.878        6.888        1.553      326.563       59.139        0.033      343.309       19.326      865.970
05/01/2014  23:02:00     -428.344      -43.776      -28.530      121.232       91.694       53.808    14697.107     8407.789     2895.331       10.610        1.300      430.575       56.644        0.017      343.325       19.352      865.972
05/01/2014  23:03:00     -368.610      -69.413      -41.297      127.388      100.480       49.848    16227.805    10096.172     2484.787        8.560        1.440      375.089       46.419        0.015      343.327       19.358      865.965
05/01/2014  23:04:00     -297.968     -112.522      -34.056      106.631       91.593       56.102    11370.235     8389.327     3147.467        6.275        1.145      318.506       45.686        0.021      343.259       19.239      865.973
05/01/2014  23:05:00     -325.367      -93.860      -22.690       81.005       83.664       44.081     6561.879     6999.646     1943.130        6.534        0.775      338.634       31.562        0.009      343.238       19.203      865.996
05/01/2014  23:06:00     -341.915      -10.221      -22.490      107.860       92.084       46.668    11633.748     8479.406     2177.874        6.990        1.115      342.067       39.003        0.013      343.213       19.161      866.009
05/01/2014  23:07:00     -294.167      -59.277      -24.054       68.360       84.189       41.253     4673.036     7087.849     1701.843        5.204        0.673      300.080       30.006        0.010      343.220       19.174      866.002
05/01/2014  23:08:00     -274.862     -105.652        0.047      137.620      107.981       62.397    18939.315    11659.909     3893.343        6.060        1.725      294.469       75.035        0.065      343.171       19.092      865.982
05/01/2014  23:09:00     -359.706       26.002      -22.465      124.887       84.771       51.530    15596.649     7186.088     2655.368        7.800        1.272      360.644       60.351        0.028      343.195       19.132      865.979
05/01/2014  23:10:00     -303.275      -49.288      -26.771      107.181      107.677       47.784    11487.712    11594.268     2283.289        6.024        1.268      307.254       30.295        0.010      343.153       19.060      865.952
05/01/2014  23:11:00     -278.947      -43.469      -14.637      146.918      103.824       55.526    21584.917    10779.390     3083.100        5.767        1.772      282.313       70.948        0.063      343.147       19.051      865.945
05/01/2014  23:12:00     -450.070      -40.003      -43.769      162.264       95.660       66.683    26329.727     9150.814     4446.676       12.299        1.996      451.844       75.528        0.028      343.207       19.153      865.922
05/01/2014  23:13:00     -397.007     -104.164      -28.549      124.052       97.333       59.706    15388.908     9473.679     3564.798        9.885        1.421      410.444       57.094        0.019      343.198       19.136      865.903
05/01/2014  23:14:00     -358.998     -105.529      -16.869      128.214      122.362       57.034    16438.855    14972.343     3252.886        8.748        1.733      374.187       56.842        0.023      343.210       19.157      865.901
05/01/2014  23:15:00     -374.015     -118.188       -7.343      123.529      103.131       65.231    15259.436    10636.040     4255.050        9.202        1.508      392.244       67.895        0.030      343.217       19.169      865.888
05/01/2014  23:16:00     -268.626      -79.512       -4.836      162.719      125.232       60.053    26477.482    15683.011     3606.373        6.213        2.288      280.146       75.483        0.073      343.167       19.085      865.885
05/01/2014  23:17:00     -301.766      -53.731       -9.657      121.195       88.875       60.728    14688.187     7898.685     3687.944        6.015        1.314      306.512       56.820        0.034      343.182       19.109      865.897
05/01/2014  23:18:00     -328.878     -114.317       -6.407      122.335      120.749       63.231    14965.963    14580.414     3998.146        7.740        1.677      348.180       48.256        0.019      343.185       19.113      865.896
05/01/2014  23:19:00     -321.725      -55.380       -4.786      147.290      102.055       63.900    21694.284    10415.189     4083.246        7.139        1.810      326.457       69.150        0.045      343.202       19.143      865.872
05/01/2014  23:20:00     -173.326      -26.331       -0.590      114.765       81.330       50.599    13170.974     6614.598     2560.249        2.654        1.117      175.314       58.109        0.110      343.113       18.993      865.883
05/01/2014  23:21:00     -238.131      -60.807       -8.531      110.457       97.199       48.850    12200.743     9447.644     2386.277        4.225        1.202      245.772       52.533        0.046      343.160       19.072      865.885
05/01/2014  23:22:00     -261.963      -64.238       -6.113      133.982      110.837       62.143    17951.271    12284.797     3861.765        5.344        1.705      269.724       65.292        0.059      343.111       18.988      865.900
05/01/2014  23:23:00     -240.340      -92.529       -8.536      113.574       88.422       56.190    12899.137     7818.476     3157.321        4.513        1.194      257.536       60.724        0.056      343.137       19.033      865.933
05/01/2014  23:24:00     -154.060       -6.777        6.361       89.807       76.097       51.882     8065.361     5790.717     2691.739        2.018        0.827      154.209       37.282        0.058      343.158       19.071      865.963
05/01/2014  23:25:00      -91.517      -14.629       -6.582      104.862       53.151       48.928    10995.960     2824.986     2393.906        1.242        0.811       92.679       42.681        0.212      343.091       18.957      865.973
05/01/2014  23:26:00     -188.605      -13.056      -17.281       98.861       61.206       29.862     9773.594     3746.157      891.763        2.522        0.721      189.056       22.469        0.014      343.117       19.001      865.991
05/01/2014  23:27:00     -131.442      -66.524       -1.176       76.731       75.198       43.325     5887.586     5654.757     1877.023        1.756        0.671      147.317       40.953        0.077      343.112       18.994      866.016
05/01/2014  23:28:00      -58.702      -13.189       -3.874       78.321       54.696       36.478     6134.121     2991.684     1330.670        0.704        0.523       60.165       35.947        0.357      342.987       18.782      866.053
05/01/2014  23:29:00     -103.168        2.675        8.017       97.105       63.435       53.613     9429.394     4023.953     2874.381        1.352        0.816      103.202       58.008        0.316      343.133       19.030      866.074
05/01/2014  23:30:00      -19.886      -15.256        5.818       45.707       56.917       27.092     2089.158     3239.520      733.974        0.336        0.303       25.064       23.409        0.872      342.846       18.541      866.102
05/01/2014  23:31:00      -31.176      -67.880       -8.002       51.803       29.544       18.308     2683.523      872.872      335.197        0.477        0.195       74.697       19.861        0.071      343.143       19.046      866.109
05/01/2014  23:32:00       54.230       -5.172       31.604       44.072       36.602       24.656     1942.329     1339.700      607.924        0.393        0.194       54.476       26.805        0.242      342.367       17.725      866.118
05/01/2014  23:33:00       69.160      -13.702       -3.067       25.572       21.638       17.310      653.905      468.219      299.620        0.320        0.071       70.504       13.802        0.038      342.439       17.850      866.134
05/01/2014  23:34:00       60.554       28.835       23.844       39.569       17.830       25.328     1565.669      317.920      641.511        0.380        0.126       67.069       18.924        0.080      342.588       18.103      866.151
05/01/2014  23:35:00       58.240       53.802       11.716       34.463       29.103       34.285     1187.701      847.005     1175.466        0.482        0.161       79.288       22.316        0.079      342.684       18.265      866.145
05/01/2014  23:36:00       21.947       16.099       -2.091       18.261       24.726       19.276      333.474      611.368      371.574        0.103        0.066       27.219       11.849        0.190      342.613       18.147      866.167
05/01/2014  23:37:00       13.978      -37.394        9.213       30.837       24.532       16.990      950.891      601.821      288.676        0.176        0.092       39.921       12.857        0.104      342.908       18.646      866.176
05/01/2014  23:38:00       69.224      -16.006       27.678       31.965       24.543       26.901     1021.731      602.351      723.686        0.408        0.117       71.050       16.368        0.053      342.338       17.678      866.180
05/01/2014  23:39:00       70.543       -8.886       17.373       53.315       35.931       39.625     2842.453     1291.062     1570.105        0.553        0.285       71.101       27.249        0.147      342.217       17.472      866.167
05/01/2014  23:40:00       61.896        5.324       18.081       37.958       23.568       33.926     1440.806      555.436     1151.004        0.367        0.157       62.125       30.003        0.233      342.194       17.433      866.164
05/01/2014  23:41:00       59.927      -58.516      -10.043       43.906       27.809       27.906     1927.767      773.354      778.763        0.530        0.174       83.758       14.455        0.030      341.876       16.893      866.151
05/01/2014  23:42:00       75.533      -39.028      -11.351       36.671       43.447       31.248     1344.792     1887.625      976.446        0.578        0.210       85.020       14.802        0.030      342.145       17.351      866.161
05/01/2014  23:43:00       15.221      -49.853        2.396       20.243       31.125       23.009      409.764      968.753      529.423        0.231        0.095       52.125       20.955        0.162      342.635       18.184      866.178
05/01/2014  23:44:00       -6.147      -36.307       10.330       23.728       28.119       15.008      563.006      790.681      225.230        0.152        0.079       36.823       15.741        0.183      342.743       18.366      866.185
05/01/2014  23:45:00      -28.194      -31.387        4.175       23.451       22.408       20.947      549.934      502.100      438.765        0.164        0.075       42.190       15.155        0.129      342.763       18.402      866.187
05/01/2014  23:46:00      -34.002      -52.919       -9.414       27.543       32.357       16.166      758.590     1046.943      261.344        0.306        0.103       62.901       11.144        0.031      342.883       18.607      866.186
05/01/2014  23:47:00      -21.631        4.988        7.680       18.598       19.729       13.966      345.875      389.231      195.061        0.074        0.047       22.199        6.753        0.093      342.710       18.310      866.161
05/01/2014  23:48:00      -43.827       -8.457        5.393       25.021       22.541       12.098      626.043      508.118      146.372        0.165        0.064       44.635        9.676        0.047      342.811       18.480      866.154
05/01/2014  23:49:00      -21.695      -49.877       -2.961       18.313       36.379       20.317      335.366     1323.409      412.785        0.252        0.104       54.391       11.551        0.045      342.840       18.530      866.140
05/01/2014  23:50:00      -13.307      -23.443        2.509       31.119       28.059       16.193      968.377      787.308      262.199        0.138        0.101       26.956       14.979        0.309      342.635       18.183      866.130
05/01/2014  23:51:00      -27.016      -59.895       -5.734       43.385       36.447       26.055     1882.291     1328.366      678.844        0.412        0.194       65.706       16.537        0.063      342.786       18.440      866.114
05/01/2014  23:52:00      -59.442      -48.867      -10.031       34.185       27.976       22.969     1168.620      782.664      527.590        0.425        0.124       76.950       18.500        0.058      342.783       18.433      866.123
05/01/2014  23:53:00      -48.459     -126.007       -5.256       43.221       54.012       27.660     1868.046     2917.303      765.060        1.190        0.278      135.004       12.625        0.009      342.758       18.389      866.114
05/01/2014  23:54:00      -80.402      -48.352        1.739       53.637       41.047       26.868     2876.905     1684.822      721.911        0.704        0.264       93.821       22.668        0.058      342.617       18.153      866.123
05/01/2014  23:55:00      -27.477      -22.101       24.867       48.013       46.410       23.551     2305.221     2153.853      554.669        0.344        0.251       35.262       28.642        0.660      342.442       17.853      866.126
05/01/2014  23:56:00      -34.378      -91.249        5.478       37.433       59.178       23.454     1401.240     3502.079      550.098        0.749        0.273       97.510       18.124        0.035      342.660       18.224      866.128
05/01/2014  23:57:00      -93.551      -51.662        6.440       78.186       31.531       24.781     6113.088      994.205      614.108        0.959        0.386      106.868       33.789        0.100      342.618       18.154      866.142
05/01/2014  23:58:00      -88.919      -89.420        4.796       77.872       57.777       35.234     6064.010     3338.160     1241.467        1.328        0.532      126.105       37.932        0.090      342.744       18.366      866.156
05/01/2014  23:59:00     -111.281     -162.476       -6.017       70.182       70.333       39.917     4925.479     4946.793     1593.387        2.514        0.573      196.931       28.932        0.022      342.820       18.495      866.158
